GFSMA_sfc_dewp_000.txt.gz
Dewpoint
60 58 50 46 44 42 39 36 34 35 32 32 30 33 34 30 36 41 44 51 51 53 56 55 55 54 55 57 58 58 58 58 57 57 57 58 58 60 60 61 63 64 64
49 45 45 43 40 39 34 31 32 32 29 29 26 29 32 28 36 32 37 40 45 50 49 50 50 50 53 54 53 54 54 54 54 54 53 54 55 55 56 58 60 60 60
42 42 41 37 35 33 30 28 28 31 28 26 23 28 31 27 28 27 29 36 38 42 44 46 47 48 50 50 51 51 51 51 51 51 52 53 53 53 54 57 58 58 59
39 38 36 34 31 31 30 28 28 28 28 26 24 27 29 28 26 20 26 32 31 30 37 41 43 44 45 46 48 49 48 48 50 51 52 51 50 52 52 53 54 55 55
34 35 33 31 30 30 29 27 27 27 29 25 23 27 28 28 25 20 25 27 24 28 31 34 38 40 41 42 43 44 46 45 45 44 46 48 48 49 49 50 51 51 51
31 32 31 29 28 29 27 25 25 25 30 28 27 27 29 33 26 21 26 24 24 26 29 25 31 33 38 39 40 42 42 42 43 44 46 46 46 48 49 49 49 50 50
30 30 30 28 27 26 24 24 25 25 24 29 28 27 30 30 30 27 22 24 23 24 27 24 27 31 32 36 36 37 39 40 43 45 45 45 46 47 47 48 49 49 49
28 28 27 26 24 24 22 22 23 22 23 26 24 27 23 23 24 16 22 23 19 24 24 21 24 26 29 29 30 35 35 38 42 44 45 45 46 46 47 47 48 48 48
27 26 24 24 23 24 23 22 22 20 21 21 27 20 14 16 24 24 21 22 15 23 22 25 24 25 28 27 29 31 35 36 39 42 44 45 45 45 46 46 47 47 47
25 24 23 22 22 23 20 20 19 21 21 20 23 22 22 23 19 19 20 14 19 16 21 22 21 26 27 26 29 32 35 35 38 41 42 44 44 45 46 46 46 46 46
22 22 21 20 20 22 19 17 17 17 21 20 21 22 21 22 23 20 13 15 16 16 17 18 24 19 19 25 26 30 35 35 38 39 42 43 44 45 45 46 45 45 45
22 19 19 18 17 17 17 18 17 16 17 17 19 19 20 19 19 18 17 15 15 15 16 17 18 22 24 25 29 32 34 34 36 39 42 42 43 43 44 44 44 44 44
19 16 15 14 15 15 17 17 17 16 17 17 16 17 20 20 21 21 20 18 17 16 16 18 18 21 22 23 25 33 33 33 35 38 40 42 40 40 40 41 43 43 42
17 15 14 13 13 14 15 15 18 18 16 18 15 16 18 19 21 21 20 20 17 16 15 17 21 21 23 24 28 31 25 31 33 35 37 37 36 37 37 38 39 39 40
14 12 12 12 13 14 15 15 17 16 16 17 17 17 17 19 21 23 23 23 21 18 17 19 21 23 25 25 27 25 25 30 32 33 34 34 35 34 34 35 35 35 36
11 11 12 13 14 14 15 15 16 17 16 17 17 16 16 20 22 24 24 23 23 22 21 21 22 24 25 25 27 25 26 30 31 32 34 33 31 31 31 32 33 34 34
11 12 13 14 14 15 15 15 15 15 17 17 17 18 18 20 22 23 23 23 24 24 23 22 23 25 24 22 22 24 27 27 29 35 32 30 29 30 31 32 33 34 36
13 13 14 15 15 16 15 14 15 17 17 17 18 19 20 19 22 22 23 22 23 24 23 22 25 23 22 23 24 27 26 27 27 26 29 29 29 29 30 32 34 34 35
13 14 15 15 16 16 15 14 16 18 18 18 19 19 20 21 21 22 22 22 23 23 25 25 22 23 24 27 25 25 26 25 21 25 27 28 29 30 31 31 30 31 32
13 15 16 16 16 15 14 14 20 20 19 18 19 20 20 21 21 22 22 21 22 22 21 21 22 25 26 27 24 19 17 19 19 20 25 27 28 28 28 29 29 28 28
15 16 16 15 15 13 11 21 22 21 19 18 19 19 20 23 26 24 20 21 21 22 24 27 27 26 21 17 17 18 18 20 22 22 20 20 20 21 22 26 26 27 28
16 16 15 15 14 12 23 25 24 22 19 19 19 20 21 24 23 28 28 28 28 31 27 23 22 18 16 17 18 20 24 21 19 21 20 22 22 20 20 20 26 28 29
15 15 14 14 14 14 23 25 26 22 20 20 21 21 21 20 25 22 27 30 33 28 26 21 18 17 17 20 26 24 23 23 21 21 22 21 20 19 19 18 26 27 28
14 14 14 14 13 13 24 24 26 21 21 21 21 21 21 21 23 25 27 29 23 22 19 18 19 22 26 22 20 20 23 24 23 20 19 19 19 18 18 19 26 27 28
14 13 13 13 13 15 23 25 24 21 21 21 21 21 22 23 27 29 26 23 19 18 20 25 28 26 25 25 25 23 22 20 17 16 17 17 17 18 18 19 20 27 27
13 14 14 15 19 15 23 25 24 22 21 21 22 23 27 24 27 30 22 18 18 18 24 24 16 18 20 20 24 20 22 19 19 17 16 19 19 20 19 18 20 20 21

GFSMA_sfc_dewp_003.txt.gz
Dewpoint
63 56 44 43 40 38 34 33 32 28 25 25 24 30 28 33 32 36 39 51 52 53 53 54 54 54 57 57 57 57 57 57 57 57 58 59 60 59 59 60 61 62 64
52 46 41 39 37 32 30 29 29 28 23 22 20 27 27 31 28 29 36 36 47 47 49 50 51 53 52 54 55 55 54 54 54 53 53 54 55 55 55 57 59 59 60
44 41 36 33 32 31 27 26 25 28 22 19 18 23 26 29 25 28 33 31 34 41 44 46 46 47 48 50 51 51 51 51 52 53 54 53 52 54 55 56 56 56 57
41 36 34 32 30 29 28 26 24 25 23 21 20 22 25 30 23 26 29 28 31 31 33 40 40 42 44 45 47 47 48 48 48 48 48 49 51 51 51 52 53 53 54
35 32 31 31 28 27 26 23 23 24 23 22 21 21 26 31 23 25 23 28 29 28 29 32 37 37 38 40 43 45 45 45 45 46 47 49 48 48 49 50 50 51 52
32 31 29 28 26 25 23 22 21 22 24 24 20 20 32 36 30 27 21 22 25 25 29 28 28 26 34 38 40 41 41 42 43 45 46 47 47 48 49 49 50 50 50
31 31 28 25 25 23 22 20 22 21 21 26 20 21 26 27 31 30 19 24 23 22 26 23 22 22 24 36 38 39 39 40 42 43 45 46 47 48 48 48 48 49 49
29 27 26 25 24 23 22 22 23 21 21 25 19 23 18 18 22 14 25 23 20 20 21 17 20 20 23 25 31 36 37 38 40 42 44 45 46 47 48 48 48 48 48
26 25 25 23 24 24 23 23 23 22 20 22 22 18 14 13 17 20 19 24 15 20 16 20 20 19 20 22 27 28 34 36 39 41 43 44 45 46 46 47 47 48 48
25 23 24 22 22 21 21 20 19 22 22 19 22 16 18 18 13 13 18 14 19 14 17 18 17 18 19 20 26 32 35 37 38 40 43 44 44 45 46 46 46 47 46
23 22 21 21 20 20 20 20 20 20 21 20 20 19 19 18 23 17 10 13 16 17 18 17 18 18 19 21 25 29 34 35 38 40 42 43 45 46 46 46 46 46 46
21 20 19 19 19 19 20 21 21 21 20 19 20 20 19 17 15 15 15 16 16 16 17 17 17 18 20 22 26 32 32 34 36 39 42 43 43 44 44 45 46 46 47
18 18 17 16 17 20 20 21 21 20 19 19 18 18 19 18 18 18 20 18 16 16 16 15 17 19 21 24 22 29 31 33 35 38 40 41 40 40 40 42 43 45 45
17 16 15 15 16 17 18 18 20 20 19 20 18 18 18 18 19 21 20 19 17 13 13 13 18 20 21 23 27 30 24 30 32 34 37 37 35 35 36 40 41 41 40
14 14 15 15 16 17 17 17 18 17 18 19 19 19 18 19 20 22 23 21 19 15 16 15 18 20 22 23 25 23 22 28 31 31 31 31 32 35 37 36 34 35 36
13 14 15 15 16 16 16 16 16 17 17 19 18 18 18 19 20 23 24 23 22 20 19 19 21 22 23 22 25 23 23 29 30 32 32 31 32 32 32 33 33 34 35
13 14 14 15 15 15 14 14 15 17 18 18 19 20 19 20 21 22 23 23 22 22 21 22 23 24 22 22 21 23 26 25 27 31 31 31 31 31 32 34 34 34 35
13 14 15 16 15 14 13 13 17 18 18 18 19 20 20 18 21 21 22 22 22 23 23 22 23 23 21 22 23 26 26 22 22 27 29 30 30 30 30 32 33 34 34
14 15 16 15 14 14 12 13 17 19 19 19 19 19 19 19 19 20 21 22 22 21 24 24 23 23 24 26 28 24 20 19 17 24 27 28 29 30 31 31 31 32 32
16 16 15 14 14 13 12 15 20 20 20 20 20 19 19 20 20 21 22 21 21 21 22 23 25 28 26 23 22 19 18 21 20 20 25 26 28 28 29 29 29 29 29
16 15 14 14 13 13 11 21 23 22 21 20 20 19 20 23 27 26 22 23 23 25 28 30 26 24 22 18 17 19 20 21 23 23 22 22 22 23 24 27 26 27 28
16 15 14 13 13 11 22 25 24 22 21 20 20 20 21 25 25 28 28 28 28 31 30 27 24 19 16 17 19 22 24 23 21 21 20 21 23 22 22 22 26 28 29
14 13 13 13 13 14 23 24 25 21 21 21 22 22 21 21 26 23 27 30 34 29 26 23 18 17 19 21 28 26 24 22 21 22 22 21 21 20 21 19 26 27 28
13 12 13 13 14 14 23 24 25 22 21 22 23 22 22 22 24 25 26 32 25 22 19 19 20 23 27 25 22 21 23 25 23 21 19 20 20 19 19 20 26 27 28
12 13 13 14 14 17 23 24 24 21 21 21 22 22 23 23 26 27 28 26 18 18 20 25 29 27 25 25 25 23 24 22 19 17 18 18 18 19 20 21 22 26 27
13 13 14 15 19 16 22 24 23 21 21 20 21 22 25 24 26 29 24 19 19 19 25 25 16 17 19 19 24 20 23 21 21 19 16 21 20 21 20 17 20 22 22

GFSMA_sfc_dewp_006.txt.gz
Dewpoint
62 58 50 48 46 42 39 36 31 26 24 24 22 25 26 26 29 34 39 51 51 52 53 54 55 55 55 56 57 56 56 56 56 55 55 56 57 57 57 57 59 61 62
60 48 43 41 39 33 28 26 26 26 23 21 21 21 24 27 28 32 36 38 45 47 48 48 49 50 50 52 52 52 53 53 54 55 56 56 56 55 56 56 58 59 60
52 43 38 35 31 30 27 26 24 25 23 20 21 21 23 25 27 30 32 32 35 41 43 44 43 44 45 47 48 48 49 49 50 50 51 52 54 54 54 54 55 56 56
43 37 34 32 30 29 27 25 22 23 23 22 22 21 22 25 25 25 27 26 29 27 31 38 40 39 40 41 44 45 45 45 47 47 48 49 49 50 51 51 52 52 53
36 33 33 31 28 26 25 21 22 22 23 22 19 17 26 28 25 23 24 25 28 27 27 31 33 32 35 40 42 43 44 44 44 45 46 48 49 50 50 50 51 51 52
34 33 31 28 26 26 23 22 22 23 23 21 17 17 31 34 29 31 26 19 23 24 26 27 23 25 29 33 39 41 42 42 43 43 44 46 49 49 49 50 50 50 50
33 33 29 27 26 25 23 21 22 22 22 21 19 22 24 25 31 28 20 22 21 21 20 19 21 21 20 31 32 36 40 41 42 42 43 45 47 47 48 49 49 50 50
31 31 29 27 26 25 24 24 25 22 21 22 19 22 20 19 21 18 23 17 19 18 19 19 21 20 21 22 27 34 35 39 41 43 44 44 45 46 48 48 49 49 49
27 28 27 25 26 26 25 24 23 21 19 21 21 19 16 17 16 19 18 21 17 17 18 21 20 19 20 20 24 27 32 38 40 43 44 44 45 46 47 47 47 48 48
26 25 25 24 24 23 23 20 18 21 22 20 22 15 17 16 14 15 18 16 17 16 19 19 19 18 19 20 25 29 32 35 39 42 43 44 45 46 47 47 47 48 48
25 23 23 23 22 21 21 21 21 21 22 21 21 19 18 18 18 19 15 17 18 19 18 18 17 17 18 20 22 26 32 35 39 41 43 44 45 45 46 46 46 47 48
22 21 20 21 21 20 21 22 24 23 23 21 20 20 19 18 17 17 17 17 18 18 17 17 17 17 19 21 24 29 31 34 37 39 41 43 43 43 44 44 45 46 46
21 21 20 18 19 21 22 22 23 23 21 20 20 18 19 19 18 18 19 19 17 17 14 15 15 15 17 21 20 28 31 33 34 37 39 41 39 39 39 40 41 42 41
20 20 18 17 16 17 19 20 22 22 21 21 21 21 20 20 20 20 20 20 17 14 12 11 14 16 18 20 25 29 24 30 31 34 36 36 35 34 35 36 38 39 41
17 17 17 16 17 17 18 19 19 18 19 20 20 21 20 20 21 21 21 21 19 14 13 14 15 17 19 21 23 21 22 27 30 32 33 33 33 33 34 35 35 37 37
15 16 16 16 17 17 17 17 17 18 17 20 19 20 19 19 19 20 21 21 20 19 17 16 16 18 19 18 23 21 22 29 30 32 32 31 31 32 33 33 33 34 35
15 14 14 15 16 16 14 14 16 17 18 19 20 21 20 19 18 18 19 19 19 20 18 19 18 19 20 21 20 23 25 24 25 29 29 29 30 31 32 33 33 34 34
13 14 14 16 15 14 13 13 16 18 19 19 19 21 20 14 17 17 18 18 18 19 19 20 21 21 20 22 24 24 21 18 18 22 27 29 30 30 31 31 32 33 34
14 15 16 15 14 15 13 12 16 18 19 19 19 19 16 15 15 16 17 19 21 19 21 22 21 23 25 26 25 22 18 17 15 24 27 28 29 30 31 31 31 31 31
16 16 15 15 15 13 13 14 19 20 20 20 20 20 17 17 18 19 20 20 19 21 21 22 25 30 27 24 22 18 17 20 20 19 24 26 28 28 29 29 30 30 29
16 15 14 14 14 14 11 21 22 22 21 20 19 18 18 21 26 26 23 22 22 23 27 29 29 26 23 19 16 18 20 22 23 23 23 22 21 22 24 27 27 27 28
16 15 14 14 15 11 20 24 25 21 20 19 18 17 19 24 23 27 26 27 26 29 31 29 26 20 15 16 18 22 25 24 22 21 20 21 23 22 23 23 26 28 28
15 14 13 13 13 13 21 24 25 21 20 19 21 21 20 18 24 20 25 28 30 34 28 24 18 15 17 20 28 29 25 23 22 22 23 22 21 21 22 20 27 28 29
13 13 13 13 13 12 22 24 26 21 19 19 21 20 19 20 22 24 25 30 27 22 18 17 19 22 26 27 23 22 23 25 24 21 21 21 20 20 21 22 27 28 29
13 12 13 12 12 12 19 24 24 19 18 19 19 19 21 22 25 27 28 29 19 16 19 24 27 29 26 25 24 23 25 24 21 18 19 19 19 20 21 22 22 24 26
13 12 12 12 14 12 18 23 23 19 18 17 18 19 23 24 26 29 26 19 19 17 22 26 18 18 19 19 24 21 25 24 23 21 18 22 21 20 20 19 20 23 25

GFSMA_sfc_dewp_009.txt.gz
Dewpoint
60 59 56 53 50 46 43 38 32 29 27 26 24 23 25 25 27 32 43 52 50 51 52 53 53 53 53 54 54 54 54 55 55 56 57 58 58 57 57 58 58 60 61
61 55 50 47 43 38 31 29 29 28 26 24 22 21 23 25 27 31 36 42 45 47 47 47 47 47 47 48 49 49 50 50 51 52 52 53 54 55 55 55 56 58 58
56 50 44 41 37 33 30 29 25 26 26 23 23 23 23 24 27 29 33 35 41 44 41 42 42 42 43 44 45 45 46 47 47 48 49 49 50 51 51 53 53 54 55
51 45 41 39 34 32 30 28 26 27 27 25 24 22 23 26 25 26 30 29 33 29 39 36 36 37 38 42 44 45 45 45 45 46 47 48 48 50 51 52 51 51 52
43 37 38 35 31 31 30 27 28 27 26 26 23 23 30 31 28 23 25 27 30 31 32 38 35 36 32 35 40 43 45 44 45 45 46 46 47 48 51 51 50 51 52
38 40 35 32 31 31 29 29 28 27 26 24 17 21 33 34 32 30 30 19 25 27 29 31 29 30 35 32 36 38 42 43 43 44 45 45 46 47 49 50 50 51 51
38 38 35 32 32 31 30 28 28 27 26 25 27 28 30 25 31 33 23 23 25 22 24 24 26 26 25 32 32 35 39 41 43 44 45 46 46 47 47 48 49 50 50
37 36 35 33 32 32 30 29 30 26 26 26 22 29 27 25 25 22 25 22 21 24 23 23 24 23 26 26 30 33 35 39 42 44 44 45 46 47 47 48 49 49 49
35 34 34 32 33 33 31 29 28 26 26 27 24 23 23 24 21 26 26 23 23 22 22 25 23 23 23 24 27 28 31 35 40 43 44 45 45 46 47 48 48 48 48
33 32 31 31 30 30 29 25 23 25 27 25 26 17 20 19 18 19 25 23 22 18 22 24 22 21 22 23 27 29 31 35 39 42 44 45 45 46 47 47 47 47 47
32 30 28 30 28 27 27 26 25 23 23 23 24 23 21 22 21 20 20 22 22 23 23 22 21 20 21 23 25 28 31 34 38 41 43 44 44 45 45 45 45 45 45
30 27 27 27 27 26 26 27 27 26 24 23 23 22 22 21 21 22 21 20 20 22 21 20 20 21 22 22 24 29 30 34 37 39 41 42 42 42 43 44 43 44 44
27 26 26 24 25 26 26 25 26 25 23 23 22 21 21 21 21 21 22 21 21 21 19 17 17 18 15 22 22 28 30 32 34 37 40 41 40 39 39 40 41 41 41
26 25 24 23 22 21 22 23 24 25 22 24 25 25 24 23 24 23 22 22 20 19 18 15 17 17 20 20 24 29 24 30 32 34 36 37 36 36 36 38 38 38 39
24 22 22 20 20 19 20 21 21 19 20 22 23 24 24 24 24 24 23 23 21 18 17 17 17 20 20 20 23 22 22 28 31 33 33 34 33 34 34 35 35 36 37
21 21 20 20 19 19 18 19 19 18 18 22 22 21 22 22 22 23 23 22 22 20 18 19 19 19 20 19 23 22 23 29 30 31 32 32 32 31 32 33 34 35 36
20 19 18 18 17 17 16 16 16 18 19 20 21 23 22 22 21 20 21 21 20 21 19 19 20 21 21 21 21 24 27 24 24 29 29 29 29 30 32 33 34 34 35
17 17 16 16 16 16 14 13 15 17 19 19 20 24 23 16 18 18 19 18 19 19 21 20 21 22 22 21 24 27 24 21 20 23 28 29 30 31 31 32 32 33 33
16 16 17 17 15 16 14 13 14 16 18 19 20 19 19 18 16 17 19 20 22 21 22 22 21 22 23 28 28 23 21 20 17 25 27 29 30 31 31 31 32 32 32
17 18 17 16 15 14 14 14 17 19 20 21 21 21 19 19 18 19 21 22 22 23 23 22 23 26 29 26 23 20 18 20 21 21 25 27 29 29 30 30 30 30 30
17 17 16 15 15 14 11 20 22 22 21 20 20 18 19 22 24 25 24 25 24 23 25 27 27 29 23 20 18 19 19 22 23 25 22 22 22 22 23 27 27 28 29
17 16 15 14 15 11 21 24 25 22 20 19 18 17 19 24 23 25 27 26 25 26 28 29 27 21 20 17 19 22 24 26 20 22 21 21 22 22 23 23 27 28 29
16 15 13 13 12 13 20 24 26 22 20 20 22 22 21 18 24 22 24 26 28 30 30 23 20 18 18 20 25 26 25 22 21 22 22 22 22 21 22 20 27 29 30
14 13 12 12 14 14 20 23 25 21 19 19 22 20 19 20 22 23 24 28 29 26 22 18 20 20 24 28 31 25 23 23 23 22 22 20 20 20 21 22 28 29 30
12 11 12 13 12 11 17 21 24 20 18 18 18 19 19 20 24 26 25 28 24 20 21 23 25 28 28 26 24 22 23 23 22 20 21 20 20 21 21 21 22 26 28
12 13 13 11 11 11 15 20 23 19 18 18 18 18 23 22 26 26 26 22 21 19 20 24 23 21 20 20 24 21 24 24 23 21 19 22 22 22 20 19 21 22 23

GFSMA_sfc_dewp_012.txt.gz
Dewpoint
59 59 56 54 49 43 39 34 31 30 28 26 23 22 24 25 26 39 49 54 52 52 52 51 51 50 50 50 50 51 51 51 52 53 53 54 54 55 57 57 57 58 59
59 52 49 47 40 35 32 30 27 28 27 25 24 22 22 25 26 31 42 46 48 46 45 46 45 46 46 46 46 46 47 48 48 49 49 50 50 51 52 53 54 55 56
53 50 46 41 36 34 31 29 27 29 28 27 25 25 23 23 26 28 33 40 43 47 42 41 40 41 42 44 46 47 46 47 46 47 47 48 49 49 50 51 52 52 52
50 46 43 39 34 33 31 29 29 30 29 27 25 22 24 25 25 26 27 30 31 34 39 37 35 36 37 40 43 44 45 46 46 47 47 48 47 48 49 51 52 52 52
43 39 39 36 33 33 31 29 30 28 27 26 22 20 31 31 27 24 25 26 28 27 29 35 37 37 35 36 40 42 44 45 45 45 46 46 47 48 48 49 51 51 51
38 39 37 33 34 33 32 30 28 28 26 25 22 24 29 31 28 29 25 23 23 23 25 24 27 28 34 35 37 38 41 42 43 45 46 47 47 48 48 49 49 50 50
40 36 36 34 35 32 30 28 29 26 27 27 27 27 28 27 31 33 21 22 22 21 22 23 25 25 26 32 32 35 38 41 43 44 45 46 46 47 48 49 49 49 49
38 35 35 34 32 33 30 28 27 28 27 26 23 27 24 26 24 21 24 20 19 22 22 22 22 21 23 25 29 32 35 38 41 44 45 45 46 47 48 48 48 48 49
35 35 34 34 34 34 32 28 27 25 27 26 22 23 21 22 21 24 23 21 21 20 21 24 22 21 20 22 28 28 31 34 39 43 44 45 45 46 46 47 48 48 48
34 34 34 33 33 33 28 25 25 25 27 24 26 21 19 19 20 19 24 23 23 21 22 23 22 21 20 23 27 29 31 33 38 42 44 45 45 45 46 46 46 46 46
32 32 32 31 31 30 26 25 25 23 24 25 25 24 22 23 21 20 21 22 23 23 23 23 22 21 20 20 23 26 30 34 38 41 43 44 44 44 45 45 45 45 46
31 30 30 30 28 28 27 27 26 25 24 23 24 23 23 23 22 21 21 20 20 21 22 21 21 20 22 22 23 28 30 32 36 39 41 42 43 42 43 43 42 42 43
29 29 29 30 28 28 28 27 26 25 23 23 21 23 24 23 23 23 22 22 21 21 21 20 18 18 17 21 22 28 30 31 34 37 40 41 40 39 39 40 41 41 42
27 29 28 26 25 25 25 26 26 26 22 24 21 23 25 25 25 25 23 22 20 20 20 18 19 18 20 21 25 29 23 30 32 34 37 38 36 36 36 37 38 39 39
26 27 24 22 22 22 22 22 24 22 20 22 22 23 24 25 25 24 24 23 21 18 18 18 18 19 21 21 24 22 21 28 31 33 34 33 33 33 34 35 35 35 36
23 23 22 21 21 20 20 21 20 18 18 21 23 20 22 23 23 24 23 23 22 21 18 18 19 20 20 20 23 22 22 28 32 33 32 32 32 31 32 33 34 35 36
21 21 21 20 19 19 18 17 17 18 19 20 21 22 22 22 23 21 21 21 21 21 19 18 19 21 21 22 22 22 25 27 27 30 30 30 30 31 32 33 34 34 35
20 20 19 19 19 17 14 14 15 17 18 19 20 22 23 19 19 18 20 19 19 20 20 20 22 22 22 21 22 27 28 23 21 26 28 29 30 31 32 32 33 33 34
18 18 19 18 17 18 15 14 14 16 18 19 20 20 20 20 19 18 19 21 23 22 24 23 22 22 22 25 29 26 22 21 19 25 28 29 30 31 31 32 32 32 32
19 19 18 18 18 17 15 16 19 20 21 22 23 22 20 20 19 19 21 22 23 24 23 23 23 25 26 30 23 21 19 20 21 21 25 29 29 29 30 30 31 30 30
19 18 17 17 17 15 17 23 24 24 22 21 20 19 20 24 25 25 23 24 25 24 24 24 25 26 25 21 21 19 19 20 22 25 23 22 22 22 23 27 27 29 29
18 18 17 16 16 12 24 25 25 24 23 20 19 19 20 25 24 25 26 27 25 25 25 26 29 20 21 19 19 19 21 23 23 23 22 20 21 21 23 23 28 29 30
17 16 14 13 13 21 24 22 24 23 22 21 21 21 21 19 24 23 24 26 27 29 29 25 21 19 18 19 23 24 27 26 22 22 22 21 22 21 22 20 27 29 30
15 14 13 13 15 18 22 22 24 22 20 20 20 20 19 19 22 23 24 25 26 27 27 22 20 20 22 24 28 26 23 23 22 22 22 21 21 20 21 22 28 29 30
13 13 14 13 12 14 19 19 23 21 20 19 19 19 20 20 24 26 26 24 25 22 23 25 25 27 28 27 25 22 22 21 20 20 21 21 20 20 21 21 22 27 27
13 14 13 11 16 12 16 18 21 21 20 19 20 20 25 23 26 27 24 23 21 20 20 22 23 22 22 21 24 21 23 21 21 20 19 23 21 22 19 19 20 21 22

GFSMA_sfc_dewp_015.txt.gz
Dewpoint
58 59 61 58 46 39 34 31 29 28 26 23 22 21 23 25 39 46 50 56 53 51 51 50 49 49 48 48 48 49 49 50 49 50 50 51 51 52 53 54 55 56 57
59 54 49 42 36 33 31 28 26 27 27 26 24 23 22 26 30 42 43 48 48 45 45 45 44 44 45 47 48 48 48 49 49 48 49 49 49 50 50 51 52 53 53
51 48 43 36 34 31 28 27 29 29 28 26 23 21 24 23 26 37 40 41 43 49 42 41 40 40 42 44 45 46 46 48 48 48 48 48 49 49 49 50 51 52 52
50 45 40 36 34 32 29 29 29 28 26 25 22 22 26 26 25 26 33 35 35 38 38 38 37 39 39 41 44 44 45 46 46 47 47 48 48 49 49 49 50 51 52
47 43 38 35 32 31 31 29 29 27 24 24 23 21 31 31 26 26 25 28 29 27 27 36 38 36 36 39 41 42 43 44 44 47 47 47 48 49 49 50 49 50 51
41 39 35 33 33 32 31 29 27 27 25 24 23 27 28 32 28 29 22 25 23 24 23 23 26 27 34 35 37 38 41 42 43 45 46 46 47 47 48 48 49 50 50
38 35 34 33 33 31 29 28 27 24 26 26 24 26 29 28 30 32 23 22 20 22 21 23 24 24 25 32 32 34 36 39 41 43 45 46 46 47 47 48 48 49 49
38 35 34 34 32 31 28 26 27 28 27 25 22 28 22 25 23 22 24 20 20 22 22 23 22 21 21 22 29 30 31 37 39 42 44 45 46 46 46 47 47 47 48
35 35 34 33 33 32 30 26 25 26 26 26 21 23 18 21 21 24 22 23 20 22 23 24 22 21 20 21 25 27 29 33 37 42 43 44 45 45 46 46 46 47 47
36 34 34 33 33 31 27 25 25 25 28 24 26 22 20 20 18 15 22 23 23 21 22 24 23 22 21 22 25 28 29 31 37 40 42 44 44 45 45 45 45 46 46
34 34 33 32 31 28 25 25 24 24 25 25 25 24 22 23 21 20 19 21 22 22 23 22 22 22 21 21 23 26 30 33 36 39 41 43 44 44 44 44 44 44 44
35 32 31 31 28 27 27 27 26 24 24 24 25 24 24 22 21 21 20 20 20 22 22 22 22 20 21 23 24 30 31 33 35 38 40 42 42 42 43 43 43 42 43
34 31 30 28 28 28 29 28 27 24 23 23 21 23 24 23 24 23 22 22 21 22 21 21 20 21 19 22 23 29 30 32 34 37 39 41 40 39 39 40 40 40 41
34 29 29 29 29 28 27 26 27 26 23 24 22 24 25 25 25 25 23 22 20 20 20 19 20 19 21 22 26 30 24 30 32 34 37 37 37 36 36 37 38 38 38
33 28 27 26 27 28 25 25 25 19 20 23 22 23 24 25 25 24 24 23 21 18 17 19 18 19 21 22 24 24 23 28 31 33 34 35 34 33 34 35 35 36 37
29 27 27 26 25 23 22 23 20 19 19 22 23 21 21 23 23 23 23 22 22 20 17 18 19 20 20 21 25 23 22 29 31 34 33 31 32 32 33 33 34 35 36
31 27 23 22 25 21 19 20 19 19 19 20 21 22 22 22 22 21 20 20 20 20 19 19 20 22 22 22 22 22 24 27 28 30 30 31 31 31 32 33 33 34 35
28 28 23 23 20 19 16 16 16 17 18 19 19 21 22 20 19 19 19 18 20 21 21 20 22 23 22 22 22 24 26 26 23 26 28 30 31 31 32 33 33 33 33
26 25 22 19 18 18 16 15 15 17 18 19 20 20 20 20 19 19 18 21 22 22 24 23 23 23 23 25 26 28 24 22 21 25 27 29 31 32 32 32 32 32 32
25 20 19 19 19 17 17 20 22 22 22 22 22 22 21 20 19 19 20 21 22 23 24 23 23 24 25 26 27 22 21 20 20 19 24 28 30 30 30 30 31 30 30
19 18 17 17 17 18 19 23 25 24 23 22 21 20 20 23 25 25 22 23 24 24 24 23 23 25 25 20 21 20 19 20 21 23 24 24 22 22 23 27 27 29 30
18 17 17 17 15 19 28 28 26 24 23 21 20 20 20 25 24 25 25 26 25 24 21 23 25 23 21 20 19 19 21 22 22 24 21 22 22 21 22 23 28 29 30
16 16 15 15 19 24 27 26 26 23 22 21 21 21 21 19 24 21 25 26 27 28 29 26 24 22 20 20 22 23 27 26 23 23 22 21 22 21 22 21 28 29 30
16 14 14 15 19 23 26 24 26 21 21 20 20 19 19 19 21 24 23 25 26 26 27 26 23 22 22 24 27 24 22 22 22 21 21 21 21 20 21 21 27 29 30
16 14 15 14 18 22 21 22 23 21 20 20 20 21 22 21 25 26 25 23 24 24 24 26 26 27 28 27 25 22 21 20 19 18 19 19 20 20 20 21 21 27 27
14 15 14 12 18 11 17 17 20 21 20 20 21 22 26 24 26 27 25 24 22 20 21 22 23 22 21 21 24 21 21 20 20 19 18 22 21 21 19 19 20 21 21

GFSMA_sfc_dewp_018.txt.gz
Dewpoint
61 61 61 61 59 51 35 31 29 27 25 24 23 21 24 37 45 49 52 57 54 51 50 49 48 47 47 48 49 50 49 50 50 50 50 50 51 51 52 52 53 54 55
59 60 59 53 39 33 30 27 27 27 26 25 23 21 23 31 43 44 47 48 51 47 45 44 44 44 45 47 47 47 48 49 49 49 49 50 50 50 50 51 51 53 53
58 54 48 38 34 30 27 28 29 27 26 23 21 20 24 25 39 39 42 41 45 49 42 41 42 42 43 45 46 46 47 48 47 48 49 50 49 49 50 50 51 51 53
51 45 38 35 33 30 29 29 29 26 25 23 21 20 27 26 31 37 38 36 38 35 39 39 38 38 40 42 45 45 45 45 45 48 48 49 49 49 49 50 51 51 51
48 42 37 35 32 31 30 29 28 25 22 22 22 24 31 29 27 27 30 27 31 28 28 37 36 36 36 38 40 41 42 42 44 45 47 47 47 47 48 48 49 49 50
46 39 36 32 32 32 31 29 27 26 24 24 25 27 27 30 27 26 26 24 24 23 23 24 25 29 34 34 35 36 39 41 41 43 45 46 46 47 47 47 48 48 49
43 36 34 32 32 31 29 27 26 23 25 24 25 27 28 27 30 27 23 23 22 22 22 24 24 24 24 32 31 33 34 37 40 40 43 45 45 46 46 47 47 47 47
39 35 33 32 32 31 29 28 27 27 26 24 24 27 22 24 23 23 23 21 21 23 24 23 22 21 21 22 29 28 29 34 38 39 42 44 44 45 45 46 46 46 47
38 35 34 33 32 31 29 26 27 26 25 24 22 24 22 21 20 23 22 22 22 23 23 24 22 22 21 22 26 28 30 31 35 39 42 43 44 44 45 46 46 46 46
37 35 34 32 32 33 28 26 26 27 27 24 25 22 21 20 16 13 21 22 23 21 21 23 22 22 21 23 26 30 32 33 36 39 42 43 43 44 45 45 45 45 46
36 35 34 35 33 31 27 25 24 25 26 26 25 24 22 24 21 19 17 21 22 22 23 22 22 21 21 23 25 30 32 34 37 39 42 43 43 44 44 44 44 44 45
36 35 35 36 32 28 26 26 26 24 25 25 25 24 24 22 22 21 20 20 20 22 22 22 21 20 22 22 24 30 32 34 36 38 41 42 42 42 42 42 43 42 42
36 37 35 33 31 29 29 28 26 24 23 23 22 24 24 23 24 23 22 21 21 22 21 21 20 21 20 22 23 29 31 32 34 37 40 41 40 39 39 40 41 41 41
39 39 34 31 30 30 30 27 27 27 23 24 22 24 25 25 25 25 23 22 20 20 20 18 20 19 20 21 26 30 26 31 32 34 37 37 37 37 37 37 38 38 38
40 38 33 32 30 29 28 26 26 22 22 23 22 24 25 26 25 24 24 24 20 17 17 18 18 19 21 22 25 24 24 28 32 33 34 35 34 33 34 35 36 36 36
38 34 31 31 31 27 25 26 24 22 21 22 24 22 22 23 23 24 23 23 23 20 17 19 18 19 20 22 24 23 23 29 31 33 33 32 32 32 33 34 34 35 36
34 29 29 30 27 25 23 22 21 20 19 20 22 22 22 22 22 22 21 20 19 20 19 19 20 22 22 23 23 23 24 25 26 31 31 31 31 32 33 33 33 34 35
31 29 29 27 25 26 25 19 19 19 19 20 20 23 23 21 20 19 20 18 19 20 21 19 22 23 23 23 23 23 25 26 27 27 30 30 31 31 32 33 33 33 33
29 29 28 28 26 23 17 17 17 18 19 19 20 20 20 20 20 20 19 19 21 21 22 23 22 24 23 24 25 26 27 24 23 26 28 29 30 32 32 32 32 32 32
29 27 27 25 25 22 17 19 21 22 22 22 22 21 21 21 20 19 19 20 21 22 23 23 23 23 24 25 26 23 20 21 20 20 25 28 31 30 30 31 31 31 31
26 23 24 21 21 22 22 24 24 23 22 21 21 20 20 22 27 25 23 23 23 23 23 21 22 23 24 22 21 21 19 20 21 23 23 24 25 23 24 27 27 29 30
29 28 27 27 27 28 31 30 26 23 22 21 21 20 20 25 25 25 26 25 25 24 22 19 20 24 23 22 21 20 20 21 21 23 22 22 22 21 22 23 28 30 30
30 30 26 20 24 27 29 28 27 22 21 20 20 20 19 19 24 21 24 27 27 28 28 26 24 23 22 22 22 22 24 25 22 23 22 20 21 20 22 21 28 29 30
25 21 20 21 24 25 28 27 26 21 20 20 20 20 19 20 22 24 24 25 26 26 26 25 25 24 24 24 26 25 22 22 21 20 20 18 19 19 20 21 27 29 30
31 29 27 22 25 24 24 24 23 20 20 20 20 21 23 23 26 27 25 24 24 24 26 27 27 27 28 28 25 23 21 20 18 18 19 19 19 19 19 20 21 27 28
25 18 15 14 18 15 21 19 23 20 19 20 21 22 26 24 26 27 26 24 22 21 21 22 21 20 21 20 25 21 21 19 19 18 18 20 20 20 18 20 19 21 21

GFSMA_sfc_dewp_021.txt.gz
Dewpoint
61 61 61 61 59 52 39 31 28 26 24 23 22 24 32 45 48 51 53 56 55 52 51 49 48 48 49 49 49 50 50 51 51 50 50 51 51 52 52 52 52 53 54
60 60 60 59 54 41 31 28 27 27 26 24 21 22 28 42 45 47 46 48 52 48 46 45 45 45 46 47 47 48 49 49 49 50 51 51 51 51 51 52 51 52 52
59 59 58 52 40 31 28 28 28 26 25 22 20 22 24 36 40 43 41 42 44 49 44 44 43 43 45 45 46 46 46 46 47 49 49 50 50 50 50 50 51 51 51
59 55 51 41 33 29 29 30 28 25 24 22 20 21 27 28 38 39 38 37 37 34 40 39 38 39 39 42 43 43 43 43 46 46 48 48 48 48 49 49 49 49 50
54 51 45 37 31 30 31 29 28 24 20 22 22 29 31 28 33 35 32 31 32 30 33 37 37 36 36 37 39 39 40 42 42 44 45 46 47 47 48 48 48 48 48
49 45 38 33 32 32 31 29 25 25 23 24 26 27 31 28 28 28 28 26 25 22 23 23 25 29 35 35 35 37 38 38 40 41 43 45 45 46 46 47 47 47 47
46 41 36 32 32 31 30 27 25 21 23 25 27 27 27 27 29 24 25 23 22 22 23 24 24 24 23 33 34 34 33 36 38 40 41 44 45 45 46 46 46 47 47
46 41 36 32 32 32 28 27 27 26 24 23 24 27 23 24 23 24 22 22 21 24 23 23 21 21 22 23 28 34 30 33 37 39 41 43 44 45 45 46 46 46 47
45 42 37 34 32 32 30 29 28 26 24 23 23 25 23 21 22 23 22 22 22 22 22 24 22 21 20 23 27 30 34 35 37 40 42 43 44 44 45 45 46 46 46
47 40 37 33 32 35 32 29 28 28 26 23 25 21 21 23 16 15 21 23 23 20 21 22 22 20 22 25 29 34 35 36 38 41 43 44 44 45 45 45 45 46 45
46 43 36 34 35 35 33 27 26 27 26 27 25 24 22 24 21 18 15 19 22 22 23 22 21 20 21 22 24 29 32 35 38 40 41 43 44 44 45 45 45 44 44
44 42 39 37 35 35 33 29 27 26 26 26 26 25 24 22 22 21 20 19 20 21 22 22 20 20 22 21 23 30 32 34 36 38 41 42 43 43 43 43 43 43 42
42 40 41 40 36 33 34 33 28 25 25 25 23 24 25 23 24 23 22 21 20 22 21 21 20 21 20 21 24 29 31 32 34 37 40 41 40 40 40 41 42 41 41
44 41 41 39 37 32 32 31 30 27 25 25 23 24 25 25 25 25 23 21 19 19 20 18 20 20 20 22 26 30 25 30 32 34 37 38 37 36 37 38 38 38 39
43 42 39 37 34 32 32 32 29 25 24 25 24 24 26 26 26 25 25 24 20 16 17 17 18 19 21 22 25 25 23 29 33 34 34 34 34 34 35 35 36 36 37
41 39 36 35 34 32 31 30 28 25 26 27 27 24 23 24 24 24 24 23 23 20 16 18 18 19 20 22 25 25 24 30 31 32 32 33 33 33 34 34 35 35 35
40 38 36 33 30 29 28 28 25 23 22 23 24 23 22 22 23 23 23 21 20 20 18 18 20 21 22 23 24 24 25 24 26 30 32 32 32 33 33 33 34 34 34
39 36 32 30 28 28 27 28 29 30 28 23 22 24 23 22 22 21 21 19 19 19 20 18 20 22 23 24 24 23 24 25 26 29 31 31 32 32 32 33 33 33 34
36 34 30 28 29 30 31 30 28 26 21 20 20 21 21 21 20 21 20 20 20 19 21 22 22 23 24 24 24 25 26 25 24 27 29 29 30 32 32 32 32 32 32
33 30 29 28 28 29 29 30 29 26 24 22 23 22 22 22 21 20 19 19 19 21 22 23 23 22 23 24 25 25 22 21 21 20 25 28 30 30 30 31 31 31 31
31 27 27 28 29 31 31 31 29 26 22 21 21 20 22 23 25 25 22 22 23 23 23 21 22 21 23 24 23 22 21 21 21 23 23 23 24 23 24 27 27 29 30
29 29 30 31 32 33 35 33 28 24 22 21 20 20 20 24 24 27 27 27 25 23 21 19 17 23 24 23 22 22 21 21 21 23 22 21 22 21 21 22 27 30 31
32 32 32 32 33 35 35 33 29 23 22 21 21 20 19 19 24 21 24 27 27 29 28 26 24 23 23 23 23 22 23 24 22 22 22 20 20 19 21 20 28 29 30
31 30 31 33 33 34 35 33 28 22 20 20 21 20 20 21 23 25 24 24 25 25 25 25 24 24 25 25 25 27 25 22 22 21 21 18 19 19 19 20 27 29 30
32 32 32 32 32 33 33 31 24 20 19 19 20 21 22 23 27 27 25 24 25 25 26 27 27 28 28 28 26 22 20 20 18 18 19 19 19 18 19 19 20 27 28
32 32 31 31 31 24 25 22 24 20 19 19 20 21 25 24 26 27 25 24 22 21 21 22 20 19 20 20 25 21 19 17 19 18 18 20 19 20 18 20 19 20 20

GFSMA_sfc_dewp_024.txt.gz
Dewpoint
62 62 62 61 60 53 46 31 27 25 24 22 23 27 44 47 49 51 52 57 56 53 51 50 49 50 50 49 49 50 51 50 50 51 52 52 52 52 53 53 53 53 53
61 61 60 60 58 46 34 29 26 26 25 22 21 26 40 44 47 47 46 50 53 49 47 48 47 47 49 48 48 48 48 48 50 51 50 51 51 51 52 52 52 52 53
60 60 60 58 55 37 29 28 27 26 24 22 20 23 32 41 43 43 42 42 43 50 48 45 44 46 44 46 47 46 45 46 48 48 49 49 49 49 50 50 50 50 51
60 59 58 56 43 31 30 29 27 25 23 21 19 25 26 37 39 39 38 38 35 36 41 41 40 40 41 42 42 41 41 43 45 46 47 47 48 48 48 49 49 49 49
59 58 57 50 34 31 31 30 28 24 20 23 23 31 29 33 37 37 33 33 33 32 31 39 40 38 38 38 39 40 40 41 41 42 44 45 46 47 47 48 48 48 48
58 56 52 42 32 32 31 29 25 24 23 24 27 29 30 28 30 32 28 27 23 23 24 23 25 29 36 36 36 38 36 37 38 41 41 43 45 45 46 47 47 47 48
55 52 48 38 32 31 30 27 24 21 24 27 28 28 27 28 27 25 26 24 22 23 23 23 23 24 24 33 34 37 34 35 37 39 41 42 44 45 46 46 46 47 47
53 50 46 39 32 33 29 27 26 25 23 25 26 27 27 26 23 23 23 22 22 24 23 22 21 21 22 23 32 35 35 35 38 40 41 43 44 45 46 46 46 47 47
51 50 48 40 35 35 32 29 27 25 23 23 24 27 23 22 23 23 22 22 22 22 23 23 21 20 21 25 31 34 35 36 39 41 43 44 44 45 46 46 47 47 46
52 48 47 41 37 35 33 30 29 28 25 23 24 21 21 25 20 17 21 22 22 20 21 22 21 21 22 24 27 32 34 35 38 41 43 44 44 45 46 46 46 46 46
52 50 47 43 39 37 35 32 30 28 27 26 26 24 22 23 20 18 16 20 23 23 22 22 21 21 20 22 23 29 32 34 37 40 42 43 44 45 45 45 45 45 44
51 49 45 42 43 41 36 34 36 32 28 28 27 27 25 23 21 20 18 19 19 20 22 22 20 21 21 21 24 30 32 34 36 38 41 43 43 43 43 44 43 43 43
48 46 45 45 44 42 40 38 35 32 33 27 25 26 26 24 25 23 21 20 19 21 21 21 21 21 20 21 24 29 31 32 34 37 40 42 41 40 40 41 41 42 42
50 48 45 44 43 40 38 36 36 35 32 29 24 25 27 26 26 25 23 22 18 19 20 19 21 20 20 21 26 29 26 30 32 35 38 38 37 36 37 37 38 39 39
50 46 46 44 41 38 36 35 35 33 29 27 25 26 26 27 27 27 25 23 19 14 16 17 18 20 20 21 24 26 25 29 32 33 33 33 33 34 35 36 36 37 37
47 45 44 42 40 38 35 33 30 28 28 31 32 29 27 26 26 27 25 24 22 20 17 18 18 19 19 21 25 26 25 30 30 32 32 32 33 34 34 35 35 35 36
44 44 42 40 39 36 31 30 28 27 26 26 27 27 26 25 27 25 25 23 23 22 19 18 19 20 20 22 23 24 25 24 25 31 31 32 33 34 34 34 34 34 35
41 40 40 38 35 32 29 27 26 28 27 28 29 30 28 25 24 23 23 20 20 20 19 17 19 21 22 23 24 24 24 24 25 29 32 32 32 32 33 33 33 33 34
40 38 37 34 31 30 28 30 30 33 33 33 32 31 27 23 22 22 22 21 21 19 20 20 20 23 23 24 23 24 25 25 25 27 29 30 30 31 32 33 33 33 33
36 34 32 31 31 30 31 30 29 29 29 28 27 25 23 22 22 21 21 20 20 20 21 21 22 22 23 24 24 24 23 22 22 22 25 28 30 30 31 32 32 32 31
33 33 33 34 35 34 32 33 33 32 31 30 28 25 25 25 26 25 21 22 22 22 23 20 22 21 21 24 24 23 22 22 22 23 23 23 24 24 24 28 28 29 30
33 33 34 33 35 36 38 35 30 28 27 27 28 28 26 26 24 26 28 29 26 24 21 18 17 22 23 24 23 22 22 21 21 23 22 22 23 21 21 22 27 29 31
35 35 36 35 35 36 38 37 34 31 30 29 28 23 20 20 25 22 24 26 27 28 27 25 25 23 23 23 23 21 23 24 23 23 22 20 21 19 20 20 27 29 30
35 34 34 35 36 37 37 36 33 29 25 22 23 21 23 22 24 26 25 25 25 25 25 25 25 25 25 25 25 26 26 24 22 21 22 18 19 18 20 20 27 28 30
33 33 33 33 32 33 37 34 29 25 21 20 21 21 23 23 26 27 25 24 25 25 26 27 27 28 28 28 25 22 20 19 18 17 19 19 18 18 19 19 20 27 28
33 32 32 32 35 32 34 33 28 20 19 19 20 21 24 23 26 27 25 24 22 21 21 22 20 19 20 19 24 21 18 15 18 18 18 19 18 19 18 19 19 21 20

GFSMA_sfc_dewp_027.txt.gz
Dewpoint
66 66 65 66 64 59 51 38 31 28 27 26 28 39 47 51 53 53 54 58 58 54 52 51 51 52 51 51 52 51 50 51 52 52 52 53 53 53 53 53 54 54 54
66 65 64 65 63 57 48 37 31 30 28 26 27 38 45 50 51 49 50 50 55 52 49 48 48 50 50 49 49 48 48 49 50 50 51 51 50 51 51 52 52 52 52
63 65 64 63 62 52 41 32 29 29 28 24 26 32 42 47 47 45 45 45 45 52 49 46 48 45 46 46 46 44 45 46 47 48 49 48 49 49 49 49 50 50 50
61 63 63 63 60 46 36 33 31 29 28 26 26 28 38 43 43 42 41 39 41 40 43 42 42 42 42 41 41 41 41 44 44 45 46 47 47 47 48 48 48 49 49
62 61 62 62 55 44 35 33 30 29 27 26 26 31 30 40 41 37 37 36 39 37 38 42 41 40 38 39 40 40 40 40 40 41 42 44 45 46 46 47 47 48 48
62 61 60 59 50 43 36 33 31 27 27 27 27 31 32 36 38 37 33 31 31 30 27 29 30 31 37 37 38 39 37 36 37 39 41 41 44 45 46 46 47 47 48
61 61 60 56 48 43 36 32 30 28 28 32 33 31 31 31 31 33 30 28 27 26 27 27 27 27 26 32 34 35 36 34 37 39 41 42 43 45 46 47 47 47 47
60 60 58 53 46 41 35 32 31 27 28 32 31 33 30 28 28 26 28 26 25 26 26 24 24 24 26 26 34 35 35 36 38 40 42 44 45 45 46 47 47 47 47
60 59 58 54 46 42 38 34 31 31 29 30 30 31 29 29 28 27 26 26 25 25 25 25 23 23 25 29 32 35 36 36 38 40 42 44 45 45 46 46 47 47 47
60 58 57 55 50 44 40 35 31 30 32 30 27 24 25 29 28 25 25 24 24 22 24 24 23 23 24 25 28 32 32 34 36 39 42 44 44 45 46 46 46 46 46
60 57 56 53 51 44 44 40 34 32 30 31 31 26 24 25 22 24 24 24 24 24 23 23 23 22 22 23 26 29 31 33 37 39 42 44 44 45 45 46 45 45 45
58 56 54 53 52 49 47 44 40 36 33 32 31 30 28 26 23 23 22 22 23 24 24 24 23 22 22 23 23 28 30 33 35 37 41 43 43 43 44 44 44 44 43
55 54 53 52 50 48 47 45 43 41 39 37 34 31 28 27 27 25 26 23 22 22 22 23 23 22 21 22 24 28 29 31 33 37 41 43 41 40 40 41 42 42 42
56 55 53 51 50 48 46 44 43 42 40 38 32 30 30 28 27 27 25 25 21 20 20 19 22 22 22 22 24 28 25 30 32 35 37 38 37 36 37 38 39 39 40
55 54 51 49 49 48 46 43 42 40 36 32 30 29 28 28 29 30 30 26 22 17 16 19 19 21 22 22 23 24 26 28 32 32 33 34 33 34 35 36 37 37 38
53 50 49 48 47 45 43 42 39 34 30 32 33 32 31 32 31 30 28 26 24 22 17 19 19 20 21 18 23 26 26 30 30 32 32 32 33 34 35 35 36 37 37
49 48 47 45 44 42 41 40 38 30 28 30 31 31 29 28 29 30 30 29 27 24 20 20 19 20 20 21 23 25 26 25 25 30 32 32 33 34 34 35 35 36 36
46 45 44 42 41 39 38 36 32 30 29 30 32 33 32 31 30 28 28 26 25 25 21 19 20 20 21 23 24 25 24 23 25 27 31 32 33 33 33 34 34 35 35
44 42 41 39 37 35 33 31 30 32 33 34 34 34 32 31 29 27 25 26 28 28 24 21 19 22 23 24 24 25 25 26 24 27 29 30 31 32 33 33 34 34 34
40 39 36 33 31 31 31 32 33 32 31 31 29 29 29 29 30 31 31 31 30 27 23 24 24 24 25 25 25 24 24 24 22 21 26 28 30 30 31 32 32 32 32
34 33 33 33 33 33 33 34 33 33 33 32 32 32 32 32 33 34 31 30 29 27 27 28 26 25 24 24 24 24 23 22 23 24 24 23 23 23 24 27 28 29 30
36 36 35 35 36 38 40 39 35 33 32 32 30 31 31 31 31 33 33 32 32 30 30 27 26 23 24 25 24 23 23 24 22 23 22 21 23 21 22 23 27 29 31
36 36 37 37 37 38 39 37 35 32 32 31 31 29 28 28 30 29 25 26 27 28 28 27 26 24 24 24 27 27 26 25 23 23 22 21 21 20 22 20 27 29 30
36 36 36 37 37 37 38 37 34 30 29 28 28 28 28 27 25 27 27 28 27 26 26 26 27 26 26 26 27 28 27 24 21 21 21 20 20 19 20 21 27 28 30
33 33 33 33 33 34 37 34 30 28 27 27 25 22 24 23 25 25 25 28 26 26 25 27 27 28 28 27 26 22 23 23 20 18 19 19 19 19 19 20 20 26 28
32 32 32 33 36 34 36 32 26 20 22 22 22 21 23 23 24 26 27 28 23 21 22 23 21 20 20 18 24 21 23 22 21 20 18 20 19 19 19 18 19 20 20

GFSMA_sfc_dewp_030.txt.gz
Dewpoint
62 62 63 65 64 62 57 51 43 37 34 31 30 35 39 44 46 48 53 59 59 55 53 53 53 52 52 53 52 50 51 52 52 53 53 52 52 52 53 53 53 53 54
62 62 64 65 65 62 58 50 43 38 36 32 29 35 40 44 44 46 48 51 56 54 51 49 51 51 50 50 49 48 48 50 49 51 50 50 50 51 51 51 51 51 51
61 62 62 64 65 62 57 49 42 38 35 30 29 34 39 42 44 44 45 45 47 54 51 48 50 47 47 47 46 43 44 47 47 48 48 48 48 48 49 49 49 49 50
60 61 62 63 64 62 55 48 42 38 36 32 30 31 37 41 41 41 42 41 41 43 45 46 44 44 43 41 41 40 41 44 43 44 45 46 47 47 47 48 48 48 49
61 60 60 62 62 60 52 47 42 39 36 33 30 30 34 38 39 38 38 38 40 39 37 42 43 41 39 39 40 40 39 40 39 41 41 43 45 46 46 47 47 48 48
63 62 60 60 61 59 52 46 42 38 36 33 23 28 31 36 38 37 35 34 36 37 35 34 36 35 38 37 37 37 37 36 37 39 41 42 43 45 46 47 47 47 48
63 63 63 61 60 57 54 48 43 37 34 32 33 32 31 33 36 37 34 32 32 31 29 28 28 28 28 30 33 35 37 35 37 39 41 42 44 45 47 47 48 48 48
63 63 62 61 60 58 55 49 42 38 37 34 34 34 31 29 31 34 34 31 29 29 28 27 27 27 28 27 34 34 33 36 38 40 42 44 45 46 47 47 47 47 48
63 63 63 62 60 57 55 50 43 40 37 35 35 34 33 31 30 31 32 31 29 28 27 27 26 25 25 28 32 34 35 35 37 39 42 43 45 46 46 47 47 47 47
63 63 62 62 60 57 54 50 44 41 41 37 34 30 31 34 31 29 29 29 28 26 27 27 25 24 26 26 29 32 31 33 36 39 42 43 45 45 46 47 47 47 47
63 63 62 62 60 56 55 53 48 42 40 41 37 32 29 28 29 30 30 28 27 26 26 26 25 24 25 25 26 29 30 32 35 38 41 43 45 45 46 46 46 46 46
62 62 61 60 60 58 55 54 51 46 42 40 38 35 32 30 27 27 27 28 28 27 26 25 25 25 24 24 24 29 29 31 34 37 40 43 44 44 45 45 45 45 44
59 59 60 59 59 59 57 54 51 49 46 40 39 37 35 33 30 29 28 27 25 24 25 25 25 25 23 24 23 28 28 31 33 37 40 42 41 41 41 42 43 43 43
59 59 58 58 58 57 56 54 52 50 46 44 42 38 35 34 31 30 30 28 25 23 22 21 24 23 23 23 24 26 24 27 32 35 38 38 37 37 37 39 40 40 41
59 59 58 57 56 56 55 53 53 50 48 47 44 38 34 34 32 33 29 30 32 26 24 21 21 23 23 23 23 23 21 28 32 34 34 34 34 35 36 37 37 38 38
56 56 56 55 54 53 52 51 49 48 45 43 40 37 35 34 32 32 30 27 26 25 20 20 21 22 23 20 22 22 23 29 31 32 33 34 33 34 35 36 36 37 37
54 54 53 52 51 49 48 47 46 43 39 37 38 37 34 32 30 32 33 32 31 31 28 27 25 26 25 25 27 28 26 24 24 29 31 32 33 34 35 35 36 36 37
51 51 50 49 48 47 45 44 40 39 38 37 36 35 34 33 33 33 33 31 31 31 29 25 29 30 31 31 30 29 26 24 25 28 31 32 33 33 34 35 35 35 35
48 47 47 45 44 42 41 39 36 35 35 36 36 35 35 34 33 31 30 30 31 32 31 31 30 28 29 31 31 30 27 25 24 28 29 29 30 32 33 34 34 34 34
44 43 42 39 37 36 33 33 34 35 35 35 34 33 32 32 31 32 33 33 33 33 32 29 26 27 29 29 28 24 23 24 23 21 25 27 29 30 32 33 33 33 33
35 34 34 34 34 34 34 34 34 33 32 32 33 33 34 34 35 34 34 34 32 30 28 30 29 28 26 23 22 23 22 22 22 24 23 23 23 23 24 27 28 29 30
36 36 36 36 36 36 38 37 35 34 34 33 32 32 33 34 34 35 35 34 34 33 32 30 29 24 23 23 22 22 23 24 22 24 22 22 23 22 23 23 28 29 30
38 38 38 39 38 39 40 39 37 34 33 32 32 31 31 31 31 29 30 30 30 30 29 28 26 23 22 23 28 28 26 25 23 23 23 21 22 21 22 20 28 29 30
37 37 37 37 38 39 39 37 34 31 30 29 28 28 27 27 27 26 26 29 28 27 26 24 25 25 25 25 26 27 26 25 22 21 22 23 21 20 21 23 27 28 29
33 33 33 33 33 33 36 35 32 30 29 28 28 26 24 23 23 26 25 28 24 25 25 25 26 27 28 28 27 24 23 24 22 20 21 20 20 20 21 22 23 27 28
33 34 32 33 35 32 35 32 27 24 23 23 23 22 23 22 24 25 26 26 23 21 21 22 20 20 21 18 21 22 24 24 23 22 21 22 21 21 22 20 21 22 23

GFSMA_sfc_dewp_033.txt.gz
Dewpoint
64 65 65 64 63 62 58 55 49 43 40 37 36 36 39 42 44 48 56 60 60 56 54 55 55 53 54 54 52 52 53 52 53 53 52 52 53 53 53 53 53 53 54
61 61 62 64 64 63 60 56 50 44 41 38 36 35 38 42 43 45 53 54 58 56 52 53 52 52 52 52 50 49 50 50 51 51 50 51 51 51 51 51 51 51 52
59 59 60 64 63 64 61 58 51 45 42 39 36 36 39 41 43 44 47 50 50 55 54 52 52 49 50 49 47 45 46 48 47 48 48 48 49 49 49 49 49 50 50
60 59 60 63 63 64 62 58 51 45 43 40 37 35 38 41 41 41 44 45 46 45 49 51 48 47 45 43 42 42 44 44 44 43 44 45 46 47 47 48 48 48 49
61 60 60 61 63 63 62 58 52 47 45 42 39 36 38 40 40 39 40 42 43 45 44 46 49 45 42 41 41 41 41 41 40 41 42 42 43 46 46 47 47 48 48
63 62 61 60 62 63 61 56 52 48 46 43 34 32 37 39 41 39 37 37 39 41 41 41 43 40 41 40 38 37 38 37 38 39 40 42 44 45 46 47 48 48 49
64 64 62 60 60 61 60 56 52 48 45 43 37 37 37 35 37 39 37 37 38 38 38 36 36 35 36 35 33 34 37 37 37 38 41 43 44 46 47 48 48 49 48
64 64 63 62 61 61 60 57 52 47 44 41 40 41 37 33 33 36 38 35 34 35 33 32 32 33 35 34 40 34 35 36 38 40 42 43 45 46 47 48 48 48 48
65 64 64 63 62 62 61 58 54 48 44 41 42 43 41 38 34 35 37 36 33 33 32 32 31 30 32 34 37 36 37 36 36 38 40 42 45 46 47 47 48 48 48
63 65 63 64 63 62 61 59 55 50 49 43 42 38 40 41 37 33 35 34 34 29 31 32 30 29 30 34 35 37 35 32 34 37 41 42 43 45 47 47 48 48 47
63 63 63 63 63 63 61 60 55 49 50 47 44 41 38 36 37 38 32 31 32 31 30 30 30 29 29 31 33 35 32 31 33 36 39 42 44 46 47 47 47 47 47
63 63 63 63 63 62 61 59 57 53 51 49 46 41 37 36 33 33 34 32 30 30 29 30 30 30 30 30 30 35 31 30 32 35 38 41 43 44 45 45 45 45 45
60 61 62 62 61 61 60 58 57 54 52 50 49 45 40 40 36 33 37 32 33 30 29 30 29 30 27 30 30 29 31 31 32 36 39 40 40 40 40 42 43 43 44
57 59 60 60 60 60 59 59 58 56 53 52 51 48 44 42 38 38 38 32 28 27 26 27 27 28 28 28 30 31 27 30 30 33 37 38 37 37 37 38 40 41 41
56 56 59 59 59 58 58 58 56 54 53 52 49 47 45 40 37 36 36 37 39 33 27 23 24 25 27 26 27 25 25 27 30 33 35 35 35 35 36 37 37 38 39
52 54 56 57 58 57 57 56 55 53 52 51 49 43 40 38 37 35 35 34 34 33 27 28 27 27 27 25 27 27 24 29 31 32 33 33 34 35 35 35 36 37 38
50 52 53 54 54 54 53 52 51 50 48 43 42 39 38 37 37 36 36 36 34 35 33 31 32 31 31 32 33 34 32 28 27 31 32 33 35 35 35 35 35 36 37
50 51 50 51 50 50 49 48 45 44 41 40 40 38 37 37 36 35 35 33 33 34 34 32 32 32 32 33 33 31 29 29 28 30 33 34 34 34 33 34 35 35 36
48 48 48 47 46 46 44 44 41 41 40 39 38 37 36 35 34 34 33 33 33 33 33 32 32 32 32 32 31 31 30 30 28 29 30 30 30 31 32 34 34 35 35
44 44 42 41 40 39 36 36 37 37 36 36 36 36 36 36 34 33 33 33 33 33 32 32 32 30 29 30 29 28 25 27 26 23 25 27 29 30 31 32 31 32 33
36 35 35 35 35 35 35 36 36 34 34 34 35 35 36 35 35 34 34 33 33 33 32 32 30 29 28 28 26 25 24 24 25 26 25 25 24 26 26 28 28 29 30
38 37 37 36 37 36 38 37 36 35 34 34 33 33 35 35 36 37 37 36 34 32 32 32 31 27 24 24 24 25 27 26 24 26 24 23 25 24 24 25 28 29 30
38 39 39 39 38 38 39 38 37 34 33 33 32 32 33 34 33 31 32 33 33 32 31 30 27 24 24 24 29 29 27 26 24 24 24 22 23 22 24 22 28 29 30
35 35 35 35 36 37 38 37 35 31 31 31 32 31 30 29 28 27 26 28 28 28 28 26 27 26 27 26 27 27 27 25 24 23 24 22 23 22 23 24 28 29 30
33 33 33 33 33 34 37 36 33 31 30 30 29 29 25 24 25 26 27 30 26 25 25 27 26 26 27 28 27 26 25 24 22 21 22 22 22 22 22 23 24 27 28
33 33 33 33 33 33 33 33 32 30 29 25 23 22 22 23 24 25 27 26 25 23 23 23 22 21 22 21 21 21 24 23 24 23 23 24 22 23 23 22 23 24 24

GFSMA_sfc_dewp_036.txt.gz
Dewpoint
64 65 65 61 59 61 60 57 53 46 42 38 36 36 38 42 44 56 57 60 61 59 57 57 56 56 56 54 53 54 54 54 54 53 53 53 53 53 53 53 53 53 53
64 64 64 65 63 62 61 57 52 47 42 39 36 35 37 42 44 55 55 56 59 58 55 55 55 54 55 53 52 51 52 52 52 51 52 51 51 51 51 51 52 52 52
61 62 62 63 64 63 62 59 53 47 43 39 37 35 39 41 43 46 53 51 53 56 56 54 54 53 53 52 49 49 49 49 49 49 49 49 49 49 49 50 50 50 51
60 60 60 63 63 64 63 61 55 47 44 40 38 36 39 41 42 42 47 49 48 47 52 56 53 51 50 47 45 45 47 46 45 44 44 45 46 47 47 48 48 49 49
61 60 60 62 63 63 63 62 55 46 44 42 40 37 37 40 41 41 42 44 46 47 46 52 53 52 47 45 44 45 46 44 42 42 42 42 43 44 46 47 48 48 49
62 61 60 60 62 62 62 62 54 49 47 44 37 35 36 39 40 40 39 40 41 44 43 43 44 43 47 45 44 42 41 40 40 40 40 41 42 43 45 46 47 48 49
63 62 62 61 62 61 61 61 54 49 47 43 36 35 36 34 36 39 38 38 38 39 41 41 41 39 41 44 40 37 38 41 40 40 41 41 43 45 46 47 47 47 48
64 63 63 62 61 62 61 60 55 50 46 42 37 38 35 34 33 36 38 37 36 38 37 36 37 35 35 35 35 40 39 40 41 41 41 42 43 44 45 46 47 47 48
64 65 64 63 62 61 61 60 56 51 46 44 41 41 39 36 33 34 36 37 34 35 34 32 31 30 32 35 41 37 38 40 41 40 40 41 42 44 45 46 47 48 48
64 64 63 63 63 63 62 61 59 53 48 43 43 42 39 38 34 31 35 36 34 32 32 33 30 29 28 35 36 40 40 37 36 37 39 41 42 43 45 46 47 47 47
64 63 63 63 63 63 63 62 59 55 50 47 45 46 44 39 36 36 31 32 34 33 31 31 30 29 27 31 33 39 39 36 35 36 38 39 41 43 46 46 47 47 46
61 62 62 62 63 63 62 62 60 57 52 51 46 47 44 42 38 37 35 32 31 33 31 31 30 30 30 29 33 38 37 34 34 35 37 39 41 42 43 44 44 45 45
58 59 62 62 62 62 62 61 60 58 53 52 50 47 46 47 43 40 39 35 33 30 29 30 30 30 28 30 34 37 35 32 33 35 38 40 40 40 40 40 42 43 43
56 58 61 61 61 61 61 60 59 58 55 53 52 51 49 47 46 44 42 37 35 34 34 35 36 34 32 30 33 33 33 34 33 34 36 38 38 38 38 38 39 40 41
55 55 55 58 59 60 60 59 58 58 56 54 53 51 47 45 45 44 44 44 41 34 33 34 34 35 35 34 35 32 30 30 33 32 34 36 36 36 37 38 38 38 39
50 53 53 54 56 57 57 56 56 55 53 52 50 48 44 42 41 41 40 39 40 38 33 34 33 35 36 36 36 35 33 35 36 37 37 36 34 35 35 37 37 38 38
50 51 51 51 52 53 53 52 51 51 48 45 45 44 41 40 38 37 38 38 37 37 35 33 34 34 34 34 35 35 35 33 31 35 34 34 34 35 36 36 36 36 37
49 50 50 49 49 48 48 48 45 45 43 42 40 40 39 39 38 37 37 36 36 36 35 33 33 32 32 34 34 34 33 29 29 31 33 34 34 34 34 33 33 34 35
46 45 44 43 43 43 44 42 41 41 41 40 40 39 38 37 36 36 35 35 34 35 34 34 32 33 33 34 34 33 31 31 30 32 33 29 30 31 32 33 33 34 35
36 36 35 35 36 36 37 37 38 37 37 37 37 37 36 36 36 35 34 33 33 33 33 32 32 33 33 33 32 29 28 28 27 24 26 28 30 30 30 31 31 31 31
36 36 36 36 36 36 37 36 36 36 35 35 35 35 35 36 36 35 34 33 33 33 32 32 31 31 30 28 27 27 26 25 25 26 25 24 24 25 26 29 29 29 30
39 38 38 38 38 38 39 38 36 34 34 34 33 33 34 37 37 38 37 36 34 32 31 32 29 27 26 23 23 25 25 23 20 25 23 23 24 23 25 25 29 30 31
37 37 38 38 38 38 39 38 36 33 33 33 33 33 34 34 33 32 35 35 34 33 32 30 27 25 23 24 25 23 23 21 23 25 24 23 23 22 24 23 29 30 31
34 34 34 35 36 37 38 37 35 32 31 32 32 31 30 30 30 30 27 29 27 26 27 27 27 26 25 26 26 24 24 24 24 24 23 21 22 22 23 24 29 29 30
33 32 33 33 33 34 36 35 32 31 30 30 29 29 28 27 26 27 27 27 26 25 25 27 25 25 26 27 27 25 21 18 19 21 23 22 22 22 23 23 24 28 28
31 32 32 32 32 30 32 31 31 30 26 25 25 24 24 25 25 26 27 24 23 21 22 21 21 22 22 20 22 21 21 12 14 16 22 20 22 23 21 24 23 23 25

GFSMA_sfc_dewp_039.txt.gz
Dewpoint
60 61 62 62 64 63 62 60 58 54 48 40 37 36 39 41 54 57 59 62 63 62 60 59 58 58 57 55 56 55 55 55 54 54 54 54 54 53 53 53 54 54 54
62 62 63 60 60 62 62 60 56 49 43 40 37 35 37 41 49 56 57 59 61 61 59 58 57 57 56 55 55 55 54 54 52 53 52 52 52 52 52 52 52 52 52
63 63 63 64 63 62 61 59 54 49 43 40 37 34 37 40 48 55 54 54 57 59 59 57 56 56 56 55 53 53 53 52 51 50 50 50 50 49 50 50 50 50 50
62 63 62 63 64 64 63 61 56 50 45 41 38 36 37 40 43 53 52 51 51 50 56 58 56 55 55 54 52 52 52 50 49 48 48 47 48 48 47 48 48 48 48
60 60 60 62 63 63 63 62 59 50 45 42 39 38 37 39 42 43 50 49 48 48 47 56 57 56 55 52 50 50 52 49 47 46 45 45 45 46 46 46 46 46 47
61 60 60 60 63 62 63 62 60 50 46 44 39 37 36 38 41 41 42 47 47 46 46 47 50 49 53 49 48 49 51 49 45 45 45 44 45 45 45 46 46 46 47
63 62 61 60 62 62 61 62 59 53 47 44 39 35 36 35 37 40 40 40 42 45 44 44 43 42 45 48 47 47 46 46 45 45 44 44 45 45 46 46 46 47 47
65 65 63 61 61 61 61 61 58 53 51 45 42 36 33 34 34 34 39 38 39 42 42 42 41 39 40 42 41 43 42 44 45 45 45 45 45 45 45 46 47 47 48
64 64 63 63 62 62 61 61 60 56 51 48 43 44 38 36 34 34 34 38 37 38 39 40 39 37 36 37 40 40 42 43 44 45 45 44 43 44 45 46 47 47 48
63 63 63 62 62 62 61 62 61 58 53 49 46 42 46 40 35 34 38 39 40 35 36 35 35 32 33 35 40 41 41 42 43 43 42 42 43 43 45 46 47 47 48
63 63 63 62 61 62 62 60 59 57 54 52 48 46 45 44 39 36 36 40 40 37 35 34 31 31 30 35 37 40 43 41 39 40 41 41 41 43 45 46 47 47 47
60 62 62 62 62 63 61 60 59 59 57 54 50 49 47 45 43 40 39 38 40 39 35 33 31 30 30 33 37 43 43 40 38 37 38 39 40 43 44 45 45 44 45
57 58 61 60 60 62 61 61 59 59 57 55 52 50 49 50 47 44 43 39 39 38 36 37 34 31 29 31 34 42 41 37 35 34 38 42 41 41 42 43 44 44 44
55 56 60 60 60 60 59 60 59 58 56 55 54 51 50 49 48 47 45 42 39 36 37 36 38 37 34 35 40 40 38 38 38 39 42 41 40 40 40 41 42 42 42
53 54 54 54 55 57 57 58 58 57 57 55 54 53 51 48 47 46 46 45 42 38 35 36 37 38 39 40 41 37 37 39 40 42 42 42 41 42 42 39 39 40 40
51 52 52 52 52 53 55 54 54 53 53 51 51 50 46 45 45 44 44 42 43 42 37 36 36 37 39 39 41 38 38 39 40 41 41 41 42 40 37 37 38 38 39
50 50 50 50 50 50 50 49 48 48 47 46 46 46 43 42 40 41 40 40 40 40 39 34 35 35 36 37 38 37 37 37 37 39 40 41 37 36 36 37 37 37 37
44 45 45 45 44 46 45 45 44 43 42 43 42 41 39 39 38 38 39 39 38 39 37 34 33 32 33 34 35 35 35 35 35 35 35 34 35 36 35 34 34 34 35
37 36 36 36 37 39 40 41 41 41 40 40 40 39 38 38 37 37 36 36 35 35 35 35 33 33 33 34 34 35 34 33 30 33 34 35 32 31 32 32 33 33 34
36 35 35 36 36 37 37 38 38 37 37 37 37 37 37 37 36 35 34 33 34 34 34 34 33 33 34 34 33 31 29 30 29 27 27 29 30 30 30 30 31 31 31
37 37 37 37 38 38 37 36 36 36 35 35 36 36 36 37 37 35 35 34 34 33 33 32 32 32 31 29 28 28 28 26 25 26 24 24 24 24 25 28 29 29 30
38 38 37 38 38 38 39 38 36 34 34 34 33 34 35 36 38 38 37 36 35 34 32 32 32 29 27 26 23 24 25 23 19 24 24 24 24 23 24 25 29 30 31
36 36 36 37 37 38 39 37 36 33 33 33 33 34 33 34 33 33 37 37 36 37 34 31 28 26 23 24 23 21 23 21 22 24 24 23 23 22 24 23 28 30 30
34 34 34 35 36 37 38 36 35 32 31 31 31 31 30 29 30 30 29 30 29 27 26 26 27 26 25 25 25 24 24 23 24 24 23 19 22 22 23 24 29 29 30
31 32 33 33 33 34 35 34 32 29 26 26 28 27 27 27 25 26 27 27 26 24 24 27 26 25 25 27 27 24 20 17 18 20 23 22 22 22 23 23 24 27 28
32 32 31 26 31 23 30 31 28 25 22 24 24 22 25 26 27 28 25 23 22 21 22 22 20 21 21 20 23 20 21 11 11 13 21 19 21 23 19 23 23 23 24

GFSMA_sfc_dewp_042.txt.gz
Dewpoint
60 62 62 63 64 63 61 60 59 57 53 49 39 37 38 41 56 59 60 63 64 63 62 61 60 59 58 56 56 56 56 55 55 55 55 55 54 54 54 54 54 54 55
60 60 61 62 63 63 63 61 60 57 52 45 39 36 37 40 53 57 58 60 63 63 62 60 59 58 58 56 57 55 56 54 54 54 54 53 53 53 53 53 52 53 53
62 60 61 60 60 61 62 61 60 56 48 43 39 36 35 38 46 56 57 57 60 61 62 60 58 58 57 56 56 55 56 54 53 53 53 52 52 51 51 51 51 51 51
63 62 62 62 62 61 61 60 57 54 48 43 40 38 35 38 42 55 55 55 55 55 59 60 59 58 58 56 55 55 54 53 52 51 51 50 50 49 49 49 49 49 49
62 62 62 62 63 63 62 61 60 53 49 45 41 39 37 38 41 46 53 52 51 52 51 57 60 59 59 57 56 54 54 52 51 49 49 48 48 48 48 48 47 47 47
61 61 61 62 62 63 63 62 61 54 49 46 41 38 38 38 40 42 49 51 50 49 48 49 55 55 58 56 55 52 53 52 50 48 48 47 47 47 47 47 47 47 47
63 62 61 60 61 62 62 62 61 58 53 49 48 40 37 36 36 40 41 47 48 48 47 47 50 48 52 56 53 51 52 53 50 48 47 47 46 46 47 47 47 47 48
65 64 62 61 61 61 60 60 59 56 56 50 48 41 37 37 35 35 39 40 44 47 46 45 45 44 45 47 47 52 50 50 49 48 47 47 47 47 47 47 47 48 48
64 64 63 62 61 61 61 61 60 58 57 51 49 47 37 37 36 35 34 39 39 41 45 46 45 42 41 43 47 49 49 46 46 48 48 48 47 46 46 47 47 48 48
62 63 62 62 61 61 60 59 60 59 55 52 50 48 49 43 38 39 36 36 39 37 40 44 44 42 39 40 42 43 45 45 45 47 48 48 46 46 45 46 48 47 48
59 61 62 61 61 61 60 60 60 60 59 58 50 47 47 48 42 41 38 39 43 42 40 40 41 40 37 36 38 41 44 42 44 45 45 45 45 44 45 46 47 47 46
52 57 60 61 60 60 60 59 60 58 58 56 56 53 49 48 47 44 43 41 43 43 40 40 37 37 37 40 42 43 44 44 42 42 43 42 41 42 46 46 46 46 45
52 55 58 59 59 61 60 60 60 57 58 57 56 52 52 50 50 48 47 45 41 42 40 40 40 40 38 39 40 44 47 43 41 39 39 40 43 46 46 46 48 48 46
52 54 56 57 57 57 58 58 56 56 57 57 56 53 52 51 50 49 47 44 40 38 38 38 39 39 39 41 44 46 44 44 43 42 42 44 46 46 46 45 47 48 45
51 52 52 52 52 53 55 55 54 54 56 55 55 54 52 51 50 49 48 47 46 42 38 37 37 39 41 42 44 41 42 43 44 45 45 45 45 44 45 45 46 44 42
50 50 50 50 50 51 52 51 51 50 50 50 51 51 48 46 45 45 45 44 42 44 41 38 37 38 40 41 43 40 40 42 43 44 44 44 44 44 44 45 42 40 39
46 47 47 47 47 46 46 46 46 45 47 47 45 46 43 42 42 41 41 41 41 41 39 36 36 36 37 39 40 39 40 40 39 42 43 43 43 44 43 39 38 38 38
37 38 39 40 42 43 42 42 41 41 43 42 41 41 40 39 39 39 39 39 39 39 38 35 34 33 34 36 36 36 37 37 37 38 42 42 41 38 37 37 36 35 35
36 36 36 37 37 38 39 39 39 39 39 39 39 39 38 38 37 37 37 36 36 36 36 36 33 33 33 34 34 34 35 36 36 38 38 36 36 36 33 33 33 33 33
36 36 37 37 37 37 37 37 36 35 35 37 37 37 37 37 36 35 34 34 34 35 35 35 34 33 34 34 34 33 32 33 31 28 30 30 30 31 32 32 31 31 32
37 37 37 37 37 37 37 35 35 35 35 35 36 37 37 38 37 36 35 34 34 34 34 33 32 32 32 31 31 30 29 27 26 26 25 24 24 24 25 29 29 30 30
37 37 37 37 36 36 38 38 35 34 34 34 34 34 35 36 37 39 38 37 36 34 33 32 31 29 28 27 25 24 24 23 21 24 24 24 25 24 24 25 29 30 31
35 36 36 36 36 37 37 37 36 32 32 31 32 32 32 33 33 32 35 36 36 37 34 30 27 25 23 24 23 21 22 21 22 23 24 22 23 23 23 23 29 30 31
34 34 34 35 36 37 37 36 34 31 29 26 27 26 27 28 29 28 28 27 27 27 26 26 27 26 25 25 25 23 24 23 24 24 24 18 22 21 23 23 29 30 30
32 33 33 33 33 33 32 32 28 22 23 23 26 25 25 24 26 29 25 25 25 22 24 28 27 26 26 26 27 25 19 15 18 20 22 21 22 22 23 23 24 27 28
32 31 24 24 29 19 29 29 26 24 21 22 20 22 28 26 28 29 24 22 21 22 22 22 21 21 21 19 23 21 20 10 11 13 21 19 21 22 17 21 23 23 23

GFSMA_sfc_dewp_045.txt.gz
Dewpoint
60 60 61 62 63 63 61 60 59 57 55 52 49 41 37 39 45 59 60 62 65 65 62 62 61 60 58 57 56 56 56 55 55 55 55 54 54 54 54 54 55 55 55
60 60 61 61 62 62 62 61 60 59 57 53 48 39 37 38 42 57 58 59 64 65 64 62 61 60 59 57 57 56 56 55 55 55 54 53 53 53 53 53 53 53 53
61 60 60 61 61 62 62 61 60 59 57 52 45 41 37 36 41 53 57 58 60 62 64 62 61 60 58 58 58 56 56 55 55 54 53 53 52 52 52 52 52 52 52
62 61 60 60 61 60 61 61 60 59 56 52 46 42 38 36 38 47 55 56 57 58 61 63 62 60 59 58 57 57 56 55 54 53 53 52 51 50 50 49 49 49 49
63 62 61 61 62 61 60 60 60 58 55 52 47 43 40 37 37 41 52 54 55 55 55 58 61 61 60 58 57 57 56 55 53 52 52 51 50 50 49 49 48 48 48
62 62 62 62 62 62 62 61 60 57 55 53 49 45 42 39 38 40 44 53 53 53 52 52 53 57 60 59 58 57 56 55 53 51 50 49 49 49 48 48 48 47 48
62 61 61 61 61 62 62 62 61 59 57 53 51 47 40 39 37 38 41 46 51 51 50 49 50 53 55 59 59 57 55 55 54 52 50 49 49 48 48 48 48 48 48
64 63 62 61 60 60 60 60 61 58 56 53 52 44 45 44 38 37 38 40 44 50 49 49 49 51 51 53 54 58 54 54 55 53 50 49 49 48 48 48 48 48 48
63 63 63 62 61 60 60 60 59 58 58 51 50 52 43 42 40 39 35 37 39 43 47 48 47 48 48 49 51 53 55 53 52 51 51 50 49 49 48 47 48 48 48
58 61 61 61 61 60 59 60 59 58 56 58 51 51 50 44 43 44 39 37 37 40 43 48 47 46 46 45 47 50 52 49 48 47 49 50 50 49 48 47 47 47 47
49 54 59 60 60 60 59 58 58 58 59 59 55 50 49 49 44 43 47 44 44 43 44 43 44 45 44 43 44 46 47 45 44 45 46 49 50 48 47 46 46 46 47
50 52 56 58 59 59 59 59 58 57 59 59 56 54 51 49 47 46 44 46 45 45 45 45 45 45 44 42 44 46 47 47 48 51 51 50 46 46 44 48 49 49 49
49 52 54 57 57 58 58 58 59 59 58 57 56 54 52 52 51 49 47 47 45 43 39 39 40 41 41 43 45 47 48 49 49 51 50 51 48 47 47 47 48 47 48
47 52 54 54 54 55 56 56 55 54 54 56 55 53 52 52 51 50 49 47 43 41 39 41 39 40 42 42 44 48 47 49 50 49 48 47 46 46 47 47 48 48 49
51 50 50 50 51 52 53 53 53 53 54 54 54 53 53 51 50 49 49 48 47 42 41 38 36 37 39 42 44 46 45 48 47 47 46 45 45 46 47 46 46 47 47
47 48 48 48 48 48 48 47 47 48 49 48 48 48 46 45 44 44 44 44 44 44 41 39 37 37 39 43 44 42 43 46 46 45 46 45 46 45 44 45 45 46 44
40 43 44 45 44 44 44 43 43 44 46 44 43 43 41 41 41 41 41 41 41 41 39 38 37 37 38 40 41 40 41 41 41 44 45 45 44 44 43 44 44 43 43
37 37 38 39 40 41 40 40 40 40 40 40 40 41 40 40 39 39 39 39 38 39 38 36 34 34 34 37 37 38 39 39 38 39 41 42 42 43 42 41 40 39 38
36 36 37 37 37 37 37 37 37 37 37 37 37 36 36 37 37 37 37 36 36 37 36 36 33 34 34 34 33 33 34 36 38 39 40 41 41 39 38 37 35 34 35
37 37 37 37 36 36 36 35 35 34 34 35 36 35 35 36 35 34 34 34 34 35 35 34 34 33 34 34 34 34 33 35 34 33 32 32 32 32 32 33 33 32 32
37 36 36 37 37 37 36 34 35 35 36 35 35 36 38 38 38 37 35 35 35 34 34 33 32 33 33 32 32 32 31 28 26 26 25 24 24 24 25 28 28 29 30
36 36 35 36 36 37 38 38 36 34 34 34 34 34 35 36 37 38 38 37 36 33 33 32 31 29 26 26 24 25 24 21 20 24 23 23 24 24 24 25 29 30 30
35 36 36 37 37 36 38 37 35 31 28 28 28 28 30 31 31 30 31 32 31 32 33 29 26 25 23 23 22 21 21 20 22 23 24 22 23 22 23 23 28 30 31
34 34 34 35 35 36 36 35 33 26 24 24 25 23 24 25 27 28 26 27 26 23 27 26 25 25 25 25 24 23 23 22 24 24 24 17 21 21 22 23 28 30 31
33 32 32 30 24 25 31 30 26 21 22 21 22 24 23 25 28 30 25 24 24 23 24 27 27 27 27 28 27 25 25 16 18 19 22 21 21 22 23 23 24 29 29
31 26 21 20 28 18 29 28 24 24 19 20 19 21 28 27 28 28 24 22 21 22 22 23 20 20 19 17 21 23 20 9 11 12 19 19 21 21 17 20 22 22 23

GFSMA_sfc_dewp_048.txt.gz
Dewpoint
60 60 60 61 62 62 62 60 59 58 56 54 50 47 43 38 40 51 59 62 64 66 64 62 62 60 59 58 57 56 56 55 54 55 55 54 54 54 54 55 55 55 55
60 60 59 60 61 62 62 61 59 59 58 56 54 50 42 38 39 46 57 59 62 65 65 63 62 61 59 58 57 57 56 55 55 55 54 53 53 53 53 54 53 54 54
61 59 60 60 60 61 62 61 60 59 58 57 53 49 43 38 37 41 53 57 59 62 64 64 62 61 60 58 58 57 56 56 55 54 53 53 52 52 52 52 52 52 52
62 61 60 60 60 60 61 60 60 59 58 57 55 52 46 40 37 38 47 55 57 58 61 64 64 62 61 59 59 57 57 56 55 55 53 53 52 51 51 50 50 50 50
63 62 61 61 60 60 60 60 59 59 58 57 56 54 48 43 39 37 42 51 54 57 57 60 62 62 63 60 59 58 57 56 56 54 53 53 52 51 50 50 49 48 48
63 63 62 62 61 61 60 59 59 57 58 57 55 52 50 47 44 39 41 49 53 54 55 55 56 58 61 61 59 58 57 57 56 54 53 52 51 51 50 50 49 48 48
61 61 62 62 61 61 61 61 60 59 57 53 54 54 48 45 42 41 41 41 47 52 52 53 53 53 55 61 61 59 58 57 57 55 53 51 50 50 50 49 49 49 49
64 62 61 60 60 60 60 60 59 58 59 53 56 49 50 49 43 39 38 39 40 48 50 50 50 50 51 53 56 60 59 57 56 57 55 52 51 50 50 49 50 49 49
62 63 63 62 61 59 60 59 58 58 58 52 51 55 48 47 44 45 38 36 38 41 47 49 48 49 50 51 53 56 59 58 55 55 56 53 51 50 50 50 49 49 49
48 54 59 61 61 60 59 59 58 57 56 58 52 52 51 46 48 47 43 38 38 38 41 46 47 48 48 49 50 52 54 56 54 54 54 52 53 52 51 50 48 48 49
49 50 51 55 57 58 58 58 57 57 56 58 56 52 51 48 46 47 48 48 47 43 42 42 44 46 46 47 47 49 52 53 53 53 50 50 53 56 52 50 49 48 47
48 52 53 55 56 57 58 57 57 57 59 59 58 55 52 49 47 47 46 46 47 45 44 45 44 44 45 45 47 49 51 53 54 53 53 52 53 54 54 52 52 50 48
46 47 53 55 55 57 59 58 56 57 56 57 56 55 54 53 51 49 49 48 46 44 42 42 40 40 41 42 44 48 50 52 52 54 54 55 54 53 52 51 50 50 50
49 49 51 51 52 53 54 56 56 55 54 55 54 54 53 52 52 50 49 47 45 43 40 39 40 38 40 40 42 46 47 50 52 53 54 54 53 51 49 47 47 47 48
49 48 49 49 49 50 51 53 53 52 52 51 50 51 50 47 48 48 48 48 47 43 42 41 37 36 38 40 42 43 47 48 50 52 52 50 47 46 46 47 47 48 47
44 45 46 46 46 46 46 46 48 49 48 48 47 46 45 44 44 44 44 44 44 44 41 41 38 38 40 42 43 43 44 47 48 51 48 46 46 47 46 47 46 46 45
38 40 42 42 42 42 42 42 42 46 45 44 43 43 41 42 41 41 41 42 41 41 39 38 37 37 38 40 40 41 41 41 42 45 46 46 46 46 46 45 44 45 44
37 37 38 39 39 39 38 39 38 38 39 38 38 38 37 39 37 37 37 36 35 37 38 36 34 34 34 37 38 38 39 39 39 40 42 42 43 43 44 44 43 43 42
37 37 37 36 36 36 36 36 35 35 35 35 35 35 35 35 34 34 34 35 36 36 36 36 34 35 34 35 34 34 35 35 37 38 40 41 42 43 42 41 41 41 37
37 36 36 36 36 35 35 34 35 35 36 36 37 37 36 35 35 35 35 34 35 35 35 35 34 34 34 35 35 34 34 35 35 35 35 34 34 33 34 34 34 33 33
37 36 37 37 36 37 36 35 35 36 36 36 35 36 37 39 39 37 35 35 35 34 34 33 33 33 32 32 31 30 28 27 26 26 25 24 24 24 24 28 28 29 29
36 36 36 36 36 36 38 37 35 34 34 33 32 32 34 35 34 38 38 38 36 30 29 26 25 27 25 24 24 25 23 20 19 24 23 22 24 24 24 24 28 29 30
36 36 37 37 37 36 37 36 34 29 27 25 26 27 29 30 29 27 30 31 31 31 32 28 25 24 23 23 21 19 20 19 21 23 24 22 23 21 22 22 27 29 31
34 34 33 33 32 34 35 34 31 24 22 21 24 21 23 24 28 26 25 26 25 23 27 26 25 24 24 25 24 22 23 22 24 24 24 16 21 21 22 23 28 29 31
33 32 27 24 22 24 30 29 25 19 20 20 21 24 25 25 29 29 24 23 22 23 24 27 27 27 27 27 26 25 19 15 18 19 22 21 21 22 23 23 23 29 29
31 25 21 18 28 18 28 27 24 23 18 18 19 20 26 27 27 27 24 22 19 20 22 22 19 18 17 17 22 24 19 9 10 11 19 18 20 21 17 20 21 22 22

GFSMA_sfc_dewp_051.txt.gz
Dewpoint
62 62 63 63 64 65 65 64 63 61 60 58 57 54 51 46 42 43 51 61 63 66 66 64 63 62 60 58 57 57 56 55 54 55 55 54 54 55 55 55 55 55 56
61 61 60 61 62 63 64 63 63 62 61 60 59 58 54 48 42 42 45 51 62 64 65 65 63 62 61 60 59 57 56 56 55 55 54 54 53 53 54 54 54 53 54
62 61 60 60 60 62 62 63 63 63 62 61 60 59 56 52 46 43 43 48 54 61 63 65 64 63 62 61 59 58 58 56 55 54 54 54 53 53 53 53 53 53 53
63 62 61 61 61 61 61 62 62 62 61 61 60 60 58 56 54 49 44 44 49 53 59 63 65 64 62 61 60 59 58 56 57 55 55 54 53 52 52 52 51 51 50
64 63 63 62 62 61 61 61 61 61 60 60 60 59 59 58 57 53 49 47 46 51 54 59 62 64 64 62 60 59 58 59 57 56 55 54 53 52 52 51 50 50 49
64 64 64 63 63 62 62 61 61 61 60 60 59 58 58 57 55 54 52 48 47 49 51 54 56 58 61 62 61 60 59 58 58 57 55 54 54 53 52 51 50 50 49
62 63 64 64 63 62 62 62 62 62 62 60 58 59 57 57 55 53 51 48 47 46 48 50 53 55 57 60 61 60 59 59 59 59 57 55 53 53 52 51 51 50 50
65 64 63 63 62 62 62 62 62 61 61 58 59 53 54 53 51 49 46 44 44 43 45 47 49 51 54 55 57 60 60 59 58 59 59 56 54 53 52 52 51 51 50
57 64 65 64 64 62 62 62 62 61 60 58 58 58 52 50 49 52 46 42 41 41 42 46 47 49 50 52 53 55 58 60 58 58 59 59 55 54 52 51 51 51 50
48 48 54 60 62 63 63 62 62 61 61 59 55 55 55 51 52 50 50 45 45 44 43 44 45 46 48 49 52 53 54 56 58 58 59 59 60 57 53 52 53 51 49
49 53 53 52 55 58 60 61 61 61 60 60 58 55 54 51 51 52 49 51 51 50 48 46 44 44 46 47 49 51 52 54 57 58 59 58 56 55 56 56 55 53 52
49 49 53 56 58 59 59 59 59 60 60 60 59 57 55 54 52 50 48 48 49 51 49 48 47 47 47 47 47 48 49 51 54 57 58 58 55 53 53 56 56 55 55
48 50 53 55 56 57 59 60 60 59 59 59 58 57 56 54 53 51 51 50 48 49 48 47 44 43 41 43 44 45 47 49 51 54 57 59 55 53 52 55 55 54 52
50 51 52 52 53 54 56 57 57 57 58 57 55 55 55 54 53 52 51 49 47 46 46 46 42 41 42 43 43 44 45 48 49 51 54 56 56 54 54 54 50 49 49
48 49 49 50 50 51 53 54 54 53 52 52 53 53 50 49 50 51 50 50 48 45 44 45 43 41 41 43 44 44 45 45 47 48 50 52 50 51 49 48 48 48 48
43 45 46 46 46 47 48 50 50 50 49 49 49 47 46 46 46 46 47 47 47 47 44 43 40 39 40 42 42 43 43 46 48 48 49 48 47 47 47 47 47 47 46
39 40 42 43 42 43 44 46 46 47 46 45 44 44 43 43 43 43 43 43 43 43 42 40 38 38 39 40 40 41 41 41 42 46 46 45 45 45 45 45 45 44 44
38 38 39 39 39 39 40 41 40 40 40 40 40 40 39 39 39 39 40 39 39 40 40 38 37 37 37 38 38 38 38 39 39 41 43 43 42 42 42 42 42 44 43
38 37 37 37 37 37 37 37 37 37 37 37 37 37 37 38 38 38 38 37 38 38 39 39 37 36 37 36 36 37 37 37 38 39 40 40 40 41 42 42 42 42 42
37 37 37 36 36 36 36 37 37 37 37 37 38 38 37 37 37 37 37 37 37 37 37 36 35 35 36 35 36 35 34 35 34 32 32 34 35 34 34 35 35 33 33
37 37 37 37 37 37 36 36 36 36 36 36 36 37 38 39 38 38 37 36 36 35 35 35 34 33 32 31 31 30 29 27 27 27 25 25 25 26 26 27 28 29 29
37 36 36 37 37 37 38 38 36 35 34 34 33 33 34 34 34 37 37 37 35 34 33 32 30 27 26 25 25 25 25 25 24 25 24 22 24 22 22 22 26 28 29
37 37 37 37 37 36 37 36 34 30 29 29 29 30 29 30 29 28 30 29 31 31 31 29 26 26 24 25 27 27 26 25 23 24 24 21 22 19 21 21 27 29 30
35 34 33 33 34 34 35 33 30 27 27 27 26 26 27 28 29 25 25 26 25 27 28 26 26 26 27 27 27 27 26 26 23 24 24 22 21 20 22 23 27 29 30
33 32 29 29 30 31 29 29 26 25 25 24 25 26 26 27 29 29 24 24 20 23 24 27 26 25 26 26 25 27 27 25 20 17 21 21 20 21 22 22 22 28 28
32 29 28 27 30 28 28 26 25 21 21 18 19 21 27 27 26 26 24 21 19 19 23 22 17 15 16 18 24 23 25 24 22 21 19 24 21 22 23 20 21 22 23

GFSMA_sfc_dewp_054.txt.gz
Dewpoint
60 58 56 57 58 60 60 60 61 59 59 59 58 57 56 54 50 46 46 60 62 64 66 66 64 63 62 60 58 57 56 55 54 55 55 54 54 54 54 55 55 55 55
62 61 60 58 57 59 60 60 61 61 61 61 60 59 59 57 53 50 48 50 59 62 64 65 64 63 63 62 60 59 58 56 55 55 55 54 53 53 53 54 54 52 54
63 62 61 61 60 59 60 61 61 61 61 61 61 60 60 59 58 55 53 51 52 59 61 63 64 64 63 62 61 60 59 58 57 55 55 54 53 53 53 53 53 52 53
63 63 62 62 62 62 61 61 61 61 61 61 60 60 60 60 60 59 59 56 53 51 58 61 62 64 63 63 62 61 60 59 58 57 56 55 54 54 53 53 52 51 52
63 63 63 63 63 63 62 62 61 62 61 61 61 60 60 60 60 59 59 59 56 54 52 56 60 63 64 64 62 61 60 60 59 58 57 56 55 54 53 53 51 51 50
63 64 63 64 64 64 63 63 62 62 62 61 60 60 60 60 60 59 58 56 57 55 54 53 53 54 61 63 64 62 61 60 60 59 58 57 55 55 54 53 52 51 51
64 64 65 64 64 64 63 63 63 63 63 63 61 60 60 59 58 57 56 54 53 52 52 51 51 51 52 61 61 63 62 60 59 61 60 58 56 56 54 53 52 52 51
66 66 66 66 65 65 64 64 64 62 62 62 61 57 55 51 53 53 53 50 50 48 48 48 48 48 50 50 54 60 61 61 60 59 61 60 58 56 55 54 53 52 51
55 62 65 66 65 65 64 64 64 63 62 62 61 59 54 48 52 53 53 50 49 47 48 48 47 48 49 49 52 54 56 58 60 60 60 59 62 59 57 55 54 53 53
49 48 49 52 57 61 62 62 63 62 62 60 59 59 59 57 54 52 52 51 52 50 50 51 49 48 48 49 51 52 53 54 56 58 59 59 59 58 60 57 56 55 54
48 51 53 55 53 53 55 57 58 59 60 60 60 58 57 55 54 53 51 49 50 49 50 50 49 49 48 49 49 50 50 51 53 55 57 58 58 59 59 59 58 56 54
49 49 49 55 57 58 59 59 59 60 59 61 61 60 57 55 54 53 51 50 50 50 51 50 48 47 45 45 46 46 47 49 51 53 56 58 58 59 59 57 57 58 56
48 50 52 54 56 57 58 58 59 59 60 60 60 59 58 56 55 53 52 51 50 50 47 48 45 44 43 45 45 45 46 47 49 52 54 56 56 56 58 55 54 55 58
49 51 52 53 53 54 56 58 59 59 58 58 58 57 56 55 55 54 53 51 48 48 47 46 44 44 44 45 45 45 45 46 47 49 50 51 53 54 57 54 54 53 52
47 49 51 51 51 52 53 54 55 54 54 54 54 55 53 52 53 52 52 52 49 44 44 45 46 44 43 44 44 44 44 45 49 47 48 51 50 50 51 51 50 50 49
45 46 48 48 48 49 50 51 51 51 50 50 50 49 49 48 48 48 48 48 48 48 44 45 43 41 41 42 42 42 43 44 45 49 49 49 48 48 47 47 48 47 47
42 43 44 45 45 45 47 49 48 48 47 46 46 47 45 45 46 46 47 46 46 46 44 43 41 39 40 40 41 41 42 42 42 44 45 45 45 45 45 45 45 45 44
40 41 41 42 42 42 43 44 44 44 44 43 43 44 42 42 42 43 43 43 43 42 43 41 40 41 40 39 39 39 38 39 40 40 43 43 43 43 42 42 42 42 42
40 39 39 40 40 40 40 40 40 40 40 40 40 40 40 40 41 41 40 40 41 40 41 41 39 39 38 37 37 38 37 37 37 37 37 38 38 39 40 41 42 42 42
38 38 38 38 38 38 39 39 39 39 39 39 39 38 38 38 39 39 39 39 39 40 39 39 38 37 37 36 36 35 35 35 33 29 29 29 31 33 34 35 35 34 33
37 37 38 38 38 37 38 38 38 38 37 38 38 38 39 39 38 38 38 38 38 37 37 37 36 35 34 33 31 30 28 27 27 27 25 25 25 25 26 28 29 30 31
37 37 38 37 37 37 39 39 38 37 36 36 36 35 35 35 36 37 37 36 35 34 36 35 35 30 28 26 25 25 26 25 24 26 24 21 22 21 20 21 22 27 29
37 37 37 37 37 37 37 37 35 34 34 34 34 34 31 30 30 30 30 29 31 31 31 28 24 23 23 24 28 29 27 26 22 22 23 20 20 18 21 19 25 29 30
37 37 36 36 36 35 35 33 31 30 30 29 28 28 29 29 29 24 24 26 25 27 27 25 27 26 27 28 27 27 26 25 22 21 22 22 20 20 22 23 25 29 30
35 35 35 34 35 36 31 29 28 29 30 29 26 26 25 27 29 27 24 25 19 23 25 27 25 24 25 25 26 25 27 25 20 16 19 21 21 21 22 22 23 27 29
34 33 33 33 31 34 28 27 27 21 21 17 18 20 27 27 26 26 25 21 17 18 22 22 17 15 16 18 23 21 24 26 24 25 21 24 23 23 26 23 23 24 24

GFSMA_sfc_dewp_057.txt.gz
Dewpoint
59 56 54 55 55 56 57 58 60 58 58 59 58 58 57 56 55 53 51 60 61 61 63 65 65 65 63 62 59 58 57 56 54 55 55 54 55 55 55 55 56 55 55
61 60 58 56 54 56 58 59 59 60 60 60 59 59 59 59 58 56 54 55 59 59 60 62 63 63 63 64 62 60 59 58 57 55 56 54 53 53 54 54 54 53 54
61 61 61 60 60 58 58 59 60 60 61 60 60 60 60 60 60 59 58 57 57 59 60 59 61 63 63 63 63 62 61 60 59 57 55 55 54 54 54 53 53 52 53
62 62 62 62 62 61 61 61 61 60 60 60 60 60 61 60 59 59 60 60 60 56 60 61 61 61 62 63 62 63 62 61 60 59 57 57 56 54 54 53 53 52 51
62 62 62 63 63 63 62 62 62 61 61 62 62 61 61 60 59 59 59 59 60 60 58 60 61 61 62 63 63 62 62 62 61 60 59 58 57 56 55 54 53 52 51
63 63 63 62 62 63 63 63 62 64 63 62 60 60 61 61 60 60 58 57 56 57 57 57 57 56 59 60 61 62 62 62 61 61 60 59 58 56 55 54 53 52 51
63 64 65 63 64 63 62 62 63 62 63 63 63 61 61 59 58 57 56 55 55 54 53 53 54 54 54 61 61 59 61 62 61 61 62 61 59 58 57 55 54 53 52
65 66 66 66 66 66 64 64 63 63 64 64 61 59 56 53 55 55 55 53 52 53 52 51 51 51 53 53 56 57 58 61 62 61 61 60 61 61 58 57 55 54 53
59 63 65 66 66 66 65 65 64 63 62 62 62 60 55 50 53 54 55 54 52 52 53 52 50 51 51 51 53 53 53 54 56 59 59 59 59 60 61 59 58 55 54
49 49 50 52 54 59 62 62 62 62 63 60 61 60 60 58 54 52 55 53 53 50 52 52 50 50 50 51 52 51 51 52 54 55 56 58 58 59 61 60 58 57 55
48 49 52 54 55 54 54 54 56 58 60 58 57 59 59 57 55 54 51 51 52 51 50 51 50 49 48 49 47 47 48 50 53 54 56 57 57 58 59 60 59 58 56
48 49 49 51 55 56 57 59 59 59 59 58 58 58 58 55 54 53 52 52 51 51 51 51 48 47 47 47 47 47 47 49 51 53 54 55 56 58 59 59 59 58 57
47 48 52 52 53 55 57 57 57 57 58 59 59 58 59 57 55 54 53 52 51 50 48 48 46 46 45 46 46 46 48 48 49 51 52 53 53 53 54 57 58 57 57
48 49 50 51 52 53 55 57 59 59 58 59 59 57 57 56 55 55 53 52 49 49 47 47 45 44 44 44 45 47 44 46 49 49 49 48 51 53 55 56 56 56 55
47 48 50 51 51 52 53 54 55 54 54 54 54 54 53 52 53 54 53 52 50 46 45 46 45 44 44 44 43 43 43 46 48 50 51 51 51 50 52 55 54 52 52
45 46 48 49 49 49 50 52 52 51 51 51 51 51 50 50 50 50 50 49 50 49 46 46 45 43 42 42 42 42 42 44 44 47 47 47 48 48 49 49 49 49 49
42 43 44 46 46 46 47 49 49 48 48 48 48 47 46 47 48 48 48 47 47 47 45 45 43 42 42 41 41 41 41 41 43 43 45 45 45 44 44 45 45 45 45
41 41 42 43 43 43 44 46 46 46 46 45 45 45 44 43 44 44 45 44 44 43 44 43 41 41 40 39 39 38 38 38 39 40 41 42 42 42 43 43 42 42 43
40 40 40 41 41 41 41 42 42 42 42 42 42 41 41 42 42 42 42 42 42 41 42 42 40 41 40 38 37 38 37 37 38 35 34 35 37 38 38 39 40 40 41
39 39 39 39 39 39 39 40 40 40 40 39 39 39 39 39 40 40 40 41 40 41 40 40 39 39 39 37 36 36 34 36 33 28 29 29 30 31 32 34 35 34 34
38 38 38 38 38 38 38 39 39 39 39 39 39 39 40 39 39 39 39 39 38 37 38 38 38 37 36 34 32 31 29 28 29 29 27 27 26 27 27 27 30 30 30
37 38 38 38 38 37 39 39 38 38 38 37 36 37 37 36 37 38 37 36 35 35 34 34 34 32 30 27 25 27 27 28 27 28 25 23 24 23 22 23 27 28 29
38 38 38 37 37 36 38 37 37 37 37 37 37 36 33 30 32 31 31 31 32 31 29 29 27 25 24 26 29 30 28 27 25 25 24 22 22 21 24 21 24 27 30
38 38 38 37 36 36 35 34 32 33 32 31 31 31 31 29 28 25 26 27 26 27 29 25 28 28 28 29 28 27 27 26 26 24 23 24 23 22 25 26 28 27 31
37 36 37 37 37 36 33 30 30 32 32 30 27 26 26 27 31 28 27 27 21 23 26 27 25 24 24 24 25 26 28 27 24 17 21 22 24 23 24 24 26 26 30
35 34 34 35 33 35 29 27 28 26 24 19 20 23 27 28 27 27 28 23 19 19 22 24 22 21 20 19 23 22 26 25 26 26 23 25 25 24 25 26 24 25 27

GFSMA_sfc_dewp_060.txt.gz
Dewpoint
58 57 56 56 57 58 58 59 59 59 58 58 58 58 57 57 56 54 51 59 60 60 59 62 66 65 64 63 61 59 59 58 56 54 56 54 55 55 55 56 56 56 55
60 60 57 55 55 56 58 58 59 60 60 60 60 59 59 59 58 57 55 55 60 59 59 58 61 62 63 64 64 62 60 59 58 57 57 55 54 53 54 54 54 54 54
61 60 61 60 58 56 57 59 60 60 60 60 60 60 60 60 60 59 58 56 57 59 61 59 59 61 62 63 63 64 63 61 60 58 57 57 56 54 54 53 53 52 53
61 62 62 62 62 61 60 60 61 61 61 60 59 60 60 60 60 59 59 60 60 56 59 61 62 61 60 62 63 63 63 63 61 60 58 57 57 56 55 54 53 53 52
61 62 63 63 63 63 62 62 61 60 60 61 62 61 61 60 60 59 59 59 59 59 57 60 61 61 62 60 61 62 63 63 63 62 61 58 58 57 56 55 54 53 52
63 62 63 63 61 62 63 62 62 63 62 62 60 61 61 61 61 60 59 58 56 54 55 55 57 57 59 60 59 59 60 62 62 62 62 61 59 59 57 56 55 54 54
63 64 64 62 63 63 63 63 62 61 61 62 62 61 60 61 60 58 58 56 53 52 50 50 51 51 52 60 60 59 60 61 61 61 61 61 61 61 59 58 56 54 53
65 66 66 66 66 65 65 64 64 63 63 63 60 58 56 54 54 57 53 53 50 50 50 49 49 49 50 52 55 55 56 57 58 59 59 60 60 61 61 60 58 56 54
56 58 62 65 65 65 64 64 64 63 62 62 61 58 54 51 52 53 53 52 50 50 51 49 49 49 50 50 50 50 52 54 56 56 56 57 58 58 60 61 60 57 56
50 50 50 50 50 55 60 61 62 61 60 59 59 61 60 59 54 50 53 52 50 49 49 50 50 49 49 48 47 49 50 52 54 56 57 57 57 57 58 60 61 59 57
49 49 51 51 54 54 52 52 53 58 58 58 56 57 58 57 56 54 52 51 51 50 49 49 47 46 46 46 46 47 49 50 53 54 55 56 56 57 59 59 59 60 58
48 49 49 51 52 55 56 57 56 56 56 56 57 56 55 54 52 51 52 50 51 50 49 47 46 45 46 46 45 47 48 49 50 52 53 54 54 54 56 57 58 58 61
47 48 51 51 52 53 55 56 56 56 56 56 56 55 57 56 54 53 51 52 50 51 48 45 45 45 44 45 44 47 46 48 50 51 51 51 51 52 53 54 55 57 58
48 49 50 51 52 52 53 55 56 57 57 56 56 55 56 56 55 55 53 52 49 49 47 44 44 44 43 44 44 44 43 47 49 52 53 53 52 53 55 55 55 56 57
46 46 48 50 51 51 51 52 54 54 54 54 54 54 53 53 54 53 53 52 50 45 43 42 41 42 42 43 43 42 43 46 47 48 48 49 50 51 52 55 55 54 54
44 45 46 48 48 48 49 51 52 52 51 51 51 51 50 50 50 50 49 49 48 47 41 42 40 39 40 42 42 41 42 43 44 46 46 46 46 47 49 50 50 51 51
42 43 44 45 45 45 46 49 49 49 49 48 48 48 47 47 47 46 45 44 44 42 40 41 39 39 39 38 39 39 39 39 41 42 44 44 45 45 45 45 45 46 47
41 41 41 42 43 43 43 44 46 46 46 45 45 45 43 44 43 42 42 43 43 41 39 38 38 37 39 37 36 37 38 38 38 39 39 40 40 41 42 43 43 43 43
40 40 40 40 40 41 40 40 42 42 42 41 41 42 41 42 41 41 41 40 36 40 40 39 37 39 38 37 36 34 35 35 38 36 32 32 33 35 39 40 39 40 42
39 38 38 39 39 39 39 40 40 39 39 39 39 39 39 40 40 37 37 37 39 39 39 39 37 37 37 37 32 31 29 32 29 26 28 29 28 30 31 32 35 34 35
38 38 38 39 39 39 39 39 40 40 39 39 39 39 38 39 40 39 38 38 37 37 36 36 36 35 35 32 27 27 25 26 26 27 25 24 24 25 24 27 29 30 29
37 38 38 38 38 37 39 40 39 39 39 38 37 37 37 38 38 38 37 36 35 34 34 34 34 30 25 24 26 26 25 22 22 25 22 22 22 20 21 21 25 26 29
37 38 38 38 37 38 39 39 39 37 37 36 36 35 32 31 32 32 33 33 31 29 28 26 24 23 24 25 25 25 24 22 23 24 21 20 22 21 24 23 25 27 29
38 38 38 37 37 36 36 36 35 31 29 29 30 30 31 28 26 25 26 26 26 28 29 27 27 26 26 27 26 26 25 24 25 24 21 19 22 22 23 24 28 28 31
37 35 37 36 35 35 34 32 31 26 27 26 26 27 26 29 30 28 26 25 21 24 27 26 25 23 22 22 22 24 22 21 21 18 22 21 23 23 23 25 26 26 29
35 35 34 34 34 30 31 28 28 27 25 23 22 26 27 29 29 28 27 22 18 19 21 23 21 22 19 18 21 22 22 15 18 19 23 21 24 24 20 26 26 26 26

GFSMA_sfc_dewp_063.txt.gz
Dewpoint
58 58 59 61 60 62 62 62 61 60 58 57 57 57 57 56 56 55 51 59 60 61 59 59 65 65 64 64 62 60 59 58 57 56 56 55 55 55 55 56 56 55 56
57 58 56 55 55 57 58 57 58 60 60 60 60 59 59 59 58 57 56 54 61 61 62 59 59 61 63 64 64 64 61 60 59 57 57 56 54 53 54 54 54 55 54
60 59 59 57 56 55 56 58 59 60 60 60 60 60 60 59 60 59 59 56 57 60 61 61 61 60 61 62 63 63 63 62 61 59 58 57 56 54 54 54 54 54 52
61 61 61 61 60 59 58 59 60 60 60 60 60 60 61 60 60 60 59 60 60 57 59 62 63 61 60 60 61 63 63 63 63 62 60 58 58 56 55 55 54 54 54
61 62 62 62 62 62 62 61 61 61 60 60 61 61 61 61 60 60 59 59 59 58 58 60 61 61 61 59 60 60 61 62 62 63 62 61 59 58 57 56 55 54 54
61 62 62 62 63 62 62 62 62 62 62 61 61 60 61 61 61 61 60 59 55 54 54 54 55 55 59 60 59 59 60 60 61 61 62 62 62 60 59 57 56 55 54
63 63 63 63 63 63 62 62 62 62 61 62 61 60 59 60 60 60 59 56 51 50 50 50 50 51 53 58 58 59 59 59 59 59 61 61 61 61 61 60 58 57 55
66 65 65 65 65 65 64 64 64 63 62 63 59 58 56 54 54 54 54 51 50 50 49 49 49 49 52 52 52 54 55 57 57 57 57 57 59 59 60 62 61 58 57
55 57 61 64 65 65 64 64 64 63 61 60 60 59 55 50 53 53 53 51 49 50 50 49 49 50 49 48 49 50 52 54 56 57 57 57 57 57 58 59 60 60 58
51 51 51 51 50 51 54 59 61 59 58 57 57 59 58 57 54 50 52 52 50 49 51 49 48 47 46 45 47 50 50 51 54 55 56 56 56 56 57 59 59 61 59
49 50 51 50 52 54 53 52 52 54 57 56 55 54 55 55 55 54 51 51 51 50 50 48 46 46 45 45 45 48 49 50 52 53 54 55 55 54 57 57 57 58 60
48 49 50 51 52 53 55 56 56 55 55 55 55 56 54 52 52 51 50 50 50 50 48 46 45 46 46 44 46 48 48 50 52 52 52 52 52 53 54 55 56 56 57
47 50 51 51 51 52 54 54 55 55 54 54 54 54 54 54 55 54 53 51 50 51 47 45 44 44 44 43 45 45 47 47 50 55 54 54 51 53 55 54 54 55 57
48 49 50 50 51 52 52 54 54 54 54 55 55 56 56 55 54 54 53 51 50 50 47 44 43 42 43 42 44 44 43 47 48 50 51 51 52 53 55 56 53 55 56
46 46 48 49 50 50 51 51 53 53 53 53 54 54 53 53 54 54 53 52 50 45 47 41 42 40 41 41 42 41 42 44 46 47 47 48 48 49 51 53 54 55 55
44 45 45 47 47 48 48 50 51 52 52 51 51 51 50 50 50 50 49 49 49 48 44 41 39 38 39 41 40 40 41 42 43 44 46 46 46 47 47 48 50 50 51
43 43 44 44 44 44 45 45 50 49 49 49 48 49 47 48 48 46 45 45 44 43 44 42 41 39 39 37 38 39 39 38 39 40 42 43 43 43 45 45 45 46 48
41 41 41 42 42 42 43 43 47 47 46 46 46 46 44 44 43 43 42 43 43 42 39 40 40 34 36 37 34 35 37 38 37 36 37 39 40 40 41 42 43 43 44
40 40 40 40 40 40 40 40 43 43 42 42 43 43 42 42 41 41 41 41 40 38 35 37 37 37 38 36 32 33 34 34 37 33 32 32 33 33 36 40 40 40 40
39 39 38 39 39 39 39 40 40 39 39 39 39 39 39 41 40 39 37 36 37 36 38 37 36 37 37 36 32 30 27 28 28 25 28 30 30 30 30 31 34 34 34
38 38 38 39 39 39 39 40 40 40 39 39 39 38 39 41 41 40 38 37 38 37 36 36 36 36 35 33 27 26 25 25 26 24 23 22 23 23 24 29 30 30 29
37 37 37 38 38 37 40 41 40 39 39 38 38 38 39 39 39 39 38 37 36 35 34 34 34 32 25 24 26 25 25 22 21 25 21 20 21 20 22 21 25 27 28
35 36 37 38 37 39 40 41 40 38 38 37 36 35 33 33 34 33 34 34 31 30 31 28 24 23 24 25 25 25 24 22 23 24 21 17 22 21 23 23 28 27 30
35 36 38 38 37 37 38 38 38 35 34 34 34 32 29 26 26 28 27 27 27 28 28 27 26 26 27 27 26 26 24 24 24 23 21 18 22 23 23 24 28 28 31
38 36 38 36 36 36 35 35 31 27 27 26 27 26 29 26 28 28 26 24 21 25 27 28 27 25 23 24 25 23 23 19 20 20 23 21 23 24 24 26 25 28 28
36 36 34 35 36 34 35 32 29 27 26 25 25 26 30 30 33 30 26 24 18 19 21 23 20 23 20 18 22 22 22 13 17 17 23 21 23 23 19 24 26 26 25

GFSMA_sfc_dewp_066.txt.gz
Dewpoint
62 61 62 61 61 61 62 61 61 61 60 59 58 57 56 56 56 55 53 59 61 62 60 60 63 66 65 64 63 61 60 59 57 56 56 55 55 55 55 55 56 55 56
58 58 57 60 60 60 62 60 61 60 59 59 59 59 59 59 58 58 57 55 61 62 63 61 60 61 62 63 64 64 63 62 60 59 58 57 55 54 54 54 54 55 54
57 57 58 55 56 56 57 58 58 59 60 60 60 60 60 60 60 59 59 58 57 61 62 62 62 60 61 61 62 63 63 63 63 61 59 59 57 55 55 54 54 54 53
59 59 59 60 58 56 56 57 59 59 60 60 60 60 61 61 60 60 59 59 60 59 60 62 64 62 60 60 60 60 62 63 62 63 62 60 59 58 56 55 55 55 54
61 61 61 61 61 61 60 59 60 61 60 60 61 61 61 61 61 61 61 60 59 58 58 60 61 60 60 59 59 59 60 61 61 61 62 62 60 60 58 57 56 55 55
61 62 62 62 63 63 62 62 61 62 62 62 61 61 60 61 61 60 60 60 56 55 55 54 53 57 61 61 61 61 61 60 59 60 61 62 62 61 60 59 58 57 55
61 61 62 62 62 62 62 62 62 62 62 61 61 58 59 59 59 59 58 58 52 50 50 50 51 53 55 57 57 57 57 58 58 58 58 59 60 60 61 61 60 58 57
64 63 63 64 64 64 63 63 63 63 62 62 58 56 54 54 53 53 53 50 50 50 49 49 50 52 50 50 52 54 55 57 57 57 57 57 57 58 59 60 61 61 58
64 65 65 65 65 65 64 64 63 62 60 59 58 57 52 50 52 53 51 50 49 50 49 49 50 48 47 48 49 50 52 53 55 56 56 56 55 56 57 58 58 60 60
54 53 52 51 51 52 53 56 60 58 57 55 56 58 57 55 52 49 52 52 50 50 49 49 48 46 45 46 49 50 50 51 53 54 55 55 55 55 56 58 58 58 60
57 56 55 53 52 54 54 53 52 52 55 55 54 53 54 53 53 52 49 50 51 50 48 47 46 45 45 45 47 48 50 51 54 54 53 53 54 55 56 57 56 58 58
53 53 53 51 51 52 53 54 55 55 55 55 54 55 53 52 50 50 49 49 49 48 46 46 46 45 44 45 46 48 48 48 52 56 53 54 53 53 55 56 55 55 56
50 51 51 50 51 52 53 53 53 53 53 53 52 52 53 53 53 52 51 50 51 48 45 45 44 44 43 44 44 45 47 47 50 52 54 54 53 54 57 54 53 54 54
49 50 50 50 51 52 52 52 52 53 53 53 52 53 54 55 53 54 53 53 50 50 46 43 43 43 42 43 44 44 43 46 48 48 49 50 50 52 54 57 57 57 57
48 47 48 49 50 50 50 50 51 51 51 50 51 52 54 54 54 55 54 53 52 48 47 43 42 41 41 41 42 41 41 44 45 47 47 47 47 48 50 52 53 53 55
46 46 46 47 48 48 48 48 49 51 52 51 51 51 51 51 51 50 50 50 49 49 45 42 40 40 40 40 41 39 40 41 42 43 44 44 44 45 47 47 49 50 51
44 44 44 45 45 45 45 45 46 50 49 50 49 50 48 48 48 46 46 46 45 46 45 41 41 40 39 37 37 37 38 37 38 40 40 41 42 43 44 45 46 46 47
42 42 42 42 42 43 42 42 43 47 47 47 47 47 45 45 44 44 44 43 43 42 43 40 40 38 38 37 34 34 36 37 36 38 36 34 37 39 42 42 43 44 44
41 40 40 40 41 41 40 40 42 44 44 44 44 45 43 43 42 42 42 41 40 40 39 40 37 38 37 37 33 31 34 31 34 30 31 33 32 33 35 39 40 40 40
39 39 39 39 40 39 39 39 40 39 39 40 40 40 41 41 41 40 39 39 39 36 37 35 35 35 37 36 33 29 27 27 27 24 26 28 30 31 31 31 34 33 34
38 38 38 39 39 38 39 38 40 40 39 39 39 39 40 41 41 40 38 36 37 37 37 36 36 36 36 34 28 26 24 25 25 24 23 21 23 21 24 30 31 29 28
36 36 37 37 37 37 39 41 40 40 39 39 38 39 40 41 41 40 38 37 36 36 35 35 35 33 27 24 26 25 25 23 21 25 22 19 22 21 23 21 27 27 29
35 35 35 36 36 37 40 41 41 39 38 37 37 36 34 36 35 34 35 34 32 33 34 31 29 26 23 25 25 25 24 23 23 24 22 16 22 22 23 23 30 28 32
34 34 35 36 36 38 39 40 39 37 36 35 35 34 31 28 29 29 28 27 27 27 28 26 25 25 26 27 27 26 24 24 24 23 21 18 22 23 24 24 30 28 30
37 36 38 37 36 37 38 37 34 33 32 31 30 31 28 25 28 29 26 25 24 26 29 30 29 29 30 30 27 25 25 22 21 20 23 21 22 23 24 25 25 31 30
37 37 34 36 36 35 37 36 30 26 26 25 25 27 32 28 31 30 25 23 19 20 24 23 22 21 20 19 25 21 24 19 21 19 23 20 22 23 18 23 25 25 25

GFSMA_sfc_dewp_069.txt.gz
Dewpoint
62 62 62 61 60 60 61 60 60 60 60 60 59 57 57 56 56 55 55 58 61 63 61 60 62 64 65 64 64 63 62 61 59 57 57 55 55 55 55 56 55 55 56
62 62 61 61 60 60 61 61 61 61 60 59 58 59 58 59 59 58 58 57 59 61 64 61 61 62 61 61 62 63 63 63 62 60 59 58 56 54 54 54 54 54 54
59 59 57 57 60 59 59 60 58 58 59 60 60 60 60 60 60 60 60 60 60 60 62 62 63 61 61 60 61 61 62 62 63 63 62 60 59 57 55 55 54 54 54
57 57 57 57 56 55 56 57 58 59 59 59 60 60 60 61 61 60 60 60 59 59 60 62 63 62 60 60 59 60 60 61 62 62 63 62 61 59 57 57 55 55 54
58 59 59 60 60 58 57 57 58 59 60 59 60 60 60 60 60 60 60 60 60 59 58 60 61 60 60 58 59 60 61 61 60 61 62 62 62 61 60 58 57 56 56
61 60 61 61 61 61 61 61 60 62 61 61 61 61 60 60 60 59 59 60 58 57 56 54 57 60 61 61 60 59 59 59 59 58 58 59 61 61 62 61 59 58 56
61 61 62 62 62 62 62 62 62 62 61 61 60 58 58 58 58 56 55 57 54 52 50 51 56 55 56 57 57 57 57 58 58 57 57 57 58 58 60 61 61 60 58
62 62 62 62 63 63 62 62 62 62 62 62 59 56 54 54 53 53 52 51 50 50 49 50 51 51 50 51 53 54 54 55 56 56 55 56 55 56 57 58 59 61 60
64 64 64 64 64 64 63 63 63 62 60 58 58 57 53 49 51 52 51 50 49 49 49 50 49 47 47 49 50 51 52 52 54 55 55 55 54 54 55 57 59 58 60
59 59 58 59 58 56 56 56 60 60 59 56 55 57 56 55 53 49 51 52 50 49 49 49 46 45 45 48 50 51 51 52 54 54 54 54 54 53 56 57 58 57 58
58 59 58 57 55 55 54 53 51 51 55 54 54 53 52 53 53 54 49 50 50 49 48 47 46 45 45 46 47 49 50 51 54 54 53 54 54 54 54 55 56 56 57
57 56 54 52 51 52 52 53 53 53 53 53 53 53 55 52 49 49 49 49 47 47 46 46 46 44 45 46 47 48 48 50 52 53 55 55 54 54 55 55 55 55 55
53 52 52 51 51 51 52 53 53 52 52 52 51 51 51 52 52 52 51 50 48 45 46 45 45 44 44 44 44 45 47 48 49 50 52 52 52 54 56 55 53 52 53
51 52 51 50 51 51 52 51 52 52 53 52 51 51 52 52 52 52 52 51 49 49 45 44 43 43 43 44 43 44 43 47 47 47 48 49 49 51 53 55 55 56 56
52 50 49 49 50 50 50 50 50 50 50 50 49 50 50 51 53 54 54 54 52 47 46 43 42 42 42 42 42 40 40 44 45 46 46 46 46 47 49 51 52 53 54
47 47 47 47 48 48 48 48 48 50 50 50 49 49 49 51 51 50 51 51 51 50 47 43 41 41 41 40 41 38 39 41 43 42 43 43 44 44 46 48 49 50 51
45 44 44 45 45 45 44 44 44 46 47 48 48 49 50 49 49 47 47 47 46 46 45 41 41 40 39 38 38 38 37 37 38 40 40 39 40 43 44 45 46 47 48
43 42 43 42 42 42 42 41 42 43 45 46 47 47 47 46 45 45 44 44 43 43 43 40 40 38 39 38 36 35 36 37 36 36 35 35 36 38 41 42 42 44 44
41 41 41 41 41 41 40 40 40 42 43 44 45 46 45 44 43 43 43 42 41 40 40 40 37 39 38 37 35 32 33 29 29 29 32 34 34 33 34 38 39 39 40
40 40 39 40 40 39 39 38 39 38 38 39 40 42 43 43 42 41 40 40 40 39 38 38 37 37 37 36 34 30 27 27 26 23 26 27 29 29 32 33 33 33 33
38 38 37 38 38 38 38 37 38 38 38 39 39 40 41 41 41 40 39 39 38 38 37 35 36 37 36 34 31 27 25 25 24 25 22 21 22 22 24 28 29 29 30
36 36 36 37 36 38 39 40 40 38 40 39 38 40 41 42 41 41 39 39 38 37 36 36 35 34 30 27 25 25 25 24 22 25 22 18 22 22 23 25 29 29 31
35 35 35 36 35 36 40 41 42 40 39 38 37 37 36 38 37 36 37 34 35 36 35 34 32 30 26 26 26 25 24 24 22 24 22 16 22 22 23 23 30 29 32
34 34 34 35 35 36 40 40 40 38 37 36 36 35 33 31 32 32 28 27 27 26 26 25 26 25 26 26 26 26 24 23 24 23 21 19 22 22 24 25 31 29 31
34 33 36 38 37 34 39 39 36 34 34 34 34 32 30 27 29 32 27 26 26 27 29 31 30 31 32 31 28 26 25 22 21 20 23 21 22 22 24 25 26 32 31
35 36 35 37 37 34 38 38 34 31 31 29 27 27 33 27 30 30 25 23 21 23 24 23 24 22 20 20 27 22 25 19 22 21 23 22 23 22 18 23 25 25 24

GFSMA_sfc_dewp_072.txt.gz
Dewpoint
61 62 61 61 60 59 59 59 59 59 59 59 59 58 57 57 56 57 56 58 59 61 61 61 61 63 64 64 64 64 63 63 61 59 59 56 55 54 55 55 55 56 56
62 62 61 60 59 59 60 60 60 60 60 59 59 59 58 59 59 59 59 58 61 61 62 61 61 62 62 62 62 62 62 62 63 63 61 59 57 55 54 54 54 55 54
62 62 61 60 60 59 59 59 59 58 58 59 59 60 60 60 60 60 60 60 60 61 61 63 62 62 61 61 61 60 61 62 63 63 63 61 60 58 56 56 54 55 54
60 60 59 57 57 59 58 57 58 58 59 59 59 60 59 60 61 60 60 60 60 60 61 61 63 62 60 59 59 59 61 62 62 63 63 62 62 61 59 58 56 55 54
58 58 57 57 57 56 55 55 57 58 59 59 59 60 60 59 60 60 59 59 60 60 59 60 61 60 60 58 59 61 60 59 59 59 60 61 62 62 61 59 58 57 56
58 58 59 59 60 59 58 58 57 60 61 61 61 60 60 60 60 59 58 58 59 57 57 56 58 60 62 61 60 59 58 58 58 57 58 58 59 59 61 62 60 59 57
62 60 60 60 61 61 61 62 61 61 62 62 60 57 57 58 57 53 54 55 55 54 53 55 56 56 57 58 57 57 57 57 57 56 56 56 56 57 58 59 60 61 60
62 62 61 61 62 62 62 62 62 61 61 62 59 54 52 53 53 53 51 51 51 50 50 51 51 50 51 52 53 54 54 54 55 55 55 54 56 55 54 56 58 59 61
63 63 62 63 63 64 63 63 63 62 61 59 57 58 53 49 50 52 51 49 49 49 49 50 48 48 48 49 50 51 52 53 54 54 54 54 54 53 54 54 57 58 59
62 63 62 62 61 60 60 60 61 60 60 59 56 56 55 53 50 47 50 50 50 49 49 48 46 46 48 48 50 51 51 53 54 54 53 53 53 54 55 56 57 58 58
60 60 60 59 59 57 55 54 51 52 55 53 52 52 51 52 55 53 49 48 49 49 48 47 46 45 46 46 47 49 49 51 53 55 55 55 55 55 54 56 56 56 56
58 59 58 58 55 54 54 54 54 54 52 52 52 52 54 51 49 50 50 49 47 47 46 46 45 44 46 46 47 49 49 50 51 51 52 52 53 55 58 54 52 54 55
55 56 56 54 52 52 53 53 53 53 52 51 51 51 51 52 52 51 50 49 50 46 46 45 44 44 44 44 45 46 47 48 48 49 50 51 51 53 55 57 57 57 54
56 55 54 54 52 51 52 52 52 51 51 51 52 53 53 52 51 50 51 49 48 48 46 45 43 43 43 43 45 44 43 46 47 46 47 48 48 50 52 54 54 55 57
55 54 53 51 50 50 50 50 50 50 50 50 50 49 50 50 51 52 52 53 51 48 46 44 42 43 43 43 43 41 41 44 44 44 45 45 45 46 49 50 51 52 53
51 50 48 48 49 48 48 48 48 48 49 49 49 49 49 49 50 49 50 51 51 51 48 43 42 42 42 42 43 39 40 41 43 41 42 43 43 44 46 48 49 50 51
46 46 46 46 46 45 45 44 44 45 45 47 47 47 48 48 48 48 47 47 47 47 46 41 41 41 40 40 39 38 38 37 38 40 40 38 40 42 43 44 46 47 48
44 44 44 43 43 43 42 42 42 42 42 43 45 45 46 46 47 46 45 45 44 43 44 40 39 39 39 38 37 36 37 36 35 35 35 35 36 38 41 41 42 44 45
42 42 41 41 41 41 40 40 40 40 40 41 42 43 46 45 44 44 43 43 42 41 41 41 38 39 38 37 35 35 33 31 28 30 33 35 35 34 35 37 38 40 40
40 40 40 40 40 39 39 38 38 37 37 38 39 40 43 44 44 42 42 41 40 40 40 39 38 37 37 36 35 32 29 27 26 24 26 28 29 30 34 33 32 31 33
39 38 38 38 38 38 38 37 37 37 37 37 37 39 41 42 43 42 40 40 40 39 38 37 36 37 36 34 33 29 27 25 24 25 22 22 22 22 25 27 29 31 31
37 36 36 36 36 38 40 40 40 37 37 37 38 39 41 42 42 42 41 40 39 38 37 37 36 35 33 31 27 26 25 24 21 25 22 19 23 22 23 25 29 30 31
35 35 35 35 35 35 39 41 41 40 37 38 38 38 38 39 39 38 38 36 38 37 36 35 34 32 29 28 26 25 25 24 22 24 22 15 22 21 24 24 31 31 33
34 34 34 35 35 36 40 40 42 38 35 37 37 37 36 34 34 33 30 28 26 26 26 25 29 28 26 27 26 26 24 24 24 23 21 19 22 22 24 26 31 32 31
33 32 34 34 34 36 39 39 37 35 35 35 35 34 32 30 33 34 28 26 26 27 30 32 31 31 31 31 29 26 25 23 21 20 23 21 22 22 24 25 27 32 31
34 35 34 34 37 36 39 40 37 34 33 33 31 30 35 30 31 33 25 23 23 24 25 23 22 22 22 28 30 24 26 21 23 22 23 23 23 22 21 23 25 24 25

GFSMA_sfc_dewp_075.txt.gz
Dewpoint
63 62 62 62 61 61 59 59 60 60 60 60 60 59 59 58 58 59 59 59 61 61 62 61 61 62 63 63 63 63 63 63 63 61 59 57 56 55 55 55 55 56 56
62 63 63 62 62 60 60 60 61 62 61 61 60 59 60 60 60 61 61 61 62 62 63 64 63 62 62 61 61 61 62 62 63 64 63 61 59 57 55 55 55 55 54
63 63 63 63 62 60 59 61 61 60 60 60 60 60 61 60 61 61 61 61 62 61 62 63 64 63 62 60 61 60 61 62 63 63 63 63 62 60 58 57 55 55 54
63 62 63 62 61 61 60 59 59 59 59 59 60 60 60 60 60 60 60 61 61 61 62 60 62 64 62 60 59 60 62 60 60 61 62 62 62 62 60 58 57 56 55
61 61 61 61 59 58 59 59 58 58 59 60 60 60 60 60 60 60 60 60 60 60 61 61 61 62 62 60 61 61 59 59 59 59 59 59 61 61 62 61 59 58 57
60 60 59 59 58 57 57 56 56 58 59 60 61 61 60 60 60 59 59 58 59 60 59 59 59 59 62 62 60 59 58 58 57 57 56 57 58 58 59 61 62 60 58
62 60 59 59 60 60 59 58 58 59 61 63 62 59 59 58 57 55 54 56 57 57 57 58 59 58 58 58 58 57 56 56 56 56 55 54 55 55 56 58 58 62 60
64 61 60 60 61 61 62 62 63 63 63 63 60 59 54 54 54 54 52 53 53 53 54 55 54 53 53 53 54 54 53 53 54 54 54 55 54 54 54 55 56 58 60
65 64 62 63 62 63 64 64 64 63 61 61 60 59 55 51 53 54 53 51 51 51 51 52 51 50 50 50 50 51 53 53 54 54 54 53 54 53 55 56 56 58 59
62 63 64 64 64 64 63 63 62 62 62 60 59 59 59 58 54 49 52 52 51 49 50 50 49 48 49 49 51 52 52 53 54 54 55 55 55 55 55 55 55 57 58
61 61 61 61 61 61 60 59 54 54 58 57 57 55 56 56 55 54 49 52 51 50 50 49 47 47 47 47 49 50 50 52 52 53 55 54 54 54 57 57 57 56 56
60 60 60 60 60 59 57 57 55 54 54 54 54 55 54 52 52 52 51 50 51 51 49 48 46 45 47 47 48 49 50 50 50 51 52 53 52 54 57 58 53 54 54
57 57 57 57 57 56 55 54 54 55 54 54 54 54 55 54 53 52 52 51 50 50 48 47 46 45 45 45 46 46 49 49 49 49 49 51 50 52 55 56 56 57 57
58 57 56 56 55 54 54 54 53 54 54 54 53 53 53 53 53 53 52 50 49 50 48 48 46 45 45 44 46 45 46 47 47 47 48 47 47 49 52 53 54 54 56
57 57 57 56 53 53 53 52 52 51 52 53 53 52 52 52 53 54 53 54 52 46 48 48 45 44 45 45 44 42 42 45 45 45 45 44 45 46 49 50 51 52 54
55 54 52 51 51 50 50 50 49 49 50 51 51 51 51 51 52 53 53 52 52 52 48 46 45 44 44 43 44 41 42 43 43 41 42 42 43 44 46 47 49 50 51
50 49 49 48 47 47 46 46 46 46 46 48 49 50 50 50 50 50 50 50 49 48 48 43 42 42 42 42 41 39 40 39 41 40 40 39 41 42 43 44 46 47 48
47 46 46 45 44 44 44 43 43 43 43 44 45 47 48 48 48 49 48 47 47 46 46 42 40 40 40 40 39 37 37 36 35 37 36 36 37 40 41 41 42 44 45
43 43 43 42 42 42 42 41 41 41 42 42 43 44 46 47 47 46 46 45 44 43 43 42 39 40 39 38 36 36 34 33 27 32 34 35 35 35 37 37 39 39 41
42 41 41 41 41 41 40 40 40 40 40 40 41 41 42 44 45 45 44 44 42 42 41 41 39 38 38 37 36 34 30 30 29 24 26 29 30 32 34 34 31 32 33
41 40 40 40 40 40 39 40 40 39 39 39 40 40 42 42 43 44 42 42 41 41 40 39 38 38 36 35 34 32 32 28 26 26 24 23 22 23 28 29 30 31 31
39 39 39 39 39 38 41 42 40 39 39 39 39 40 41 42 42 43 42 41 41 40 39 38 38 37 36 34 30 30 29 28 27 27 24 20 23 23 25 28 30 31 31
38 38 38 38 38 38 41 41 42 40 40 40 40 40 39 40 41 40 40 39 39 38 38 37 36 35 33 31 31 30 28 27 22 25 23 18 22 22 25 23 32 32 33
38 38 37 38 38 37 40 41 42 41 40 39 39 39 38 36 36 34 31 30 27 27 27 29 33 32 31 31 31 31 28 25 24 23 22 21 22 22 24 29 32 33 32
37 37 37 37 37 38 40 40 40 38 38 38 37 37 35 33 36 36 30 29 26 28 31 31 30 31 32 31 29 26 26 26 21 20 23 20 22 22 24 28 30 32 31
37 37 36 37 37 37 40 40 39 36 36 35 34 34 36 32 35 36 29 27 25 25 28 27 28 28 30 31 30 26 28 28 25 23 23 25 22 22 25 24 26 26 29

GFSMA_sfc_dewp_078.txt.gz
Dewpoint
60 58 57 57 56 55 53 53 53 53 55 58 58 58 58 58 58 59 59 60 61 62 63 63 62 63 63 64 64 63 64 63 63 63 61 59 57 55 55 55 55 55 55
60 59 58 58 58 56 55 54 56 58 58 59 59 59 59 59 59 58 58 59 63 63 64 65 65 63 62 61 63 62 62 62 63 63 63 62 60 58 56 56 55 55 54
62 61 61 61 60 59 54 57 58 60 59 59 59 59 59 59 58 57 58 58 60 62 63 64 64 65 63 61 61 61 62 62 61 62 62 62 63 61 59 57 56 56 54
64 61 60 61 60 59 57 58 59 59 58 58 58 58 58 58 57 57 58 58 58 58 62 63 62 63 63 62 60 62 62 60 59 59 60 61 62 63 62 60 59 57 56
64 62 61 61 61 59 59 58 58 57 57 58 58 58 58 57 57 57 57 58 59 60 59 61 61 62 63 61 61 62 60 58 58 58 58 59 60 60 61 62 61 59 58
61 61 61 61 60 59 58 58 57 56 58 58 57 58 60 57 57 57 56 55 56 58 59 60 60 59 62 63 60 59 58 57 57 57 55 56 57 58 58 60 61 62 60
64 64 63 60 60 59 57 56 57 57 59 60 62 59 57 56 56 56 55 54 55 57 58 59 59 59 58 60 58 57 56 55 54 54 55 56 54 55 56 56 58 60 62
64 64 64 64 60 60 60 58 59 60 61 62 58 58 53 52 53 54 54 53 54 56 57 58 57 57 56 55 55 54 53 53 53 54 54 54 55 54 54 55 56 57 59
64 65 65 64 63 63 63 63 63 62 62 62 62 58 52 49 52 52 53 52 53 54 54 55 54 53 52 52 52 52 53 53 54 53 53 53 54 55 55 56 57 58 59
64 64 65 64 64 63 63 64 65 64 62 60 62 60 59 57 51 45 51 52 52 51 52 52 51 51 51 51 51 52 52 53 54 55 55 55 55 55 56 56 56 55 57
62 62 62 63 63 63 62 61 59 60 60 59 59 57 55 55 54 51 44 44 52 51 51 51 50 49 50 49 49 50 51 52 51 52 53 53 53 53 55 59 55 55 57
62 62 61 62 62 60 59 59 58 57 56 56 56 55 54 52 50 50 48 47 47 49 52 51 50 49 49 48 48 50 49 50 49 50 51 52 52 52 55 58 58 57 56
60 60 61 61 60 59 58 57 56 56 55 54 55 55 55 54 52 51 50 48 47 48 49 50 50 49 48 48 48 48 49 48 48 49 50 51 50 50 53 56 56 55 57
60 60 60 59 58 57 56 55 55 54 55 55 55 55 54 54 54 53 51 50 48 48 47 49 49 48 47 47 47 46 48 48 48 49 48 47 46 48 51 52 53 53 55
60 59 59 58 57 57 56 55 54 54 54 55 54 54 53 53 53 53 53 52 50 48 46 48 49 48 47 46 46 44 44 46 46 45 45 45 45 46 48 50 51 52 53
58 58 58 56 55 54 54 53 52 52 51 52 52 51 51 51 51 52 53 53 53 51 49 50 49 46 46 45 45 42 43 44 44 43 43 42 43 44 46 47 49 49 50
54 54 53 53 52 51 50 50 49 49 49 49 50 50 50 50 49 50 50 50 50 50 48 47 45 44 44 43 42 40 41 41 42 40 41 39 41 42 43 44 46 47 48
51 51 50 50 49 48 47 46 45 45 45 45 46 48 49 48 49 49 50 49 49 50 48 46 42 41 41 42 40 39 38 37 38 39 37 37 37 40 41 41 42 44 44
48 49 48 47 46 45 44 43 42 42 43 43 44 44 45 46 47 47 47 47 48 46 46 45 41 41 40 38 37 38 36 34 29 37 36 36 35 35 38 38 38 38 41
45 45 45 44 43 42 42 41 41 41 41 41 42 42 43 44 45 45 46 47 46 45 44 43 41 40 39 38 37 35 33 33 29 25 28 30 30 34 34 33 31 32 34
43 43 42 42 42 41 41 41 41 41 41 41 41 41 43 43 43 45 45 46 44 43 42 42 40 39 38 36 35 34 34 31 29 31 30 26 25 24 30 29 30 32 32
42 42 41 41 41 40 42 43 42 41 41 40 41 41 41 42 42 43 43 42 42 42 41 40 39 38 37 36 34 32 32 30 31 30 28 25 23 23 24 29 31 31 31
42 41 41 40 40 40 42 43 42 41 41 41 42 41 41 41 42 42 41 41 40 39 39 40 38 37 36 34 34 33 33 34 33 26 26 22 22 22 25 22 32 32 32
42 41 41 41 41 40 42 43 43 41 41 41 41 41 41 40 40 37 36 34 30 29 30 32 36 36 35 34 35 35 35 32 26 24 25 24 21 21 24 29 32 33 32
42 43 41 41 41 41 41 42 42 41 41 40 40 40 39 38 39 37 34 33 29 30 31 31 31 32 33 34 33 31 31 29 24 21 23 21 21 22 24 29 32 33 32
41 41 40 41 41 42 41 42 42 39 38 38 38 38 39 36 39 39 34 32 31 28 28 30 31 32 32 32 30 29 31 34 27 25 22 26 22 22 25 26 29 29 32

GFSMA_sfc_dewp_081.txt.gz
Dewpoint
61 58 57 57 57 56 54 54 52 50 50 52 54 54 56 56 56 57 58 61 62 63 64 64 64 63 63 65 65 64 64 64 63 63 63 61 59 57 56 55 55 55 55
59 57 56 55 55 55 55 52 51 52 52 55 57 57 57 57 57 57 57 59 63 64 64 65 65 65 64 63 63 64 63 62 62 63 63 63 62 60 58 56 55 55 54
59 57 57 58 58 58 53 53 52 55 56 56 56 57 57 57 57 56 56 58 60 63 64 64 64 64 64 63 63 62 63 61 61 61 62 62 63 63 61 59 58 56 55
61 60 61 61 60 58 57 53 55 56 57 57 57 57 57 57 56 55 56 57 59 57 62 65 63 62 63 63 62 62 62 60 59 59 60 60 61 62 62 62 60 58 57
64 62 59 60 60 60 58 56 57 57 57 57 57 57 58 56 55 54 55 56 57 59 59 63 62 62 64 63 61 63 60 58 58 57 57 58 58 59 60 61 62 60 59
64 62 61 61 62 61 59 59 57 57 56 56 56 56 58 57 58 56 55 54 53 56 57 59 61 60 62 63 62 60 59 57 57 57 56 55 55 56 57 58 59 60 61
63 63 64 63 62 61 59 58 58 57 57 60 59 58 58 57 56 56 55 53 53 54 56 58 59 60 59 61 60 58 57 54 53 54 54 55 56 56 55 56 57 58 60
63 63 64 65 63 63 61 62 58 57 58 60 59 58 55 54 55 54 53 52 52 55 56 57 58 59 58 57 57 55 54 53 53 54 54 54 54 55 54 55 55 57 58
63 64 65 65 64 64 63 62 63 60 61 62 62 59 53 52 53 53 55 52 52 53 55 56 56 56 55 55 54 53 53 54 54 53 53 53 54 55 55 55 55 56 57
63 64 65 65 65 64 63 62 63 63 62 60 62 61 59 58 52 48 52 52 52 51 53 55 54 53 53 54 52 52 52 53 54 55 55 55 54 54 55 55 59 57 57
62 62 63 63 64 64 63 63 61 60 60 60 60 59 55 55 54 53 46 49 52 51 51 52 52 52 52 52 52 51 51 52 51 52 52 53 53 53 54 57 58 56 54
61 61 62 62 63 62 61 60 59 58 57 57 57 55 54 52 51 50 49 47 47 50 52 53 53 52 52 51 50 51 50 50 50 50 51 52 52 52 53 57 57 57 57
61 61 62 61 62 61 60 59 58 57 56 56 55 55 55 55 55 53 52 50 48 49 50 51 52 52 49 50 50 49 50 49 49 49 51 52 49 49 51 54 55 54 55
61 61 62 61 61 61 59 58 57 57 57 56 55 55 55 56 56 54 52 51 49 47 48 49 51 51 50 49 49 48 48 48 49 50 49 48 47 48 49 52 52 53 54
61 61 61 60 60 59 57 57 57 56 55 55 55 55 54 54 54 54 54 53 50 46 46 48 50 49 49 47 48 46 46 47 47 47 46 45 45 46 47 48 50 51 51
58 59 59 59 58 57 56 55 55 55 54 54 54 54 53 53 52 53 53 53 52 51 47 51 50 48 47 46 45 44 44 46 45 44 44 43 43 44 45 46 48 49 49
55 57 57 56 56 55 55 55 53 52 52 52 52 52 51 52 51 51 52 52 51 51 48 48 46 46 46 45 43 42 42 42 43 43 43 40 42 42 43 43 44 46 47
52 53 53 53 54 54 53 51 50 49 49 49 49 50 50 49 50 50 50 50 50 50 49 46 44 42 43 43 41 40 39 37 39 40 39 38 37 41 41 41 42 43 44
47 50 50 50 50 50 49 48 47 46 46 46 46 46 47 48 48 48 48 48 49 47 48 46 42 41 41 39 38 38 37 35 32 41 38 37 36 36 38 38 36 37 40
45 47 48 48 48 48 46 45 45 44 43 43 44 44 44 45 46 47 47 47 47 46 46 45 42 40 40 39 38 36 34 35 31 30 33 32 32 34 35 33 32 33 34
43 45 45 45 44 44 43 44 43 42 42 42 43 43 44 44 43 45 45 46 45 45 44 42 41 40 38 37 36 36 35 33 32 32 30 29 29 28 33 31 30 32 32
43 43 44 43 43 41 43 44 44 43 42 42 42 42 42 42 42 44 44 44 45 43 42 41 40 39 38 37 35 34 32 31 31 32 31 31 25 26 25 29 32 31 31
43 44 43 42 42 42 44 44 44 42 42 42 43 42 42 42 43 42 43 42 42 41 41 41 39 39 38 36 35 33 32 34 34 30 30 29 25 24 25 23 32 32 33
43 43 43 43 42 42 44 44 44 42 42 42 43 42 42 40 41 42 40 38 36 33 34 36 38 37 36 36 35 35 34 33 29 26 27 27 23 23 26 28 32 34 33
42 43 43 43 43 43 43 44 44 42 41 41 40 40 40 40 41 41 37 34 32 31 31 30 32 35 35 37 35 34 33 32 27 24 25 24 23 24 25 30 33 33 32
41 42 42 43 43 43 43 43 43 42 40 39 39 39 41 40 40 41 36 35 32 31 30 31 33 34 34 34 35 33 34 31 30 26 24 27 23 24 26 28 31 31 34

GFSMA_sfc_dewp_084.txt.gz
Dewpoint
60 59 60 59 59 58 57 57 55 53 51 50 50 51 54 56 56 57 57 61 63 65 64 64 64 65 64 64 66 65 65 63 62 63 63 63 60 58 57 55 55 55 55
59 58 57 57 57 56 55 54 52 51 51 52 54 55 56 57 57 57 59 59 63 64 65 65 65 65 65 64 63 64 64 62 62 62 62 63 63 62 60 58 56 55 54
58 57 56 56 56 55 54 53 51 52 55 56 56 57 57 57 57 57 57 59 62 63 65 65 65 63 64 63 64 64 63 62 60 60 60 61 62 63 63 61 59 57 56
59 58 58 58 59 59 56 54 53 54 57 57 57 57 57 58 56 55 56 57 59 59 63 65 65 63 62 63 64 64 63 60 60 59 58 59 60 60 61 62 62 60 58
61 61 61 61 60 59 58 56 55 57 57 57 57 57 57 57 56 54 54 55 56 58 59 63 62 61 62 65 63 64 61 59 58 57 56 56 56 58 58 59 61 61 61
65 63 61 60 61 61 59 58 57 57 57 57 56 55 58 57 57 57 54 53 53 54 56 59 60 60 62 64 63 62 60 58 57 56 56 55 56 55 56 57 58 58 60
65 63 63 63 62 61 60 59 58 57 57 57 58 57 58 57 56 56 54 52 53 55 56 57 60 60 60 62 62 60 59 57 55 54 54 55 55 55 55 54 55 56 58
63 63 63 63 63 62 62 62 61 59 57 57 58 57 56 56 57 54 53 51 51 55 56 57 58 59 58 57 56 58 56 54 54 54 54 54 54 55 55 56 55 56 57
63 64 64 64 64 63 62 62 62 62 61 61 60 58 54 51 53 53 52 52 51 52 55 56 56 56 56 55 54 54 55 54 54 53 53 55 55 55 55 55 55 57 57
63 64 64 64 64 63 62 62 62 62 61 59 61 61 60 58 50 49 52 51 50 50 53 55 54 53 53 52 53 53 54 54 55 55 56 55 54 54 54 55 57 58 57
62 62 62 62 63 63 63 63 61 62 61 61 60 59 57 56 54 52 48 49 52 51 51 53 52 52 51 51 50 50 53 52 52 53 52 53 53 54 54 55 57 57 58
61 61 61 61 61 61 62 62 62 60 58 57 57 56 55 53 52 51 50 50 49 49 51 51 51 51 51 50 50 51 52 51 50 51 51 53 52 52 53 54 55 55 56
60 60 60 60 60 61 61 60 59 58 57 57 56 56 55 54 54 55 53 52 48 48 50 51 52 51 50 49 48 49 51 49 49 50 51 53 50 49 50 52 53 53 53
60 60 60 59 60 60 60 59 59 58 57 56 56 55 55 54 54 54 53 51 48 48 47 47 50 50 49 49 48 49 48 49 49 51 51 49 47 47 49 50 52 53 52
60 60 60 60 60 60 59 58 58 57 57 56 55 55 55 55 55 54 54 52 49 45 45 47 47 48 47 46 47 45 46 49 49 48 47 46 45 46 47 48 49 50 50
57 59 59 60 60 59 58 57 56 56 55 55 55 54 53 53 53 53 52 52 51 50 46 49 46 46 46 46 46 44 45 47 47 45 45 43 43 45 45 45 47 47 48
53 55 57 57 57 57 56 56 55 55 54 54 53 53 52 52 51 51 52 51 50 50 48 45 45 44 45 44 43 42 43 43 44 43 43 41 42 42 43 43 43 44 45
48 52 53 54 55 55 55 55 54 53 53 51 51 51 50 51 50 50 50 49 49 49 49 46 44 42 43 43 42 40 40 39 40 43 42 40 39 41 41 41 41 42 43
45 48 51 51 52 53 53 53 52 50 49 49 49 49 49 49 48 48 48 47 47 47 47 46 41 41 41 40 38 38 38 36 35 43 39 38 37 37 39 37 35 35 38
43 45 48 49 50 50 49 49 48 47 46 45 46 46 46 46 47 47 46 46 46 46 45 45 42 40 40 39 38 37 35 35 32 34 35 34 34 34 36 33 32 32 34
43 43 44 46 47 47 47 47 46 45 45 44 43 44 44 44 44 46 45 44 44 44 44 42 40 40 38 37 36 37 36 34 34 32 31 31 30 29 34 32 30 32 32
42 43 43 43 43 43 44 46 45 44 44 44 42 42 43 43 43 44 45 45 44 43 42 40 40 39 39 37 36 35 33 32 32 33 31 31 28 26 26 29 31 31 31
42 42 42 43 42 42 44 45 45 43 43 43 42 42 42 42 42 41 44 43 44 45 43 41 40 39 38 37 35 34 33 33 34 32 31 29 24 23 24 26 31 32 33
41 42 42 42 42 42 45 44 44 41 41 41 41 41 41 40 41 42 41 39 36 36 37 38 39 38 37 36 36 35 34 32 27 26 28 26 22 23 24 26 31 34 34
39 40 42 43 42 41 44 44 44 39 38 39 41 41 40 40 42 42 39 34 32 31 32 32 33 37 37 38 37 36 33 31 28 25 24 23 22 23 24 29 32 34 32
38 38 40 41 42 42 43 44 44 38 37 38 39 40 42 40 42 42 35 34 32 31 31 32 32 33 35 36 38 35 33 32 29 23 23 23 22 23 21 28 30 30 32

GFSMA_sfc_dewp_087.txt.gz
Dewpoint
64 64 64 64 63 62 60 60 59 56 53 52 50 50 50 53 55 56 55 61 63 65 64 64 64 65 65 65 65 65 64 64 62 62 63 63 62 60 57 56 55 56 55
62 62 62 62 61 59 58 58 56 55 52 51 50 52 54 56 56 57 57 58 63 64 66 65 65 65 65 65 65 65 64 63 62 61 61 62 63 63 61 59 57 56 55
59 59 59 59 58 57 55 54 53 51 51 51 53 56 56 57 57 56 58 58 61 63 65 66 65 65 64 64 64 65 64 62 61 60 60 60 61 61 61 62 61 59 57
58 57 56 56 56 55 54 53 52 53 55 56 56 56 57 57 57 57 57 58 60 60 63 65 66 64 62 63 65 65 64 61 60 59 58 58 59 59 59 60 62 61 59
58 57 58 57 57 58 56 55 54 54 56 57 57 57 57 57 57 55 54 55 58 59 60 62 63 62 62 63 65 65 63 60 59 57 56 56 56 56 57 58 59 60 61
60 59 60 60 60 59 58 57 55 57 57 57 56 55 58 57 56 57 55 53 55 55 58 60 59 60 63 66 65 64 62 59 58 56 55 55 55 56 56 55 56 57 58
64 63 61 62 62 60 59 58 58 57 57 57 57 57 57 57 55 55 55 52 53 55 56 59 59 60 62 63 65 63 61 58 56 55 55 54 55 55 55 55 55 55 57
64 64 63 62 62 62 61 61 60 59 57 57 56 57 55 56 57 56 54 51 54 55 56 57 59 58 58 58 59 61 59 56 55 55 54 54 55 55 55 55 55 55 56
63 63 63 63 63 62 62 62 62 61 60 61 60 57 55 53 53 53 52 51 53 54 56 56 58 58 57 55 56 56 57 55 55 54 54 56 55 54 54 54 56 58 58
62 63 63 63 63 63 61 61 62 61 61 59 60 61 60 59 54 52 54 53 51 50 55 55 55 55 54 53 52 52 54 54 56 55 57 56 54 54 54 54 56 57 58
61 61 62 62 62 62 62 61 60 61 61 60 59 59 59 57 56 54 51 50 52 51 52 54 54 53 52 51 50 52 52 52 54 56 55 54 53 54 53 54 55 56 57
60 61 61 61 60 61 62 62 61 60 59 59 59 58 56 55 54 53 51 52 51 52 53 53 52 52 51 50 50 51 52 52 52 53 53 54 53 51 52 53 53 53 54
58 59 60 60 60 60 61 61 61 60 59 57 57 56 55 55 55 54 53 52 51 52 51 51 51 51 50 49 50 50 51 50 50 51 52 55 51 49 50 51 52 52 51
58 59 59 59 59 59 59 60 59 59 58 58 57 56 55 55 56 56 54 53 50 49 48 48 50 50 49 48 49 50 48 50 49 51 54 51 47 47 48 49 50 50 51
60 60 60 60 60 60 60 59 59 58 57 57 57 56 56 55 55 55 54 52 50 46 46 47 47 47 47 47 48 46 46 50 50 50 48 47 45 46 47 47 48 49 49
56 57 58 59 59 60 59 59 58 58 57 57 56 56 55 55 55 54 54 53 51 48 45 48 46 46 46 46 47 45 46 48 48 48 46 44 43 45 45 44 45 46 47
48 52 53 54 57 57 57 57 57 56 56 55 55 55 55 53 53 53 52 51 50 49 47 45 44 44 45 44 43 42 44 44 45 45 44 43 43 43 43 43 43 43 44
45 46 51 51 53 56 56 56 55 55 55 54 54 54 53 52 50 50 50 50 49 48 47 45 43 41 43 44 43 41 40 40 41 43 45 42 41 43 42 41 40 40 42
43 44 48 50 50 52 54 55 55 54 54 54 53 53 51 51 49 48 48 48 48 47 46 44 42 42 41 40 39 39 38 37 35 40 45 41 39 39 41 38 35 34 37
42 43 43 46 49 50 51 51 51 51 50 50 51 50 49 49 48 47 48 47 46 44 44 43 43 41 40 39 39 37 36 36 34 38 38 37 38 36 37 35 32 32 33
42 42 43 43 45 47 48 48 48 47 47 47 47 47 47 47 47 47 46 45 44 43 42 41 41 40 39 37 37 37 36 35 35 34 33 34 34 31 35 34 31 32 32
41 42 42 42 43 43 45 47 47 46 46 45 45 46 44 45 46 47 46 46 45 42 41 39 40 40 39 38 37 36 35 33 33 35 32 31 30 28 27 28 32 32 31
39 40 41 42 41 42 44 46 46 43 43 44 44 43 43 43 44 43 45 45 45 46 43 41 40 40 38 39 37 35 34 33 34 33 32 31 26 25 25 28 32 32 32
38 38 40 41 42 42 44 45 45 42 41 41 41 41 41 41 42 41 42 40 39 39 41 42 40 41 40 39 38 35 34 33 28 29 31 30 24 23 24 24 30 33 34
37 38 39 40 41 41 44 44 44 39 38 38 40 40 40 40 42 44 39 36 37 36 37 38 38 40 40 40 38 35 33 30 28 26 25 25 22 23 24 27 30 35 33
36 37 36 37 40 40 42 43 44 40 39 39 39 40 43 40 43 44 39 37 36 33 30 31 31 34 37 38 40 36 34 33 29 28 25 23 22 23 20 27 29 30 30

GFSMA_sfc_dewp_090.txt.gz
Dewpoint
63 63 63 63 64 63 61 60 59 57 54 52 50 50 49 48 54 54 54 62 64 66 66 65 65 65 65 65 65 65 64 64 62 62 62 63 63 61 59 57 56 56 54
64 64 63 63 63 63 61 60 58 56 53 52 51 50 50 51 54 56 54 56 63 64 66 65 65 65 65 64 65 65 65 64 62 61 61 61 62 62 63 61 59 57 56
65 63 63 63 63 61 60 58 57 56 54 52 50 50 53 55 56 56 57 56 59 62 65 66 66 65 64 64 64 64 65 63 61 60 59 59 60 60 60 62 62 61 59
64 63 62 61 61 59 57 56 55 53 52 52 52 53 56 57 57 57 57 58 58 59 63 65 66 66 64 63 63 65 64 62 60 59 57 57 57 58 58 59 60 61 61
60 62 60 59 58 57 56 54 53 53 54 56 56 56 57 57 57 57 56 56 59 60 60 62 63 64 63 63 63 65 64 61 60 58 56 55 55 55 55 56 57 58 59
59 58 57 57 56 56 55 55 53 55 56 56 56 56 56 58 57 56 55 55 58 59 59 60 61 59 61 63 64 65 63 61 59 57 55 55 55 55 55 55 55 56 57
59 58 59 58 57 57 56 56 55 55 57 57 57 57 57 57 56 56 56 53 55 56 59 59 59 59 61 64 66 65 62 61 58 56 55 55 54 54 55 55 56 55 55
60 60 61 61 61 60 58 58 58 58 57 57 56 56 55 55 57 57 54 52 53 56 57 58 58 58 59 59 61 63 62 60 57 56 55 54 55 55 55 55 55 57 58
62 62 62 62 62 61 61 61 60 60 59 59 58 57 54 53 54 54 53 51 54 55 56 58 58 58 57 56 57 57 58 58 56 56 55 55 55 54 55 55 56 58 58
62 62 62 62 62 61 61 61 61 60 60 59 60 61 59 57 53 52 55 54 53 53 56 56 57 57 56 55 54 54 55 55 55 56 56 57 55 54 55 55 55 56 57
61 61 61 61 61 62 61 61 60 60 60 59 59 59 58 59 57 54 52 53 54 54 54 55 55 55 55 53 52 52 54 53 54 56 57 57 54 54 54 54 55 55 55
60 60 61 61 61 61 61 61 61 60 60 59 58 58 56 56 55 53 51 52 52 55 55 54 55 54 53 51 51 52 53 53 53 54 55 55 55 52 52 53 53 53 53
59 59 60 60 60 60 60 61 61 60 60 59 59 59 57 56 55 55 52 51 51 53 53 55 54 54 51 50 50 51 52 52 52 53 54 55 53 50 50 51 52 52 53
59 59 59 60 59 60 60 60 60 60 60 59 57 57 57 57 56 55 55 53 51 51 50 50 50 51 50 49 50 50 49 51 50 51 53 53 49 47 48 49 50 50 50
59 59 59 59 59 58 58 59 59 58 58 58 58 57 57 56 56 56 55 55 52 48 49 48 48 48 48 48 49 47 47 50 51 52 50 47 46 46 47 47 48 48 48
51 54 56 58 59 59 59 59 59 59 58 58 58 57 57 56 56 56 55 53 52 49 45 48 46 46 46 47 48 46 47 49 50 49 48 46 44 45 45 45 45 46 46
44 46 51 52 54 55 58 58 58 58 57 58 57 56 56 55 55 55 54 53 52 50 47 45 45 44 44 44 44 44 46 45 45 48 47 46 43 44 44 43 43 44 44
43 44 46 50 50 52 55 56 56 56 56 56 55 55 55 54 53 53 52 51 50 49 48 45 43 42 43 43 42 41 41 41 42 44 46 45 43 44 44 42 41 40 41
42 42 43 44 47 49 50 54 55 55 55 55 55 54 54 53 52 52 51 49 48 47 46 44 42 42 41 41 40 40 39 38 37 40 44 46 42 41 43 41 37 35 35
42 42 42 43 44 46 48 49 51 52 52 52 52 53 53 52 52 50 49 47 47 45 44 43 40 40 39 40 40 39 37 37 37 38 42 40 41 39 39 39 34 32 33
40 41 41 42 43 43 45 46 47 48 49 49 48 49 50 49 48 49 48 47 46 46 44 42 41 40 39 38 38 38 37 37 36 36 36 36 36 34 33 38 33 32 33
39 39 40 40 41 42 45 46 46 45 45 46 46 47 47 47 47 49 48 47 47 45 44 43 41 40 39 37 37 36 36 34 34 35 33 33 33 32 29 32 32 33 32
36 37 38 39 40 41 44 45 45 44 43 43 44 44 44 44 45 46 48 47 47 47 46 43 42 39 37 37 35 34 35 34 35 33 32 32 29 28 27 25 33 32 32
35 36 36 37 38 39 42 43 44 43 41 40 40 41 42 42 43 43 43 42 42 43 42 43 41 39 39 38 38 37 36 34 31 32 33 31 26 25 25 24 30 31 34
33 33 36 36 36 37 40 41 43 42 41 40 39 40 40 40 43 44 40 38 38 39 40 42 42 42 43 42 39 36 34 33 29 28 29 28 24 23 24 24 28 34 35
31 34 34 34 34 34 38 40 42 41 40 40 40 40 42 41 42 45 39 38 37 36 34 34 34 37 41 41 41 38 34 34 30 28 27 27 23 23 20 25 28 29 30

GFSMA_sfc_dewp_093.txt.gz
Dewpoint
65 65 65 65 65 65 64 63 61 58 56 53 51 50 49 46 49 52 55 60 65 67 67 66 65 65 65 65 65 66 64 63 63 62 62 63 63 62 61 59 58 57 56
64 65 65 65 64 64 63 62 60 58 55 52 51 50 50 49 50 53 54 54 63 65 67 67 66 65 65 65 64 66 66 64 62 61 60 61 61 61 61 62 61 60 58
64 64 65 65 64 64 63 61 59 57 54 52 51 51 50 50 52 54 56 54 57 62 64 66 66 65 65 64 64 64 66 65 62 60 59 59 59 59 59 60 61 62 61
64 64 64 64 64 62 62 60 58 56 55 53 51 51 51 53 55 56 56 57 57 57 61 65 67 67 66 64 63 65 65 64 61 60 58 57 56 56 57 57 58 60 61
64 63 64 64 63 62 60 58 57 55 53 53 53 52 53 56 57 57 57 57 58 59 60 62 64 64 65 64 63 64 65 63 61 59 57 55 56 55 56 56 56 57 58
64 64 63 63 61 60 58 56 55 54 53 53 54 55 56 57 57 57 57 56 57 59 59 59 61 61 62 63 63 64 65 63 60 58 57 55 55 55 55 55 56 56 56
62 63 63 62 60 58 57 55 54 53 55 56 56 56 57 56 57 56 56 55 56 58 59 59 60 59 60 63 65 65 65 63 60 57 56 55 55 55 55 56 56 56 58
62 61 61 61 59 58 56 56 55 56 54 57 56 55 54 55 57 57 56 53 55 57 58 58 58 58 58 59 60 65 64 63 60 57 56 55 55 55 55 55 56 58 59
62 61 60 60 59 59 58 58 57 57 56 57 57 56 54 52 55 55 54 52 53 55 56 58 58 58 57 57 59 60 61 62 59 58 57 56 56 54 55 55 56 57 58
61 62 61 61 61 61 60 60 60 59 59 57 58 59 59 56 53 51 54 53 53 54 56 57 58 58 57 57 56 56 57 57 57 57 57 57 57 54 55 55 55 56 56
61 61 60 60 60 61 60 60 59 59 59 58 58 58 58 58 57 54 52 52 53 53 55 56 58 58 57 56 54 54 56 55 55 56 58 58 58 55 54 54 54 54 53
60 60 60 59 59 60 60 60 59 59 59 59 59 58 57 56 56 55 53 51 52 52 54 55 55 57 57 55 53 53 54 55 54 55 57 58 56 55 52 53 53 53 54
59 59 59 59 60 60 60 60 60 60 60 59 59 59 59 57 56 57 53 52 51 52 53 54 55 54 54 53 52 52 53 54 54 55 55 55 56 53 51 51 52 52 52
58 59 59 59 59 60 60 60 60 60 60 60 59 59 59 59 57 57 56 55 52 52 52 51 51 53 52 51 51 51 51 53 52 52 53 55 52 50 48 48 50 50 49
54 57 59 59 59 59 59 59 59 59 59 59 59 59 58 58 57 57 57 56 54 49 50 50 49 49 50 50 51 49 49 51 51 53 53 50 48 47 48 47 47 48 48
49 51 53 54 56 58 59 59 59 59 58 58 58 58 58 57 56 56 56 56 54 52 49 48 47 47 48 48 49 47 47 50 52 52 50 48 46 46 46 45 45 45 45
43 44 46 50 51 52 55 56 57 58 57 58 58 57 57 57 56 56 56 55 54 51 47 46 45 45 45 46 45 45 46 46 48 49 49 47 45 45 46 44 44 44 44
42 42 43 44 47 49 51 53 55 56 56 56 56 56 55 55 55 55 55 54 54 52 50 45 44 43 44 43 42 43 43 43 44 45 47 46 45 44 45 44 43 41 39
41 42 42 43 43 45 48 49 52 53 54 55 55 55 55 54 54 54 53 53 53 50 48 46 42 43 42 42 41 41 40 39 39 42 45 47 46 44 45 43 41 36 34
40 40 41 41 42 43 44 46 47 48 51 51 52 53 54 54 53 53 52 51 49 48 46 44 42 41 41 40 41 39 38 38 37 36 42 43 45 42 42 43 39 33 32
38 39 40 39 40 41 42 44 44 44 45 47 48 49 50 50 49 51 50 49 48 47 45 42 41 40 39 38 39 39 38 35 35 36 37 38 39 38 37 39 36 34 34
35 36 37 38 38 39 42 44 44 42 43 44 45 46 47 47 48 49 50 49 49 47 46 44 41 42 40 39 36 36 36 35 35 36 36 36 36 35 33 35 36 34 34
33 33 35 36 36 37 39 41 42 42 41 41 41 42 44 45 46 47 49 48 48 48 47 46 45 43 41 39 37 33 34 34 35 34 33 33 33 32 31 27 33 34 33
30 31 32 34 35 35 36 38 40 41 42 41 40 39 40 42 43 44 44 44 44 45 46 45 46 44 42 40 38 37 35 33 32 34 34 33 27 29 27 26 32 33 32
28 28 31 32 32 33 35 35 37 37 38 40 41 41 39 39 42 45 42 39 40 40 43 44 44 44 44 43 39 36 32 35 32 31 33 31 25 25 25 25 26 33 35
26 27 27 28 32 30 34 35 33 36 37 37 37 40 42 42 42 43 40 39 38 38 38 37 38 41 43 43 41 38 35 35 31 30 30 29 24 25 25 25 28 29 31

GFSMA_sfc_dewp_096.txt.gz
Dewpoint
65 65 65 65 65 65 65 63 63 62 58 55 52 49 48 47 46 49 54 59 64 67 67 66 66 66 66 66 66 66 65 63 63 62 61 62 63 62 62 61 60 58 57
65 65 65 65 65 65 64 63 62 60 58 54 51 50 50 49 47 50 52 55 61 65 67 67 67 66 65 65 65 65 66 65 64 62 61 60 60 60 61 62 62 62 60
65 65 65 65 65 65 64 62 61 59 56 54 52 50 50 50 50 50 53 53 55 61 64 66 68 67 66 65 64 64 66 65 64 61 60 59 58 58 58 59 59 60 62
64 64 64 65 65 64 64 62 61 59 57 54 52 51 50 51 51 51 53 56 55 55 60 64 66 67 67 65 64 63 65 65 63 61 59 57 56 56 56 56 57 58 59
63 63 64 64 64 62 62 62 60 59 56 55 53 51 51 52 53 54 56 56 57 57 57 61 63 64 66 67 64 63 65 65 62 60 58 57 56 56 56 56 56 56 56
61 63 63 63 62 61 60 61 61 58 56 54 53 52 53 54 55 56 57 57 57 58 58 59 61 61 64 66 64 64 65 65 62 60 58 57 56 55 55 55 55 55 56
62 62 62 63 60 59 58 60 59 57 55 55 55 55 56 56 56 57 57 57 56 57 59 59 59 60 62 63 64 64 65 65 62 60 57 57 56 55 55 55 54 58 59
63 63 62 62 61 59 57 57 58 57 55 56 54 55 53 55 56 57 56 55 55 57 58 58 59 59 59 59 61 64 66 65 63 60 58 57 57 56 55 55 55 57 58
62 63 63 62 61 61 60 59 58 55 54 57 57 55 53 52 54 55 56 55 53 55 57 58 58 58 58 58 61 63 63 64 63 61 59 58 57 56 55 55 55 56 56
62 62 61 61 61 61 59 59 58 57 57 55 57 58 58 55 53 52 54 54 53 54 56 57 58 58 57 57 59 60 61 62 63 61 60 59 58 57 56 54 54 55 55
61 62 61 61 61 61 60 59 59 58 58 57 57 57 57 57 56 53 51 53 53 54 55 56 58 58 57 57 57 57 59 61 61 60 59 59 59 58 56 54 53 53 53
60 60 60 60 60 60 60 60 60 59 59 58 58 57 57 56 56 55 53 52 51 53 53 56 57 57 57 56 55 55 57 59 59 59 58 59 60 59 55 53 53 51 53
59 59 59 59 59 59 59 59 60 59 59 59 59 59 58 58 57 56 55 54 52 53 53 53 55 55 56 55 54 54 55 56 57 56 58 58 57 57 54 52 51 51 51
54 58 59 59 59 59 59 59 59 59 59 59 59 59 59 59 58 58 57 56 54 53 53 52 52 54 54 54 53 53 53 55 56 56 56 55 56 53 51 51 50 50 49
51 52 54 56 59 59 59 59 59 59 59 59 59 59 59 59 59 58 58 57 55 52 52 51 50 51 52 52 53 52 51 53 54 54 55 53 51 51 50 49 49 48 48
45 46 48 52 53 54 56 57 58 59 59 59 59 58 58 58 58 57 57 57 56 55 51 50 49 48 50 50 52 50 50 51 53 54 52 50 49 49 49 48 47 46 46
42 42 43 44 46 49 50 52 54 56 57 57 58 57 57 58 57 57 56 56 55 55 52 46 46 45 46 48 47 48 49 49 51 53 51 49 48 47 48 47 46 45 44
41 41 42 42 43 44 46 48 49 52 53 54 55 56 56 56 56 56 56 55 55 54 50 45 44 44 44 46 45 45 46 46 46 50 50 49 47 46 47 46 45 43 41
39 40 40 40 41 42 43 44 45 46 48 51 53 54 54 55 54 55 55 54 54 51 51 47 43 43 43 44 42 42 42 41 42 45 48 47 47 46 46 46 45 41 37
36 36 38 38 39 40 41 43 44 43 44 45 48 50 51 52 53 53 53 53 52 50 49 47 43 42 42 41 42 41 39 40 39 38 42 44 47 46 45 46 43 38 33
33 35 35 36 37 36 38 40 41 43 42 42 43 45 47 48 48 50 51 51 50 49 47 44 42 41 40 39 41 40 40 38 39 37 37 39 42 41 41 44 41 37 34
31 31 32 34 35 35 38 36 38 39 41 42 41 42 43 45 46 48 49 49 50 49 47 46 43 43 41 40 40 39 37 36 36 37 36 36 38 37 36 36 39 37 35
28 28 29 31 32 33 36 36 36 38 38 39 40 41 41 42 43 44 46 48 49 49 49 47 45 44 42 40 39 36 36 36 36 34 35 35 35 35 35 32 38 38 35
27 27 27 29 30 29 35 35 35 35 36 36 37 40 41 40 40 42 43 43 45 46 47 47 47 45 44 42 41 39 38 35 33 33 34 34 31 33 30 29 34 35 35
25 25 27 28 27 28 33 32 34 32 34 35 36 35 37 40 42 43 42 40 41 42 44 46 47 46 45 44 41 38 35 36 33 33 33 33 27 27 26 26 26 34 33
25 25 25 25 27 27 30 31 31 32 30 32 33 36 39 36 41 42 42 41 39 40 40 39 41 43 45 44 43 41 38 37 33 31 32 30 25 26 27 26 28 28 33

GFSMA_sfc_dewp_099.txt.gz
Dewpoint
66 67 67 66 64 65 65 67 64 64 64 63 59 54 53 51 52 53 55 60 64 67 67 67 66 66 66 66 66 66 65 64 63 62 61 61 63 62 62 62 61 60 58
66 66 66 66 67 65 66 66 66 64 62 61 56 53 50 49 49 50 50 52 60 64 67 68 67 67 67 67 66 66 66 66 64 63 61 60 60 60 61 61 61 61 62
64 65 66 66 66 66 65 65 64 62 61 59 56 54 51 50 49 48 49 52 54 60 64 65 67 67 67 66 66 66 66 66 65 63 61 60 58 58 58 57 57 59 60
61 63 65 65 67 66 66 64 63 62 62 59 56 54 52 51 50 50 51 52 54 54 59 63 65 67 67 66 65 65 65 67 65 62 60 59 57 56 56 55 56 56 57
60 62 64 64 65 66 65 65 63 63 60 59 57 55 53 52 50 50 51 52 54 56 56 59 62 63 66 68 66 65 65 66 65 62 60 58 57 57 56 55 55 55 55
61 62 63 63 63 64 63 64 63 62 61 59 58 56 56 54 52 52 52 53 55 57 57 58 59 59 62 66 67 65 64 66 64 62 60 58 58 57 56 56 55 55 58
61 62 63 62 63 63 61 62 62 59 59 59 57 56 55 54 54 54 54 55 56 58 58 59 59 60 60 64 66 66 64 64 65 62 60 59 58 57 57 56 55 57 58
62 61 63 62 62 62 61 61 60 59 58 58 55 54 52 52 56 55 56 56 57 58 58 59 59 59 61 62 63 65 65 65 65 63 61 59 58 58 57 57 56 57 57
62 62 63 63 62 62 61 60 60 58 56 57 57 56 54 52 54 57 57 57 57 57 57 59 59 59 60 61 61 61 63 65 65 64 62 60 59 58 58 57 56 57 56
62 63 63 63 63 62 60 59 59 58 57 55 57 57 57 58 55 54 56 56 57 55 56 58 59 59 60 60 59 60 61 63 65 64 62 61 59 59 58 57 56 56 55
61 62 62 62 61 61 60 60 59 59 58 57 56 57 57 57 57 56 54 55 55 55 56 57 59 60 59 60 60 60 60 63 65 64 62 61 60 60 59 58 56 55 54
61 61 62 61 61 61 60 60 59 59 58 58 58 57 55 55 55 56 55 55 55 57 57 57 58 59 59 59 59 58 58 62 64 63 62 62 61 61 59 57 55 55 54
53 55 59 59 59 59 60 60 60 58 58 57 57 57 57 57 58 57 56 55 54 56 56 55 56 57 58 59 58 56 56 59 62 62 62 61 60 61 59 56 55 53 53
50 51 54 58 59 59 59 59 59 59 59 59 58 59 58 58 58 58 57 56 54 55 54 55 55 56 57 57 57 54 56 57 58 60 59 59 60 59 56 55 54 53 52
47 48 49 51 53 54 56 58 59 58 59 59 59 59 59 59 59 59 59 58 56 52 53 54 54 54 56 57 55 55 55 55 57 57 58 58 56 55 54 53 52 51 50
43 45 46 47 48 50 51 53 54 55 57 59 59 58 58 59 59 59 58 58 58 56 53 54 53 50 52 52 53 53 53 53 55 55 56 54 53 53 53 51 51 50 49
40 40 41 42 43 44 46 49 50 51 52 53 55 57 57 58 58 58 58 57 56 56 53 49 48 47 48 49 50 51 52 52 53 54 55 52 51 51 51 50 49 48 47
35 35 36 38 40 42 43 43 44 44 46 48 51 52 54 55 56 56 56 55 55 56 54 50 46 45 47 48 48 48 48 50 52 53 53 51 50 49 49 49 48 47 46
33 33 34 35 35 39 41 42 42 42 43 43 44 45 48 51 52 55 55 55 55 54 54 48 45 44 44 45 44 44 45 45 46 50 52 50 49 48 48 48 47 45 43
30 30 32 33 34 35 37 35 38 39 40 41 42 43 44 46 48 49 51 53 53 52 52 50 45 43 43 43 44 43 41 42 42 42 46 47 48 48 47 47 46 44 39
28 28 28 30 31 31 34 35 35 37 37 37 40 41 42 43 44 46 47 49 50 51 49 48 43 42 40 40 42 41 42 40 40 40 41 42 45 47 46 47 45 41 38
26 26 26 27 29 26 33 36 35 34 36 35 35 38 40 42 42 43 45 47 48 48 48 48 46 45 44 45 44 43 39 38 38 40 39 40 43 43 42 43 44 41 38
26 26 26 26 26 27 31 34 34 33 33 33 36 36 35 37 41 41 42 43 45 47 49 49 47 46 45 44 43 42 40 42 41 39 40 39 39 40 39 37 41 41 39
25 25 24 25 25 23 30 32 32 32 33 34 34 34 36 36 36 39 40 42 42 43 45 47 48 48 46 44 43 43 42 40 36 37 40 39 37 38 36 35 40 41 39
26 26 25 25 24 25 29 30 30 30 31 32 32 33 32 33 37 37 36 38 41 42 43 45 46 47 47 46 45 41 38 38 34 35 36 36 32 32 31 31 32 38 37
25 26 24 24 25 24 26 29 28 29 29 30 32 30 32 30 32 36 36 38 36 38 41 41 41 44 46 45 44 43 40 39 35 33 35 35 29 29 30 27 28 31 35

GFSMA_sfc_dewp_102.txt.gz
Dewpoint
66 67 67 63 65 67 63 63 61 60 62 62 58 55 56 55 54 55 57 62 65 66 67 67 67 66 66 66 66 66 65 64 63 64 62 61 63 62 62 62 61 61 60
62 64 66 67 66 63 63 62 62 61 61 61 61 59 54 53 53 53 54 55 62 64 65 67 66 66 67 66 66 66 67 66 65 64 62 60 61 60 61 60 60 60 61
58 60 62 63 65 67 64 64 64 64 65 63 62 60 57 53 50 49 52 52 54 59 62 64 65 67 66 66 67 67 67 67 66 65 63 60 60 59 58 57 57 58 59
56 58 59 60 62 65 66 67 66 65 65 63 62 61 58 54 50 47 47 50 51 51 58 62 65 66 67 66 66 66 66 67 67 65 63 61 59 58 57 56 56 56 56
57 57 58 59 61 64 65 66 65 65 64 64 62 61 58 55 51 48 47 48 50 52 54 58 62 62 64 66 66 66 66 67 67 65 63 61 59 58 57 57 56 56 55
58 59 59 59 59 60 63 64 64 64 64 63 62 60 58 56 54 52 49 49 50 52 54 56 57 58 61 64 66 66 66 66 67 65 63 61 59 59 58 57 57 55 58
58 59 59 60 61 60 59 60 61 61 62 63 62 60 57 57 54 54 53 51 52 52 54 55 57 58 59 62 63 66 66 65 66 65 63 61 59 59 58 58 57 58 58
60 60 60 60 60 62 60 60 61 61 61 61 59 57 55 54 54 53 53 53 53 54 55 56 57 59 61 61 61 64 66 65 64 65 64 61 60 59 58 58 57 59 58
61 62 61 61 61 63 63 61 62 60 59 60 60 56 53 49 49 49 53 52 53 55 55 56 58 59 59 60 61 62 63 65 65 65 65 62 60 59 59 59 58 58 58
59 60 62 62 63 64 63 62 61 60 60 58 59 58 57 56 50 50 57 56 55 54 55 57 57 59 60 62 60 59 61 62 65 65 66 64 61 60 60 59 58 58 58
59 61 61 61 62 62 63 62 61 60 60 59 57 57 56 56 57 55 52 56 57 57 57 58 59 61 61 62 62 61 60 62 63 65 65 65 62 61 60 60 58 58 57
54 54 56 61 61 61 62 61 60 60 59 58 58 57 56 54 54 54 54 54 55 56 58 59 59 60 61 61 60 58 60 62 64 65 65 65 63 62 61 61 59 57 56
50 50 53 54 60 61 61 60 59 59 58 58 57 57 57 57 57 56 55 53 53 55 57 58 58 58 59 60 60 57 57 60 63 65 64 65 63 62 62 61 59 57 56
48 48 50 51 52 53 56 59 59 59 58 58 57 57 56 56 57 57 55 55 53 54 56 56 57 58 58 59 58 55 58 58 60 64 64 63 61 61 61 61 58 57 55
45 46 47 47 48 50 51 53 55 55 58 58 57 58 57 57 58 57 57 56 54 51 50 55 55 56 57 58 57 58 57 57 59 60 61 60 58 59 59 58 57 55 54
39 41 43 45 45 46 48 49 51 50 52 54 55 57 57 57 58 58 58 57 57 55 52 54 55 53 54 55 56 57 57 54 56 58 58 56 57 57 57 56 55 54 53
29 29 31 36 40 42 44 45 46 46 47 48 49 51 53 56 57 57 58 58 57 57 54 54 51 50 50 51 51 54 54 55 56 56 57 56 55 54 54 54 53 52 51
25 26 27 28 29 34 36 38 40 42 42 43 44 46 47 49 51 53 55 55 55 55 54 53 51 47 48 49 51 50 50 51 53 54 55 54 54 53 53 52 51 50 49
23 23 24 25 25 27 28 28 28 30 32 36 40 42 43 45 46 48 49 51 54 54 55 54 51 47 47 46 45 45 46 47 48 52 54 53 52 52 52 51 50 49 48
21 21 21 23 25 25 28 31 31 30 30 31 33 37 39 42 42 43 45 47 48 49 52 52 50 45 45 45 46 45 42 44 45 46 51 51 51 50 50 49 48 47 46
22 22 21 21 22 21 22 32 32 30 30 30 31 31 36 40 42 43 43 44 44 46 47 49 47 44 43 42 43 45 45 44 43 43 45 47 48 48 48 49 47 46 43
22 22 22 21 21 18 29 32 33 29 29 28 28 30 32 36 36 39 41 43 44 43 43 44 47 46 46 45 46 44 43 40 39 42 43 43 46 46 46 47 47 46 42
21 22 21 20 19 18 25 29 31 27 27 27 29 30 29 28 36 33 35 39 41 44 45 44 43 45 47 47 47 44 43 43 43 41 43 41 43 43 45 45 47 45 43
22 21 21 21 21 19 26 28 29 25 25 26 28 28 28 27 29 33 34 34 35 38 40 43 44 45 46 49 48 46 45 44 39 40 43 39 40 41 43 42 45 44 42
24 25 23 23 23 22 25 27 26 24 25 25 23 25 27 28 29 31 30 33 31 33 37 41 43 44 45 47 48 46 40 38 36 35 39 36 36 36 38 39 40 43 43
23 24 23 23 24 23 25 25 26 24 23 21 22 23 29 28 30 32 30 28 28 30 32 35 38 40 43 45 47 45 43 41 40 33 36 34 33 33 33 31 33 37 40

GFSMA_sfc_dewp_105.txt.gz
Dewpoint
67 67 67 68 68 67 66 66 64 62 63 62 58 54 55 55 54 55 56 63 65 66 66 67 67 67 66 65 65 65 65 65 64 63 63 61 62 62 62 62 62 61 61
61 62 63 63 64 66 65 63 62 62 60 63 61 57 54 54 54 54 54 59 64 65 66 66 68 67 66 66 66 66 67 67 66 64 64 61 62 62 61 61 62 61 60
59 59 61 62 61 61 62 66 63 62 64 64 61 60 57 55 51 52 52 54 59 63 65 65 65 67 67 67 66 66 67 67 67 66 65 63 61 60 60 59 59 58 59
58 58 58 59 60 61 61 62 64 65 65 66 65 63 60 59 55 51 49 49 53 53 59 62 65 66 67 67 66 66 67 67 67 68 66 64 61 60 59 58 58 57 57
58 56 56 57 58 60 61 64 65 64 65 65 64 64 63 61 57 51 48 48 49 52 53 59 61 62 65 66 66 66 66 67 67 68 67 64 62 60 59 58 57 57 56
56 56 57 57 57 59 59 62 62 64 64 64 63 63 63 63 60 55 49 48 48 50 52 55 59 59 61 64 65 65 65 66 67 67 67 65 62 60 59 58 58 57 56
57 58 58 57 58 58 58 59 59 61 62 63 62 62 62 61 59 57 55 52 50 51 52 53 55 57 59 62 63 65 65 65 66 66 66 65 63 60 59 59 58 57 58
59 59 59 59 59 59 58 59 60 59 61 61 60 59 56 58 59 58 56 53 51 51 52 53 54 56 58 59 61 63 65 64 65 66 66 65 63 61 60 59 59 58 59
59 60 61 60 60 60 60 61 61 60 59 60 61 58 55 53 54 56 56 54 52 52 52 52 53 54 56 59 61 61 62 64 65 65 66 66 64 62 61 60 59 59 59
57 58 59 60 60 62 62 62 62 62 61 59 61 61 60 58 53 51 55 54 53 51 51 54 54 55 58 60 59 59 60 62 65 65 65 66 65 63 62 60 60 59 59
54 53 54 56 59 61 61 61 62 62 62 61 59 59 59 59 57 55 51 54 55 51 52 54 56 58 58 61 63 61 60 62 65 65 65 65 66 65 63 61 61 59 59
52 50 51 53 54 56 61 61 62 61 61 60 60 59 57 56 55 54 54 54 55 57 59 59 60 61 62 62 60 59 59 61 64 65 65 65 65 65 64 63 62 60 59
48 48 49 50 51 51 53 55 61 60 60 60 59 59 58 57 57 55 54 53 53 55 56 58 59 59 59 61 61 57 58 60 63 64 65 65 64 64 64 63 62 61 59
46 46 47 48 48 49 50 51 52 54 59 58 58 58 57 57 57 57 55 54 52 53 54 54 58 59 59 60 59 56 59 58 60 62 64 64 62 62 63 63 63 62 60
38 41 44 46 46 47 48 48 49 49 51 52 55 56 57 57 57 57 56 55 53 49 51 53 54 57 58 59 58 58 59 57 58 59 60 60 59 60 61 62 61 61 59
30 31 32 35 40 43 46 47 47 47 47 48 49 49 52 53 56 57 57 56 55 53 50 54 55 56 56 56 57 57 58 55 56 58 58 58 59 58 59 60 59 59 57
23 23 24 25 27 29 31 35 39 42 43 45 46 47 48 49 51 52 54 56 56 55 53 54 54 53 52 54 53 54 55 56 57 56 57 57 58 58 58 57 57 57 56
21 22 23 24 23 27 29 29 28 30 31 33 36 41 44 45 48 49 49 50 51 53 55 53 54 49 50 50 51 51 51 52 54 55 56 56 57 56 56 56 55 54 53
20 20 20 21 23 23 23 27 29 29 29 30 31 34 36 39 42 43 45 47 48 49 49 52 51 49 48 47 46 47 48 49 50 51 55 55 55 55 54 54 53 52 51
20 20 19 19 20 20 20 26 27 28 28 29 29 31 31 35 36 40 41 43 44 45 46 48 48 47 46 45 46 45 44 45 47 49 53 53 54 53 53 53 52 50 49
19 19 19 19 19 18 19 26 27 28 27 28 29 27 30 36 38 39 37 40 41 42 43 44 45 45 44 42 43 45 45 44 45 45 49 50 51 51 51 51 49 48 48
20 20 20 19 19 14 27 28 28 26 25 25 26 28 28 33 33 34 37 39 38 39 41 41 41 42 45 45 46 44 44 40 39 43 44 47 49 48 49 49 48 48 47
19 20 20 19 18 18 24 27 29 24 23 24 27 28 27 24 33 27 31 34 37 38 39 40 41 41 42 44 47 44 43 41 44 43 45 45 45 46 47 47 48 47 46
20 20 20 21 22 20 25 27 27 25 23 25 27 26 24 24 28 28 29 29 30 33 35 36 38 40 42 42 43 45 45 44 42 40 45 42 41 42 45 46 48 47 46
24 25 23 23 24 24 26 27 26 25 25 23 21 21 22 24 29 30 30 31 28 28 31 37 39 40 41 42 44 43 41 41 38 36 41 37 37 37 40 41 46 47 46
23 24 24 24 24 24 24 23 24 24 23 20 20 21 28 25 28 29 29 28 27 28 29 30 31 33 36 38 42 42 42 40 41 34 37 39 34 34 34 35 39 45 44

GFSMA_sfc_dewp_108.txt.gz
Dewpoint
65 66 66 66 67 67 66 66 65 64 64 63 61 57 56 58 56 57 60 63 66 67 66 67 68 67 66 65 65 65 65 65 64 64 63 63 61 63 62 62 62 62 61
63 64 63 63 63 65 66 66 65 65 64 65 64 63 54 55 55 54 55 61 64 66 67 66 67 68 67 66 66 66 67 66 66 65 64 64 62 63 63 61 62 62 61
60 60 62 61 61 61 61 63 64 64 65 64 64 63 64 56 54 53 54 57 62 63 65 66 66 67 68 67 66 66 68 68 68 67 66 65 63 62 61 61 59 59 58
59 59 59 60 61 60 61 61 62 63 63 63 63 64 64 63 58 52 51 50 57 59 63 65 66 67 67 67 67 67 67 67 67 67 68 66 64 62 61 60 59 58 58
59 58 58 58 57 59 60 61 62 63 63 62 63 63 63 63 62 57 54 50 49 53 56 60 63 64 65 67 66 67 66 67 67 67 67 67 65 63 61 60 59 58 58
58 57 57 57 57 57 58 60 61 62 62 62 63 63 63 63 63 61 57 55 49 48 51 53 57 58 62 65 66 66 66 67 66 67 67 67 66 64 61 60 59 58 58
59 58 58 58 57 57 57 57 58 60 60 61 60 62 62 62 62 62 60 55 52 49 48 50 54 57 58 63 64 65 66 65 66 67 67 67 66 64 62 60 60 59 58
60 59 59 59 59 58 58 58 57 58 59 61 60 59 56 58 61 61 60 57 53 50 50 51 52 54 56 59 60 63 65 65 65 66 67 67 67 65 63 61 60 60 59
58 58 57 58 59 60 59 59 59 58 58 59 60 58 55 53 55 59 59 58 57 55 51 50 51 53 55 56 60 61 62 64 66 66 66 67 67 66 64 62 61 60 60
54 53 53 54 55 56 58 60 60 60 59 57 58 60 59 57 53 53 56 57 57 56 53 51 50 50 53 56 58 59 60 62 65 65 65 66 67 66 65 63 62 61 60
52 50 51 52 52 53 53 53 58 59 59 58 58 58 59 59 59 56 53 55 56 55 53 52 52 53 54 57 60 60 60 62 64 65 65 65 65 65 66 65 63 61 60
48 47 48 49 50 50 51 52 52 56 59 59 59 59 58 57 56 57 55 54 55 56 56 55 55 57 59 60 60 59 59 61 63 64 64 63 64 65 66 66 64 63 62
46 46 47 47 48 49 49 50 50 50 51 53 59 59 59 58 58 57 56 55 54 55 56 58 58 59 59 60 60 57 57 60 62 63 63 64 64 65 65 66 66 64 63
44 44 45 46 47 47 48 48 48 48 48 49 49 51 55 59 59 58 56 55 53 53 54 53 58 59 59 59 59 57 59 58 60 63 63 63 63 63 63 64 65 65 64
33 37 37 38 43 45 45 45 45 44 45 46 47 48 50 50 52 57 57 56 54 50 51 53 53 57 58 59 59 59 59 57 59 60 60 60 59 59 60 61 62 63 63
27 29 31 32 33 34 35 39 43 42 42 43 44 45 47 48 49 51 51 53 55 53 50 53 54 55 57 57 57 58 58 55 56 58 58 57 57 57 58 59 60 61 62
23 23 24 25 25 27 30 33 34 35 36 39 41 41 44 46 47 48 48 49 49 50 50 52 53 55 54 56 55 56 56 57 57 56 57 57 57 57 57 58 59 60 60
22 21 22 22 23 24 25 27 29 31 31 32 33 35 37 39 42 43 45 47 48 49 48 47 51 51 52 52 52 52 51 52 54 54 56 56 56 56 56 57 58 58 57
22 21 21 21 21 22 22 25 26 28 28 30 31 30 33 36 36 37 41 42 44 45 47 47 47 49 49 47 47 47 48 48 49 51 53 54 55 55 55 56 57 56 55
21 20 20 20 22 21 24 26 26 27 27 27 29 30 30 34 34 35 37 38 39 40 42 43 44 46 46 45 46 45 45 45 46 48 50 52 54 55 55 56 55 53 52
21 20 20 21 21 19 17 24 26 27 26 25 27 29 30 34 36 36 33 37 38 37 38 39 40 41 42 44 44 45 44 45 45 46 47 50 51 52 53 53 51 50 51
21 21 21 21 21 18 27 28 27 26 25 24 24 27 29 33 32 32 31 33 33 35 36 36 36 38 39 42 44 44 44 41 40 42 44 46 50 49 51 52 51 50 50
20 21 21 22 21 21 27 28 28 24 25 24 25 26 26 23 31 29 30 32 32 32 34 36 35 36 37 40 40 39 41 41 42 44 44 43 45 46 49 50 50 49 49
21 22 23 23 23 23 28 28 29 26 25 25 26 25 25 24 26 27 29 30 30 31 31 32 35 36 37 38 39 40 41 41 42 41 44 40 41 42 45 46 49 49 48
23 24 24 24 24 24 28 27 25 24 25 24 22 21 22 24 28 29 29 29 29 28 29 33 35 34 34 35 35 37 36 37 37 38 40 40 38 39 40 41 46 49 48
24 25 24 24 26 24 27 24 23 24 24 24 24 25 28 26 29 29 27 28 28 28 28 29 29 30 31 32 36 36 36 35 35 37 37 38 35 35 35 36 40 46 47

GFSMA_sfc_dewp_111.txt.gz
Dewpoint
64 65 65 66 67 67 66 65 66 66 65 64 63 62 62 63 61 60 59 64 66 68 68 67 67 67 66 66 65 65 65 65 64 64 64 64 63 62 62 62 62 62 61
63 64 64 64 64 65 67 66 65 65 65 65 64 63 60 60 60 58 57 61 64 66 68 68 68 68 68 67 66 65 67 65 65 65 65 64 64 62 63 62 62 62 63
61 62 62 62 61 61 62 63 64 64 64 65 65 65 65 64 56 57 56 59 62 63 66 68 68 68 69 68 67 66 67 67 67 67 66 66 65 63 63 62 61 61 60
61 60 60 61 61 60 60 60 61 62 62 63 62 63 63 64 64 62 58 56 59 61 63 65 66 67 68 68 68 67 68 68 68 67 67 67 67 65 63 61 61 60 59
62 60 59 59 58 58 59 60 60 61 61 61 61 62 62 63 63 63 60 57 55 59 59 62 64 64 66 68 68 67 68 68 67 67 67 67 67 66 64 62 60 60 59
62 61 60 59 58 57 57 58 59 60 60 60 61 62 62 63 63 62 61 58 55 53 55 56 59 61 63 66 67 68 68 68 68 67 67 67 68 67 65 63 61 60 59
61 60 60 59 58 57 57 57 57 59 59 59 59 60 61 62 62 62 62 60 59 55 51 51 54 56 57 64 65 66 67 68 69 68 67 68 68 67 66 64 61 60 60
59 59 58 58 58 59 59 58 57 57 57 59 58 57 55 54 60 61 62 61 60 57 53 50 50 54 55 56 59 63 65 66 68 68 68 67 68 68 66 65 62 61 61
54 54 55 55 54 55 55 56 58 58 57 58 59 57 53 51 53 59 61 61 60 59 56 54 51 50 51 54 59 60 62 64 66 67 67 68 67 68 66 65 64 62 61
52 52 52 52 53 53 52 53 53 54 56 56 58 58 58 56 53 52 57 59 60 59 57 56 53 50 51 53 56 57 59 61 65 66 66 67 67 66 67 66 65 63 62
49 49 49 50 50 51 51 51 50 51 51 53 56 57 57 57 57 55 53 54 58 58 58 57 56 54 52 54 57 57 59 61 64 65 65 66 65 66 66 66 66 64 64
46 46 46 48 48 48 48 49 49 48 49 49 49 51 56 55 53 55 55 55 55 56 58 58 57 55 54 54 55 56 58 61 64 65 65 65 65 65 65 66 67 66 65
41 42 45 47 47 48 47 48 48 48 47 47 47 47 49 50 53 56 56 54 54 55 56 57 56 54 54 55 55 55 57 60 63 64 65 65 64 64 65 65 66 66 66
40 40 38 40 41 44 46 46 45 44 45 46 45 45 46 47 49 51 50 55 54 55 55 55 57 58 58 58 58 56 59 58 60 62 63 64 62 62 63 63 64 64 64
29 33 35 34 35 36 38 40 43 42 43 44 44 44 45 44 46 49 48 49 49 50 51 53 54 57 58 58 58 59 59 57 58 60 60 60 59 59 60 61 62 62 63
27 28 30 31 32 32 33 37 37 39 38 42 42 41 42 44 45 46 45 46 48 47 48 53 54 54 57 58 58 58 58 55 57 58 58 58 57 58 58 59 60 60 60
22 22 22 23 24 25 27 30 31 32 33 34 35 36 36 38 42 40 43 45 46 47 45 48 51 51 54 56 56 57 57 57 58 56 58 57 57 57 57 57 58 58 59
22 22 21 21 21 22 24 26 26 28 28 29 31 33 32 34 38 37 40 40 42 44 45 43 47 48 49 50 50 53 54 54 56 55 56 56 56 56 56 56 56 56 57
21 20 20 21 21 22 23 25 26 26 26 26 27 28 30 32 32 33 38 37 40 39 42 42 43 46 48 47 47 47 48 48 50 51 53 54 54 55 55 55 55 55 55
21 21 20 21 22 21 21 24 25 26 26 25 25 26 28 30 31 32 34 34 37 37 37 38 39 41 44 45 45 45 45 46 47 48 50 51 52 52 54 54 54 53 53
21 21 21 22 22 21 19 25 25 26 26 25 25 25 27 31 34 33 29 33 34 33 35 36 36 37 39 39 42 44 44 45 45 46 46 48 50 52 53 54 53 52 53
21 21 21 22 23 21 28 29 28 26 26 25 24 25 25 29 29 31 32 32 32 31 30 33 34 34 34 38 39 38 39 40 40 44 44 45 49 49 51 52 52 52 52
21 21 22 23 23 23 28 29 29 25 26 25 25 26 24 22 28 26 30 32 31 32 32 31 32 33 35 35 37 35 35 37 38 41 43 42 44 45 48 50 51 51 51
22 22 23 24 24 23 28 29 29 25 25 25 26 25 23 24 26 28 26 29 29 30 30 30 31 33 33 34 35 35 36 37 37 38 43 39 41 42 43 46 50 50 50
22 23 24 24 24 23 28 26 25 23 24 24 24 25 25 24 28 30 27 29 28 28 30 31 32 33 33 33 31 31 30 31 30 32 38 40 37 39 40 42 46 49 49
22 24 23 23 24 21 25 26 26 24 23 23 24 25 28 25 28 29 27 27 29 28 29 29 29 29 30 30 32 32 31 32 30 31 32 35 36 36 36 37 39 45 48

GFSMA_sfc_dewp_114.txt.gz
Dewpoint
63 64 65 65 67 67 67 66 66 66 66 65 66 65 63 64 64 63 62 61 64 67 69 69 67 67 66 66 66 65 65 65 65 64 64 64 64 63 63 62 61 61 61
62 63 64 64 65 66 67 66 65 64 65 65 65 64 63 62 63 62 61 60 63 65 68 69 69 68 67 66 66 66 67 66 65 65 65 64 64 64 62 63 62 62 62
61 61 62 62 62 63 64 65 64 64 63 64 64 65 64 63 61 62 61 59 60 63 66 68 68 68 68 68 67 67 67 67 67 67 66 66 66 66 64 63 63 62 63
62 61 61 62 62 61 60 60 61 61 62 61 62 63 64 63 64 63 60 60 59 61 63 66 67 68 68 69 67 68 68 67 67 67 67 67 67 67 65 63 63 62 61
63 61 61 61 61 60 60 59 59 60 60 60 60 61 61 62 62 64 63 60 57 58 60 61 64 64 66 68 69 68 69 68 68 68 68 68 67 67 66 64 63 62 61
62 62 62 61 60 60 59 59 58 59 59 59 60 60 60 61 61 62 62 62 60 57 57 59 59 62 64 66 67 68 68 69 68 68 68 68 68 68 67 65 64 62 61
59 60 61 60 60 59 58 58 57 57 57 58 57 57 59 60 61 61 62 62 61 57 55 55 57 57 59 64 65 66 67 69 68 68 68 68 67 67 67 66 65 63 62
55 56 57 57 57 58 57 57 58 57 56 57 56 55 53 53 57 60 61 61 61 61 59 55 53 53 54 55 60 64 66 67 68 69 68 68 68 68 68 67 65 64 62
53 53 54 55 54 54 53 53 53 53 54 54 56 56 52 49 52 55 58 60 60 61 60 59 57 54 53 53 56 59 62 64 66 68 68 68 68 67 68 67 67 65 64
50 51 51 51 52 52 51 51 51 51 52 52 54 56 56 56 52 50 52 55 59 60 60 60 58 55 52 52 54 55 58 61 64 66 66 68 69 68 67 67 67 66 65
46 47 48 48 49 49 49 50 48 48 49 48 49 49 50 52 55 53 51 51 53 56 59 59 59 57 55 53 53 53 57 60 63 65 65 65 68 68 67 67 67 67 66
42 42 45 46 46 46 46 48 48 48 47 47 47 47 47 47 46 47 49 51 52 53 57 59 58 58 57 56 53 54 56 59 61 63 64 65 65 66 67 67 67 67 66
38 37 38 39 40 43 46 46 44 44 44 44 44 44 45 46 46 47 46 45 45 50 55 57 58 58 57 57 56 53 55 58 60 63 63 64 62 63 64 66 67 67 66
37 36 36 37 37 37 39 42 43 42 42 42 43 42 44 45 44 46 44 43 43 45 53 55 57 58 57 57 55 54 55 56 58 61 63 61 60 61 62 62 64 65 65
27 32 34 33 34 33 35 37 38 40 41 42 43 42 41 42 44 42 41 42 43 41 43 51 54 52 53 58 57 57 57 56 58 59 60 60 59 59 60 61 61 61 62
25 26 26 27 28 29 31 32 32 33 33 36 37 37 37 39 41 41 41 42 41 42 42 46 48 49 51 51 55 58 58 55 56 58 58 58 57 57 58 59 60 60 61
22 21 21 21 22 22 25 27 28 29 29 29 31 32 33 35 37 37 38 40 39 42 39 40 43 46 48 48 50 51 55 58 58 57 58 57 57 57 57 58 58 59 59
21 20 21 21 21 22 22 25 26 27 27 26 26 28 28 30 33 34 36 38 37 39 38 36 39 42 43 48 48 48 50 51 51 53 56 57 57 56 56 56 56 56 57
21 21 20 21 22 22 21 24 25 26 26 26 26 25 26 29 29 30 33 35 36 37 38 37 37 40 42 44 44 46 47 48 49 49 51 52 53 55 55 55 55 55 55
21 21 21 21 22 22 21 22 24 25 26 26 26 26 26 27 28 30 31 31 34 34 33 33 34 36 38 39 41 42 40 43 45 47 49 50 51 51 52 53 54 53 52
21 21 21 22 23 22 21 26 26 26 25 26 26 25 26 29 29 29 28 31 31 31 31 30 31 33 33 34 36 36 36 37 40 45 45 47 48 49 51 52 51 51 51
21 21 22 23 23 21 27 29 28 26 26 25 24 25 26 27 28 30 32 32 31 30 29 29 30 30 30 34 35 35 35 34 34 43 40 40 45 46 48 49 51 51 51
21 21 22 23 22 23 28 29 28 25 25 24 25 25 24 24 28 26 29 31 31 33 31 29 28 29 31 32 33 32 31 32 33 35 36 35 41 42 45 47 49 50 51
20 21 22 23 23 22 28 27 27 23 23 24 25 25 24 25 26 27 27 27 28 29 30 30 30 30 31 32 31 30 30 31 32 33 35 34 38 40 43 44 47 49 50
21 21 23 22 21 22 26 27 27 24 24 24 24 24 26 25 27 29 26 27 27 28 30 31 32 33 33 33 32 30 29 29 28 29 32 32 33 37 38 40 43 46 49
21 23 22 21 21 19 26 26 26 25 24 23 24 25 27 25 28 28 27 26 26 27 28 30 31 30 31 30 31 29 28 30 29 26 33 31 34 35 35 36 37 40 45

GFSMA_sfc_dewp_117.txt.gz
Dewpoint
63 64 64 65 65 65 65 66 66 66 66 65 65 65 64 64 64 64 64 63 64 65 65 66 69 67 67 66 66 66 66 65 65 64 64 64 63 63 63 62 61 61 61
62 62 63 63 64 65 66 66 65 65 65 65 65 65 65 65 64 64 64 63 63 64 66 65 67 68 67 68 67 66 67 66 65 65 65 65 64 64 64 63 63 62 62
62 62 62 62 62 63 64 64 63 63 64 64 65 65 65 64 64 63 64 63 62 62 64 65 67 68 68 67 67 67 66 67 67 67 67 66 66 66 65 64 63 63 63
61 61 61 61 62 62 61 61 61 61 62 61 62 62 63 63 64 62 62 62 62 61 62 64 66 67 67 68 67 67 68 67 67 67 67 67 67 66 66 65 64 63 63
60 62 62 62 61 61 60 59 59 59 59 59 60 60 60 61 61 63 63 62 61 59 59 61 63 64 65 67 68 68 68 68 67 68 68 67 67 67 67 66 66 64 63
59 59 61 61 61 60 60 59 58 58 59 59 59 59 59 59 60 60 61 62 62 61 58 58 59 61 63 65 66 68 68 68 68 68 68 68 68 68 68 67 67 65 64
56 56 58 59 59 59 59 59 58 57 57 58 56 56 56 58 59 60 60 61 61 61 61 59 58 58 59 63 65 66 67 68 68 68 68 68 68 68 68 68 67 66 64
53 53 55 55 55 56 55 55 54 56 58 58 55 55 50 51 55 58 59 60 60 61 61 59 57 56 57 57 59 64 66 67 67 67 67 68 68 68 68 68 68 67 66
50 51 52 52 53 53 53 52 52 52 52 54 54 55 51 47 51 52 55 58 59 60 60 60 60 57 55 54 56 58 62 64 66 67 66 68 68 68 69 68 68 67 66
46 47 48 49 50 51 51 50 50 50 51 49 51 51 51 51 48 47 51 52 54 55 57 59 60 60 59 57 55 55 56 60 64 65 66 65 66 68 68 68 68 68 67
41 42 45 46 46 46 48 48 48 48 48 48 47 47 48 48 49 46 46 46 47 49 53 56 57 59 59 57 56 55 56 58 61 63 64 65 66 67 68 68 68 67 67
39 38 39 40 42 44 44 44 43 44 44 45 45 44 44 46 45 44 43 43 44 46 46 48 56 57 58 58 57 55 56 57 60 62 62 64 65 64 65 67 67 67 66
35 36 37 37 37 39 40 43 43 42 43 42 42 43 43 44 43 43 45 42 42 43 48 47 54 56 53 55 57 55 54 56 58 60 61 63 63 63 63 63 66 67 66
35 34 34 34 34 34 37 38 41 40 42 42 41 41 41 42 42 42 38 39 38 42 44 46 51 49 48 49 52 52 56 55 56 59 61 61 60 61 61 62 62 64 65
25 28 28 29 29 29 32 32 35 32 35 36 39 38 37 41 42 40 40 40 40 37 38 44 44 45 46 48 47 51 51 53 56 57 58 59 58 59 59 60 60 60 60
23 24 24 25 25 26 28 29 30 30 29 31 32 33 34 36 38 39 38 39 39 37 36 39 38 41 43 42 45 47 49 50 52 57 57 57 57 57 58 59 59 59 59
21 20 21 21 21 22 23 26 27 28 27 27 28 29 29 30 35 36 37 38 37 38 34 35 36 38 39 41 43 44 48 49 50 51 53 56 57 57 58 58 58 59 59
21 21 20 21 21 22 22 24 24 26 26 26 26 27 27 25 30 31 32 34 36 37 36 32 33 35 36 39 39 41 45 47 45 47 50 52 53 56 56 56 57 57 57
21 21 21 21 22 23 21 21 23 25 26 25 26 25 25 26 27 29 30 33 32 35 34 32 31 33 36 37 37 39 38 39 40 43 49 51 51 52 52 54 56 56 55
20 20 21 22 23 23 22 23 26 26 25 25 26 26 26 26 27 28 28 29 30 32 31 30 30 30 33 34 37 36 35 37 37 39 44 44 45 47 50 51 52 51 52
20 21 21 22 23 22 21 26 27 26 26 25 25 25 26 28 28 29 27 30 30 30 30 29 28 29 29 31 32 34 32 33 34 42 36 36 38 41 46 48 49 50 51
20 21 21 22 22 21 27 29 28 25 25 25 23 25 25 27 28 29 31 31 30 29 30 30 27 27 28 30 31 31 31 29 27 37 32 32 36 38 40 43 47 49 49
20 20 21 22 22 22 27 27 28 23 23 23 25 25 25 24 28 26 29 30 30 31 31 29 28 27 28 29 30 29 28 29 28 30 33 30 34 37 41 44 45 46 48
19 20 21 22 21 20 26 27 28 24 24 24 25 24 24 25 26 26 26 26 27 28 28 29 29 29 30 30 31 32 30 29 30 31 33 29 32 32 35 40 41 44 46
19 20 22 21 20 21 26 27 27 25 25 24 24 24 25 24 27 28 25 27 27 27 29 30 31 32 32 32 33 31 27 26 25 25 29 31 31 32 35 37 40 42 43
20 22 21 20 21 20 25 27 26 25 24 23 23 25 27 25 28 28 25 26 25 27 26 26 27 29 31 31 32 30 28 24 26 24 30 29 29 29 27 33 35 38 39